     2              OBSERVATION DATA    GPS                 RINEX VERSION / TYPE
teqc 1999Jul19 19991123 03:23:06UTC                         PGM / RUN BY / DATE
                                                            COMMENT
Original Marker Name: PILG                                  COMMENT
Campaign Name: HPGN 1991                                    COMMENT
4-Character Station Name: PILG                              COMMENT
6-Character Antenna Code: TRMSST                            COMMENT
Vertical Measurement Point: BPA                             COMMENT
Vertical Offset to Rinex Ref. Point: 0.0000                 COMMENT
Radial Measurement Point: RRP                               COMMENT
Radial Offset to Rinex Ref. Point: 0.0000                   COMMENT
Antenna Height from Field Measurement: 2.2200 m             COMMENT
                                                            COMMENT
Original XYZ: -2543615.1799 -4073491.4806 4184856.5656      COMMENT
New XYZ position is based on association with SCEC monument COMMENT
E1P2H8D2+0011. Position of that monument is believed to be  COMMENT
valid to within 1 m horizontally; vertical accuracy         COMMENT
should be no worse than 3-times this value.                 COMMENT
                                                            COMMENT
Revised Rinex header created by UCSD GPS archive for        COMMENT
GSAC on 10-Mar-2000 (2000:070) 17:43:40 GMT                 COMMENT
For assistance contact dagnew@ucsd.edu or hjohnson@ucsd.edu COMMENT
                                                            COMMENT
PILGRIM                                                     MARKER NAME
PILG                                                        MARKER NUMBER
-Unknown- CALIF DEPT TRANSPORTATION                         OBSERVER / AGENCY
484 TRIMBLE 4000 SST NP 4.30 / SP 4.20                      REC # / TYPE / VERS
18 TR 4000SST L1/L2 GEO                                     ANT # / TYPE
 -2543615.5942 -4073500.5143  4184856.9340                  APPROX POSITION XYZ
        2.2200        0.0000        0.0000                  ANTENNA: DELTA H/E/N
     1     1     0                                          WAVELENGTH FACT L1/2
     5    C1    L1    L2    S1    S2                        # / TYPES OF OBSERV
     0                                                      INTERVAL
  1991     6    20    17     7   15.000000                  TIME OF FIRST OBS
  1991     6    20    21    51   60.000000                  TIME OF LAST OBS
                                                            END OF HEADER
 91  6 20 17  7 15.0000000  0  6G19G18G16G 6G11G 2
  21089985.680          -0.22716        -0.48432        19.000           1.844
  23115503.102          -0.22816        -0.20631        16.750           0.688
  23399643.844          -0.26416        -0.14331        12.500           0.625
  22980821.922          -0.91516        -0.37531        14.750           0.688
  23110315.680          -0.82416        -0.17531        18.750           1.063
  21889389.594          -0.79017                        23.750
 91  6 20 17  7 30.0000000  0  6G19G18G16G 6G11G 2
  21091123.258        5959.833 6      4643.70722        18.000           1.781
  23123007.563       39443.608 6     30735.18421        16.500           0.813
  23399093.969       -2920.524 6     -2275.69121        14.000           0.625
  22972256.445      -45014.459 6    -35075.85721        14.500           0.688
  23107660.969      -13935.150 6    -10858.09021        18.000           1.156
  21880894.930      -44650.997 7        -0.34832        23.750           2.219
 91  6 20 17  7 45.0000000  0  6G19G18G16G 6G11G 2
  21092261.531       11957.977 6      9317.57122        19.500           1.813
  23130518.172       78918.689 6     61494.92621        16.750           0.813
  23398551.773       -5731.257 6     -4465.89621        12.250           0.625
  22963686.633      -90025.824 6    -70149.62921        15.000           0.625
  23105038.789      -27738.922 6    -21614.27121        19.000           1.094
  21872406.180      -89247.388 7    -34750.76522        23.250           2.219
 91  6 20 17  8  0.0000000  0  6G19G18G16G 6G11G 2
  21093406.984       17969.612 6     14001.95122        17.750           1.750
  23138034.617      118400.160 6     92259.65121        16.750           0.656
  23398040.109       -8457.172 6     -6590.01821        14.000           0.563
  22955120.602     -135059.507 6   -105240.78721        15.500           0.750
  23102425.984      -41436.740 6    -32287.88721        17.750           1.063
  21863928.086     -133814.381 7    -69478.28222        24.750           2.219
 91  6 20 17  8 15.0000000  0  6G19G18G16G 6G11G 2
  21094561.859       24044.806 6     18735.85522        18.750           1.813
  23145558.227      157937.766 6    123068.11721        16.750           0.688
  23397540.742      -11048.183 6     -8609.01021        13.500           0.594
  22946557.547     -180065.384 6   -140310.30521        15.250           0.688
  23099850.461      -54978.596 6    -42839.98021        17.750           1.125
  21855458.773     -178301.878 7   -104143.85222        24.000           2.219
 91  6 20 17  8 30.0000000  0  6G19G18G16G 6G11G 2
  21095726.758       30156.515 6     23498.20522        18.250           1.781
  23153082.180      197504.217 6    153899.05421        15.500           0.750
  23397073.016      -13531.484 6    -10544.07621        13.500           0.656
  22937989.344     -225070.637 6   -175379.30821        14.500           0.625
  23097298.578      -68391.370 6    -53291.49821        18.000           1.125
  21847002.648     -222736.819 7   -138768.47522        23.500           2.281
 91  6 20 17  8 45.0000000  0  6G19G18G16G 6G11G 2
  21096900.688       36334.131 6     28311.91922        19.500           1.656
  23160624.211      237128.722 6    184775.23421        15.750           0.813
  23396623.758      -15878.289 6    -12372.77521        13.250           0.750
  22929429.555     -270045.651 6   -210424.75021        14.000           0.625
  23094775.734      -81645.616 6    -63619.47121        17.750           1.188
  21838565.086     -267089.556 7   -173329.03922        24.250           2.313
 91  6 20 17  9  0.0000000  0  6G19G18G16G 6G11G 2
  21098099.477       42610.202 6     33202.35122        17.500           1.750
  23168178.078      276843.583 6    215721.81121        14.500           0.750
  23396211.141      -18055.981 6    -14069.70921        13.000           0.625
  22920883.141     -314958.030 6   -245421.40321        14.500           0.719
  23092293.625      -94708.804 6    -73798.58121        19.000           1.031
  21830144.930     -311327.517 7   -207800.17022        24.250           2.250
 91  6 20 17  9 15.0000000  0  6G19G18G16G 6G11G 2
  21099297.070       48939.339 6     38134.12622        18.500           1.656
  23175747.258      316603.273 6    246703.31221        15.500           0.813
  23395818.734      -20110.291 6    -15670.49221        13.500           0.688
  22912343.648     -359853.210 6   -280404.64221        15.500           0.750
  23089832.555     -107626.212 6    -83864.08921        18.250           1.063
  21821737.578     -355496.196 7   -242217.32022        23.500           2.219
 91  6 20 17  9 30.0000000  0  6G19G18G16G 6G11G 2
  21100516.883       55318.668 6     43105.02322        18.500           1.688
  23183323.367      356404.673 6    277717.33521        16.000           0.688
  23395452.016      -22044.072 6    -17177.36421        14.500           0.594
  22903800.992     -404733.698 6   -315376.44521        14.500           0.688
  23087399.836     -120400.507 6    -93818.07921        18.000           1.156
  21813345.586     -399598.307 7   -276582.60122        23.000           2.188
 91  6 20 17  9 45.0000000  0  6G19G18G16G 6G11G 2
  21101740.195       61759.945 6     48124.18222        19.250           1.750
  23190906.813      396259.210 6    308772.74821        15.750           0.656
  23395108.727      -23845.496 6    -18581.09721        14.500           0.625
  22895266.133     -449587.874 6   -350327.73421        14.500           0.813
  23085000.688     -133020.170 6   -103651.59221        18.250           1.250
  21804968.195     -443621.888 7   -310886.68522        23.250           2.219
 91  6 20 17 10  0.0000000  0  6G19G18G16G 6G11G 2
  21102975.875       68257.714 6     53187.36222        18.250           1.781
  23198503.078      436161.128 6    339865.10121        15.750           0.688
  23394789.273      -25520.343 6    -19886.18521        13.750           0.625
  22886734.461     -494421.285 6   -385262.84221        15.500           0.813
  23082626.969     -145490.512 6   -113368.74621        17.500           1.125
  21796610.273     -487572.394 7   -345133.83622        23.750           2.250
 91  6 20 17 10 15.0000000  0  6G19G18G16G 6G11G 2
  21104219.508       74799.546 6     58284.88322        19.000           1.781
  23206102.125      476097.669 6    370984.40521        16.000           0.750
  23394494.703      -27081.332 6    -21102.57621        13.750           0.656
  22878205.992     -539246.172 6   -420191.32821        14.750           0.844
  23080281.070     -157823.922 6   -122979.19021        17.750           1.188
  21788252.398     -531462.222 7   -379333.70222        22.750           2.344
 91  6 20 17 10 30.0000000  0  6G19G18G16G 6G11G 2
  21105476.102       81387.816 6     63418.58422        18.500           1.750
  23213706.867      516070.900 6    402132.32121        14.250           0.688
  23394217.234      -28526.312 6    -22228.57321        14.000           0.625
  22869673.977     -584060.266 6   -455111.37521        15.000           0.813
  23077957.563     -170017.901 6   -132480.99421        17.250           1.188
  21779914.383     -575288.858 7   -413484.32222        24.000           2.313
 91  6 20 17 10 45.0000000  0  6G19G18G16G 6G11G 2
  21106738.391       88035.818 6     68598.83122        19.500           1.813
  23221322.836      556093.784 6    433318.90821        13.750           0.719
  23393969.609      -29842.115 6    -23253.88021        13.750           0.594
  22861152.969     -628850.445 6   -490012.80221        15.500           1.063
  23075667.477     -182059.375 6   -141863.96321        17.250           1.219
  21771589.148     -619039.210 7   -447575.50822        24.000           2.281
 91  6 20 17 11  0.0000000  0  6G19G18G16G 6G11G 2
  21108014.859       94726.405 6     73812.26422        18.750           1.844
  23228944.867      596148.944 6    464530.65021        14.750           0.625
  23393733.117      -31045.984 6    -24191.98921        12.500           0.625
  22852636.734     -673633.551 6   -524908.71121        15.500           0.813
  23073401.219     -193965.191 6   -151141.22521        18.000           1.188
  21763276.930     -662730.257 7   -481620.47922        24.250           2.438
 91  6 20 17 11 15.0000000  0  6G19G18G16G 6G11G 2
  21109293.078      101455.711 6     79055.86322        18.750           1.750
  23236576.328      636232.533 6    495764.56221        15.250           0.719
  23393530.703      -32141.664 6    -25045.79921        13.500           0.594
  22844109.758     -718413.435 6   -559802.11121        14.500           0.875
  23071161.453     -205739.160 6   -160315.74221        17.750           1.125
  21754975.594     -706365.475 7   -515621.95522        24.750           2.375
 91  6 20 17 11 30.0000000  0  6G19G18G16G 6G11G 2
  21110588.273      108255.092 6     84354.07322        18.250           1.844
  23244207.070      676375.413 6    527044.64721        14.250           0.781
  23393350.430      -33098.183 6    -25791.16621        14.250           0.563
  22835588.273     -763158.763 6   -594668.58421        13.250           0.906
  23068950.352     -217350.024 6   -169363.16521        18.000           1.094
  21746686.055     -749913.693 7   -549555.63322        24.750           2.438
 91  6 20 17 11 45.0000000  0  6G19G18G16G 6G11G 2
  21111892.242      115115.711 6     89699.99422        19.250           1.844
  23251859.375      716568.791 6    558364.10221        14.250           0.719
  23393188.523      -33924.545 6    -26435.09321        13.500           0.625
  22827084.102     -807878.274 6   -629514.94421        15.000           1.000
  23066774.344     -228806.496 6   -178290.29521        18.750           1.094
  21738409.516     -793383.560 7   -583428.25422        23.500           2.438
 91  6 20 17 12  0.0000000  0  6G19G18G16G 6G11G 2
  21113207.453      122031.136 6     95088.62122        18.250           1.844
  23259517.977      756805.777 6    589717.54121        14.750           0.656
  23393057.578      -34627.650 6    -26982.99021        13.000           0.656
  22818578.125     -852578.457 6   -664346.23021        14.250           0.875
  23064620.414     -240114.979 6   -187102.09521        18.250           1.250
  21730153.297     -836781.454 7   -617244.78822        24.000           2.438
 91  6 20 17 12 15.0000000  0  6G19G18G16G 6G11G 2
  21114532.930      129003.767 6    100521.83622        18.500           1.750
  23267182.289      797088.560 6    621106.64721        14.750           0.719
  23392944.867      -35204.970 6    -27432.87721        12.500           0.594
  22810080.891     -897256.766 6   -699160.47721        15.500           0.938
  23062496.969     -251272.963 6   -195796.63621        18.250           1.219
  21721911.805     -880104.793 7   -651003.22022        24.750           2.375
 91  6 20 17 12 30.0000000  0  6G19G18G16G 6G11G 2
  21115873.766      136024.803 6    105992.75822        18.250           1.938
  23274854.313      837408.159 6    652524.44521        14.250           0.594
  23392857.789      -35665.628 6    -27791.84121        12.750           0.594
  22801579.828     -941921.973 6   -733964.52321        15.750           0.844
  23060399.461     -262289.384 6   -204380.85521        17.000           1.156
  21713678.961     -923362.290 7   -684710.35923        24.750           2.531
 91  6 20 17 12 45.0000000  0  6G19G18G16G 6G11G 2
  21117221.406      143130.579 6    111529.70722        18.750           1.750
  23282540.477      877800.561 6    683998.98721        14.750           0.688
  23392806.125      -35973.424 6    -28031.70721        13.000           0.625
  22793091.758     -986537.872 6   -768730.15021        16.000           0.844
  23058336.328     -273127.937 6   -212826.49221        17.250           1.094
  21705466.578     -966517.666 7   -718337.91522        24.500           2.313
 91  6 20 17 13  0.0000000  0  6G19G18G16G 6G11G 2
  21118588.406      150296.922 6    117113.85922        18.250           1.906
  23290237.758      918241.402 6    715511.25721        14.500           0.656
  23392771.586      -36152.661 6                        13.000
  22784605.602    -1031128.476 6   -803476.04921        15.750           0.781
  23056304.688     -283812.705 6   -221152.27821        17.750           1.188
  21697270.414    -1009594.768 7   -751904.47723        24.750           2.531
 91  6 20 17 13 15.0000000  0  6G19G18G16G 6G11G 2
  21119964.172      157532.956 6    122752.30922        19.500           1.875
  23297945.133      958739.447 6    747068.09921        13.750           0.625
  23392755.844      -36194.361 6                        12.500
  22776122.930    -1075684.726 6   -838195.17521        15.250           0.844
  23054303.922     -294334.485 6   -229351.07321        18.250           1.188
  21689088.805    -1052584.640 7   -785403.06623        24.750           2.625
 91  6 20 17 13 30.0000000  0  6G19G18G16G 6G11G 2
  21121358.906      164822.767 6    128432.66722        17.750           1.750
  23305657.602      999278.490 6    778656.89421        14.000           0.656
  23392775.289      -36114.632 6                        13.000
  22767643.578    -1120222.480 6   -872899.91121        14.750           0.813
  23052326.750     -304709.196 6   -237435.26121        18.000           1.219
  21680920.219    -1095503.156 7   -818846.05523        23.750           2.563
 91  6 20 17 13 45.0000000  0  6G19G18G16G 6G11G 2
  21122752.688      172180.942 6    134166.29722        19.250           1.688
  23313384.141     1039872.834 6    810288.78921        14.250           0.656
  23392819.523      -35899.104 6                        12.750
  22759180.500    -1164727.198 6   -907578.89521        15.000           0.781
  23050386.359     -314922.418 6   -245393.61721        18.750           1.188
  21672769.719    -1138335.564 7   -852221.94823        24.000           2.656
 91  6 20 17 14  0.0000000  0  6G19G18G16G 6G11G 2
  21124165.250      179574.682 6    139927.63622        17.750           1.813
  23321114.172     1080489.592 6    841938.13921        14.250           0.469
  23392878.789      -35580.990 6                        12.250
  22750713.492    -1209231.504 6   -942257.54921        15.500           0.781
  23048466.953     -325006.694 6   -253251.49921        19.250           1.156
  21664629.156    -1181114.688 7   -885556.32323        24.250           2.625
 91  6 20 17 14 15.0000000  0  6G19G18G16G 6G11G 2
  21125576.406      187030.871 6    145737.64422        18.750           1.781
  23328853.070     1121155.349 6    873625.68021        14.250           0.656
  23392962.242      -35133.479 5    -27377.36521        11.750           0.594
  22742246.906    -1253708.566 6   -976914.98521        15.250           0.719
  23046579.000     -334935.209 6   -260988.00721        19.000           1.156
  21656504.719    -1223813.447 7   -918828.06423        24.750           2.656
 91  6 20 17 14 30.0000000  0  6G19G18G16G 6G11G 2
  21127009.461      194531.830 6    151582.53322        18.000           1.813
  23336592.766     1161852.380 6    905337.58421        12.750           0.688
  23393068.992      -34574.239 6    -26941.61221        12.500           0.594
  22733783.953    -1298175.943 6  -1011564.87821        15.500           0.875
  23044711.836     -344725.616 6   -268616.89121        18.500           1.188
  21648393.242    -1266449.442 7   -952050.90123        24.500           2.656
 91  6 20 17 14 45.0000000  0  6G19G18G16G 6G11G 2
  21128438.531      202057.684 6    157446.82422        19.500           1.750
  23344342.188     1202560.334 6    937057.97521        14.750           0.594
  23393188.641      -33923.159 6    -26434.32021        12.500           0.656
  22725321.227    -1342653.526 6  -1046222.72621        15.250           0.813
  23042871.695     -354397.648 6   -276153.55321        18.500           1.250
  21640282.570    -1309042.430 7   -985240.23323        23.750           2.594
 91  6 20 17 15  0.0000000  0  6G19G18G16G 6G11G 2
  21129874.000      209599.454 6    163323.51622        18.750           1.813
  23352087.820     1243269.811 6    968779.59321        14.250           0.594
  23393333.820      -33189.769 6    -25862.87521        12.500           0.531
  22716854.711    -1387150.257 6  -1080895.47821        15.000           0.844
  23041053.492     -363960.450 6   -283605.08721        18.000           1.313
  21632188.625    -1351601.484 7  -1018403.11623        24.500           2.594
 91  6 20 17 15 15.0000000  0  6G19G18G16G 6G11G 2
  21131317.211      217202.756 6    169248.16022        18.750           1.813
  23359844.508     1284026.310 6   1000537.82521        14.250           0.625
  23393495.094      -32328.410 6    -25191.70321        12.000           0.500
  22708390.992    -1431620.527 6  -1115547.63021        15.750           0.844
  23039263.195     -373368.379 6   -290935.94621        18.250           1.188
  21624104.156    -1394080.895 7  -1051503.93523        24.500           2.594
 91  6 20 17 15 30.0000000  0  6G19G18G16G 6G11G 2
  21132777.508      224860.603 6    175215.30222        18.750           1.813
  23367607.977     1324822.506 6   1032327.00521        13.500           0.656
  23393684.047      -31346.488 6    -24426.58521        13.500           0.625
  22699932.320    -1476071.390 6  -1150184.65321        16.000           0.781
  23037501.391     -382628.525 6   -298151.65421        18.000           1.250
  21616035.969    -1436487.672 7  -1084548.16923        24.500           2.563
 91  6 20 17 15 45.0000000  0  6G19G18G16G 6G11G 2
  21134242.852      232569.911 6    181222.54622        19.500           1.750
  23375381.648     1365655.171 6   1064144.60221        12.750           0.531
  23393892.813      -30247.304 6    -23570.09921        12.750           0.531
  22691480.656    -1520505.806 6  -1184808.84721        16.250           0.906
  23035764.344     -391743.839 6   -305254.50121        18.000           1.188
  21607977.641    -1478824.558 7  -1117537.93523        24.250           2.688
 91  6 20 17 16  0.0000000  0  6G19G18G16G 6G11G 2
  21135726.039      240336.097 6    187274.10722        18.000           1.844
  23383159.641     1406529.432 6   1095994.58821        13.500           0.625
  23394124.250      -29025.510 5    -22618.08421        11.500           0.563
  22683022.414    -1564918.409 6  -1219416.05821        15.750           0.875
  23034061.430     -400708.983 6   -312240.33821        19.000           1.094
  21599935.203    -1521086.283 7  -1150469.12423        24.250           2.656
 91  6 20 17 16 15.0000000  0  6G19G18G16G 6G11G 2
  21137205.797      248153.143 6    193365.30122        19.000           1.781
  23390945.547     1447438.899 6   1127872.03521        14.500           0.625
  23394380.617      -27687.560 5    -21575.55621        11.750           0.563
  22674579.398    -1609315.131 6  -1254010.90021        15.750           0.875
  23032377.484     -409530.008 6   -319113.86821        18.000           1.188
  21591906.961    -1563278.773 7  -1183346.37923        25.000           2.813
 91  6 20 17 16 30.0000000  0  6G19G18G16G 6G11G 2
  21138713.313      256025.030 6    199499.22622        18.250           1.781
  23398730.445     1488387.370 6   1159779.87321        13.000           0.625
  23394656.414      -26229.429 5    -20439.37021        11.750           0.500
  22666128.656    -1653691.886 6  -1288590.17621        15.500           0.875
  23030733.930     -418202.706 6   -325871.81421        19.500           1.156
  21583891.859    -1605397.933 7  -1216166.49023        24.000           2.719
 91  6 20 17 16 45.0000000  0  6G19G18G16G 6G11G 2
  21140215.172      263951.712 6    205675.84922        19.500           1.781
  23406528.594     1529374.593 6   1191717.89121        12.500           0.563
  23394957.430      -24651.377 5    -19209.74921        11.250           0.563
  22657692.367    -1698048.573 6  -1323153.80921        16.750           0.906
  23029112.422     -426727.205 6   -332514.28621        19.500           1.094
  21575888.117    -1647443.700 7  -1248929.40523        23.750           2.781
 91  6 20 17 17  0.0000000  0  6G19G18G16G 6G11G 2
  21141741.602      271956.829 6    211913.58522        18.750           1.750
  23414344.305     1570423.822 6   1223704.23921        12.250           0.563
  23395281.141      -22929.905 5    -17868.36821        11.750           0.563
  22649256.797    -1742361.780 6  -1357683.57921        16.250           0.938
  23027520.117     -435079.921 6   -339022.88821        18.500           1.094
  21567907.789    -1689392.387 7  -1281616.68123        24.250           2.688
 91  6 20 17 17 15.0000000  0  6G19G18G16G 6G11G 2
  21143272.570      280017.487 6    218194.60722        19.500           1.719
  23422163.188     1611512.027 6   1255720.94521        12.500           0.594
  23395631.898      -21088.049 5    -16433.16921        11.750           0.531
  22640829.078    -1786654.233 6  -1392197.15621        16.750           0.969
  23025956.305     -443283.744 6   -345415.47921        18.250           1.031
  21559938.211    -1731266.835 7  -1314246.10723        24.500           2.813
 91  6 20 17 17 30.0000000  0  6G19G18G16G 6G11G 2
  21144817.703      288117.828 6    224506.54622        19.250           1.781
  23429988.688     1652623.232 6   1287755.57721        13.250           0.688
  23396000.695      -19142.295 5    -14917.04721        11.500           0.500
  22632398.641    -1830941.797 6  -1426706.93721        16.250           0.844
  23024422.227     -451354.540 6   -351704.42521        18.250           1.063
  21551983.672    -1773082.886 7  -1346830.02823        25.000           2.875
 91  6 20 17 17 45.0000000  0  6G19G18G16G 6G11G 2
  21146363.391      296275.842 6    230863.42822        19.000           1.750
  23437813.547     1693774.959 6   1319821.77921        12.750           0.688
  23396400.633      -17074.227 6    -13305.57621        12.750           0.344
  22623979.914    -1875206.402 6  -1461198.82621        16.500           0.844
  23022914.594     -459274.200 6   -357875.59021        18.000           1.125
  21544039.242    -1814822.423 7  -1379354.33123        24.500           2.719
 91  6 20 17 18  0.0000000  0  6G19G18G16G 6G11G 2
  21147933.820      304493.745 6    237266.97322        17.500           1.813
  23445653.797     1734969.216 6   1351921.13921        12.500           0.594
  23396818.750      -14881.977 6    -11597.36721        12.750           0.438
  22615562.578    -1919445.725 6  -1495670.99721        16.250           0.719
  23021438.031     -467040.596 6   -363927.33621        18.500           1.094
  21536112.016    -1856483.223 7  -1411817.28123        24.250           2.844
 91  6 20 17 18 15.0000000  0  6G19G18G16G 6G11G 2
  21149501.258      312754.021 6    243703.54322        19.000           1.813
  23453502.961     1776188.419 6   1384039.90321        13.500           0.625
  23397255.227      -12583.446 6     -9806.34821        12.000           0.531
  22607143.563    -1963677.321 6  -1530137.16921        17.000           0.688
  23019985.500     -474671.356 6   -369873.38621        17.750           1.125
  21528197.172    -1898082.718 7  -1444232.46123        24.750           2.813
 91  6 20 17 18 30.0000000  0  6G19G18G16G 6G11G 2
  21151084.242      321070.076 6    250183.57022        18.250           1.781
  23461349.539     1817445.158 6   1416187.95021        13.250           0.594
  23397719.375      -10165.789 6     -7922.49021        13.000           0.406
  22598729.352    -2007887.781 6  -1564586.87121        16.250           0.906
  23018561.305     -482153.135 6   -375703.34321        18.000           1.094
  21520294.672    -1939607.500 7  -1476589.42923        25.000           2.688
 91  6 20 17 18 45.0000000  0  6G19G18G16G 6G11G 2
  21152680.547      329468.661 6    256727.90822        19.000           1.750
  23469215.367     1858766.308 6   1448386.19221        14.000           0.563
  23398209.844       -7602.243 6     -5924.94121        12.500           0.438
  22590330.234    -2052050.424 6  -1598999.29321        16.250           0.781
  23017173.898     -489459.181 6   -381396.37521        17.250           1.031
  21512411.188    -1981030.751 7  -1508867.27523        24.750           2.719
 91  6 20 17 19  0.0000000  0  6G19G18G16G 6G11G 2
  21154294.680      337922.358 6    263315.19222        18.000           1.781
  23477082.461     1900124.204 6   1480613.05121        13.000           0.656
  23398708.063       -4920.316 5     -3835.18821        11.500           0.438
  22581927.813    -2096192.572 6  -1633395.75821        16.500           0.781
  23015812.500     -496616.829 6   -386973.76521        17.250           1.031
  21504543.156    -2022379.651 7  -1541087.17623        25.750           2.656
 91  6 20 17 19 15.0000000  0  6G19G18G16G 6G11G 2
  21155908.680      346432.218 6    269946.24522        19.000           1.844
  23484962.727     1941519.583 6   1512869.11021        13.000           0.688
  23399244.813       -2119.261 6     -1652.55121        12.000           0.438
  22573531.820    -2140313.047 6  -1667775.34121        16.500           0.906
  23014474.781     -503624.942 6   -392434.65021        17.000           1.094
  21496688.391    -2063653.174 7  -1573248.35423        25.250           2.625
 91  6 20 17 19 30.0000000  0  6G19G18G16G 6G11G 2
  21157545.750      355010.904 6    276630.91622        18.250           1.750
  23492848.961     1982965.040 6   1545164.18021        13.750           0.563
  23399802.367         813.712 6       632.86821        12.250           0.563
  22565141.828    -2184399.049 6  -1702128.05121        16.250           0.969
  23013171.305     -510471.000 6   -397769.25121        17.750           1.156
  21488850.586    -2104838.501 7  -1605340.80923        24.750           2.813
 91  6 20 17 19 45.0000000  0  6G19G18G16G 6G11G 2
  21159183.609      363650.136 6    283362.77422        18.000           1.875
  23500743.031     2024451.883 6   1577491.53921        14.000           0.563
  23400378.188        3869.993 6      3014.33321        12.000           0.375
  22556756.594    -2228458.916 6  -1736460.40221        16.250           0.969
  23011902.164     -517163.338 6   -402984.06421        17.750           1.156
  21481031.844    -2145943.935 7  -1637371.01223        26.000           2.781
 91  6 20 17 20  0.0000000  0  6G19G18G16G 6G11G 2
  21160841.477      372335.872 6    290130.86722        17.500           1.906
  23508644.070     2065965.534 6   1609839.76521        13.750           0.594
  23400987.336        7034.917 5      5480.49721        11.500           0.344
  22548371.086    -2272506.688 6  -1770783.33321        16.250           0.969
  23010650.867     -523716.056 6   -408090.07721        17.750           1.156
  21473218.063    -2186983.538 7  -1669349.91423        25.500           2.688
 91  6 20 17 20 15.0000000  0  6G19G18G16G 6G11G 2
  21162495.531      381055.862 6    296925.65322        17.750           1.875
  23516544.508     2107493.663 6   1642199.27821        13.250           0.594
  23401607.797       10296.351 6      8021.83821        12.000           0.469
  22539995.000    -2316554.619 6  -1805106.38421        16.250           0.875
  23009430.320     -530141.358 6   -413096.81121        18.000           1.031
  21465421.367    -2227969.554 7  -1701287.04923        26.000           2.625
 91  6 20 17 20 30.0000000  0  6G19G18G16G 6G11G 2
  21164178.055      389860.072 6    303786.06922        17.500           1.938
  23524463.016     2149086.027 6   1674608.82821        13.000           0.563
  23402259.086       13703.725 5     10676.91021        11.750           0.500
  22531621.508    -2360552.784 6  -1839390.65121        17.250           0.969
  23008239.344     -536389.453 6   -417965.45921        17.750           1.125
  21457638.250    -2268852.000 7  -1733143.49823        25.500           2.813
 91  6 20 17 20 45.0000000  0  6G19G18G16G 6G11G 2
  21165862.344      398738.873 6    310704.60222        18.000           1.844
  23532384.258     2190732.858 6   1707060.84021        12.250           0.438
  23402924.664       17247.790 6     13438.47721        12.000           0.469
  22523252.438    -2404510.588 6  -1873643.47521        16.750           1.000
  23007081.883     -542469.762 6   -422703.36921        17.250           0.906
  21449878.648    -2309640.303 7  -1764926.58123        26.750           2.813
 91  6 20 17 21  0.0000000  0  6G19G18G16G 6G11G 2
  21167560.320      407640.659 6    317641.04822        17.250           1.938
  23540312.430     2232382.164 6   1739514.77521        12.500           0.344
  23403619.469       20876.059 5     16265.66621        11.500           0.344
  22514888.164    -2448479.748 6  -1907905.14421        16.750           1.031
  23005950.773     -548434.201 6   -427350.99421        18.250           1.094
  21442124.281    -2350386.143 7  -1796676.57223        26.500           2.656
 91  6 20 17 21 15.0000000  0  6G19G18G16G 6G11G 2
  21169260.766      416592.929 6    324616.82322        18.250           2.000
  23548244.492     2274060.945 6   1771991.66621        12.500           0.438
  23404330.398       24616.039 6     19179.90721        12.250           0.469
  22506527.219    -2492432.665 6  -1942154.16221        17.000           0.906
  23004839.102     -554255.162 6   -431886.80321        17.250           1.063
  21434384.523    -2391061.797 7  -1828371.87323        26.500           2.750
 91  6 20 17 21 30.0000000  0  6G19G18G16G 6G11G 2
  21170983.578      425618.398 6    331649.65722        16.250           1.938
  23556186.203     2315791.868 6   1804509.18821        13.000           0.438
  23405065.773       28490.497 5     22198.92421        11.000           0.531
  22498170.164    -2536346.444 6  -1976372.68621        17.500           0.969
  23003763.961     -559909.858 6   -436293.06321        17.750           1.188
  21426663.031    -2431644.399 7  -1859994.67123        27.500           2.719
 91  6 20 17 21 45.0000000  0  6G19G18G16G 6G11G 2
  21172699.859      434680.240 6    338710.81622        18.000           1.938
  23564129.289     2357537.856 6   1837038.48121        12.750           0.563
  23405825.117       32462.215 5     25293.73221        11.250           0.469
  22489817.352    -2580257.941 6  -2010589.42021        17.250           0.938
  23002716.086     -565435.112 6   -440598.46021        17.750           1.094
  21418948.414    -2472170.844 7  -1891573.70223        26.750           2.813
 91  6 20 17 22  0.0000000  0  6G19G18G16G 6G11G 2
  21174440.148      443795.654 6    345813.72522        17.250           2.000
  23572078.867     2399315.929 5   1869592.74321        11.750           0.469
  23406596.703       36548.150 5     28477.57621        10.500           0.438
  22481458.969    -2624149.906 6  -2044790.94321        16.750           0.906
  23001695.320     -570813.988 6   -444789.80421        18.750           1.219
  21411252.727    -2512623.687 7  -1923095.38823        27.750           2.781
 91  6 20 17 22 15.0000000  0  6G19G18G16G 6G11G 2
  21176188.719      452995.373 6    352982.32822        18.500           1.875
  23580036.469     2441156.819 5   1902195.95221        11.250           0.531
  23407407.844       40778.818 5     31774.14121        11.500           0.469
  22473113.719    -2667991.635 6  -2078953.31321        17.250           0.969
  23000700.367     -576015.658 6   -448843.06921        17.750           1.125
  21403573.852    -2552972.278 7  -1954535.84323        27.000           2.750
 91  6 20 17 22 30.0000000  0  6G19G18G16G 6G11G 2
  21177956.164      462269.643 6    360209.01522        17.750           1.906
  23588017.258     2483050.210 5   1934840.06921        10.750           0.500
  23408236.320       45144.051 5     35175.59421        10.250           0.406
  22464784.734    -2711792.686 6  -2113083.98421        17.500           1.031
  22999743.273     -581049.824 6   -452765.80721        18.000           1.188
  21395913.727    -2593226.334 7  -1985902.62323        27.250           2.750
 91  6 20 17 22 45.0000000  0  6G19G18G16G 6G11G 2
  21179730.234      471602.907 6    367481.67922        18.250           1.938
  23595992.477     2524980.067 5   1967512.60421        11.000           0.438
  23409093.133       49628.087 5     38669.62021        11.250           0.469
  22456457.891    -2755568.712 6  -2147195.15421        17.250           0.969
  22998811.133     -585932.248 6   -456570.30121        18.250           1.188
  21388264.531    -2633401.331 7  -2017207.80823        26.750           2.750
 91  6 20 17 23  0.0000000  0  6G19G18G16G 6G11G 2
  21181521.461      481005.917 6    374808.68522        17.500           1.969
  23603978.930     2566956.976 5   2000221.80521        11.000           0.500
  23409972.523       54241.835 5     42264.72521        11.250           0.406
  22448126.117    -2799309.024 6  -2181278.51521        16.000           1.000
  22997913.828     -590652.351 6   -460248.30021        18.250           1.219
  21380641.219    -2673486.492 7  -2048442.98423        27.250           2.781
 91  6 20 17 23 15.0000000  0  6G19G18G16G 6G11G 2
  21183320.063      490461.519 6    382176.67722        18.750           1.875
  23611976.117     2608963.691 5   2032954.20721        11.500           0.531
  23410873.734       58967.597 5     45947.10821        11.250           0.375
  22439809.016    -2843030.524 6  -2215347.19921        15.750           1.000
  22997045.867     -595227.098 6   -463813.03921        18.000           1.250
  21373028.539    -2713498.930 7  -2079621.49323        27.750           2.719
 91  6 20 17 23 30.0000000  0  6G19G18G16G 6G11G 2
  21185129.563      499969.228 6    389585.26822        18.000           1.875
  23619970.563     2650999.214 5   2065709.09921        11.500           0.500
  23411787.813       63804.686 5     49716.22721        11.500           0.406
  22431491.563    -2886733.737 6  -2249401.64321        16.500           1.125
  22996202.063     -599657.171 6   -467265.05721        17.750           1.219
  21365428.766    -2753439.147 7  -2110743.72823        27.500           2.781
 91  6 20 17 23 45.0000000  0  6G19G18G16G 6G11G 2
  21186944.906      509518.358 6    397026.13722        18.750           1.875
  23627980.391     2693052.713 6   2098477.95921        12.250           0.594
  23412731.711       68742.120 5     53563.54321        11.000           0.375
  22423178.133    -2930429.407 6  -2283450.20921        16.000           1.000
  22995383.172     -603953.330 6   -470612.72321        18.000           1.125
  21357835.859    -2793317.675 7  -2141817.89023        27.000           2.750
 91  6 20 17 24  0.0000000  0  6G19G18G16G 6G11G 2
  21188768.242      519100.112 6    404492.41822        17.500           1.750
  23635978.102     2735115.419 5   2131253.99021        11.000           0.500
  23413685.016       73771.272 5     57482.34121        10.500           0.500
  22414856.453    -2974126.095 6  -2317499.56421        16.250           1.156
  22994591.227     -608124.253 6   -473862.80221        18.250           1.156
  21350258.523    -2833143.036 7  -2172850.62623        27.250           2.813
 91  6 20 17 24 15.0000000  0  6G19G18G16G 6G11G 2
  21190602.625      528743.843 6    412007.01022        18.750           1.750
  23643989.344     2777216.225 5   2164059.76121        10.500           0.531
  23414668.531       78920.772 5     61494.88321        10.250           0.375
  22406554.773    -3017794.555 6  -2351526.93121        17.250           1.000
  22993824.945     -612140.813 6   -476992.60421        17.750           1.125
  21342696.117    -2872886.194 7  -2203819.30723        27.000           2.844
 91  6 20 17 24 30.0000000  0  6G19G18G16G 6G11G 2
  21192448.969      538444.803 6    419566.19522        18.000           1.750
  23652007.750     2819350.034 5   2196891.16321        11.000           0.500
  23415668.484       84185.799 5     65597.46521        10.500           0.313
  22398245.055    -3061439.459 6  -2385535.92421        17.000           1.125
  22993089.188     -616007.807 6   -480005.85321        17.500           1.094
  21335148.250    -2912551.864 7  -2234727.61023        26.750           2.938
 91  6 20 17 24 45.0000000  0  5G19G18G 6G11G 2
  21194310.297      548215.533 6    427179.73622        19.250           1.750
  23660039.188     2861529.119 5   2229757.95621        11.750           0.563
  22389949.234    -3105048.386 6  -2419516.89621        16.750           1.188
  22992382.672     -619712.850 6   -482892.91321        17.500           1.156
  21327614.445    -2952127.566 7  -2265565.80523        26.250           2.906
 91  6 20 17 25  0.0000000  0  6G19G18G16G 6G11G 2
  21196181.953      558058.403 6    434849.49522        18.250           1.656
  23668072.414     2903755.825 5   2262661.81021        11.500           0.594
  23417744.578          -0.78915                        11.000
  22381657.180    -3148618.670 6  -2453467.76221        16.500           1.063
  22991711.438     -623253.293 6   -485651.69921        17.750           1.063
  21320102.570    -2991610.634 7  -2296331.81623        26.750           2.906
 91  6 20 17 25 15.0000000  0  6G19G18G16G 6G11G 2
  21198067.742      567954.593 6    442560.80422        19.250           1.625
  23676107.344     2946010.634 5   2295587.54721        11.250           0.563
  23418820.180        5632.852 5                        11.000
  22373366.320    -3192169.084 6  -2487403.14221        16.250           1.188
  22991068.641     -626648.206 6   -488297.10421        18.000           1.125
  21312606.727    -3031019.725 7  -2327040.18323        26.750           2.938
 91  6 20 17 25 30.0000000  0  6G19G18G16G 6G11G 2
  21199971.070      577948.046 6    450347.89922        18.750           1.625
  23684166.961     2988337.524 5   2328569.46121        10.750           0.406
  23419924.586       11421.072 5                        10.500
  22365092.781    -3235655.635 6  -2521288.74721        16.000           1.063
  22990455.047     -629853.643 6   -490794.85921        17.750           1.188
  21305130.375    -3070310.822 7  -2357656.61123        27.500           3.063
 91  6 20 17 25 45.0000000  0  6G19G18G16G 6G11G 2
  21201879.852      588001.303 6    458181.60122        19.000           1.719
  23692224.078     3030698.715 5   2361578.08921        11.500           0.406
  23421036.352       17326.219 5        -0.09631        10.000           0.500
  22356829.445    -3279115.696 6  -2555153.73021        16.750           1.125
  22989873.734     -632907.010 6   -493174.12021        17.250           1.250
  21297666.578    -3109521.433 7  -2388210.31323        26.500           3.000
 91  6 20 17 26  0.0000000  0  6G19G18G16G 6G11G 2
  21203809.633      598118.349 6    466064.99922        17.500           1.688
  23700295.172     3073097.808 5   2394616.28221        11.000           0.531
  23422186.078       23352.047 5      4695.32321        10.000           0.469
  22348560.195    -3322545.403 6  -2588995.04521        16.500           1.219
  22989321.836     -635804.615 6   -495431.99521        17.250           1.188
  21290221.805    -3148647.501 7  -2418698.14423        27.250           3.063
 91  6 20 17 26 15.0000000  0  6G19G18G16G 6G11G 2
  21205734.594      608265.563 6    473971.90822        18.750           1.719
  23708363.141     3115501.074 5   2427657.69521         9.750           0.500
  23423355.648       29464.448 5      9458.21421        10.000           0.406
  22340298.039    -3365978.325 6  -2622838.87621        17.000           1.156
  22988795.047     -638580.129 6   -497594.75421        18.000           1.125
  21282785.641    -3187722.866 7  -2449146.46623        27.250           3.125
 91  6 20 17 26 30.0000000  0  6G19G18G16G 6G11G 2
  21207683.844      618467.871 6    481921.75622        18.000           1.781
  23716442.883     3157933.041 5   2460721.44121        11.250           0.469
  23424534.766       35688.206 5     14307.87821        10.250           0.406
  22332034.125    -3409389.429 6  -2656665.69821        17.250           1.219
  22988294.492     -641208.693 6   -499642.99521        17.750           1.219
  21275361.820    -3226722.288 7  -2479535.60723        26.000           3.156
 91  6 20 17 26 45.0000000  0  6G19G18G16G 6G11G 2
  21209630.414      628730.979 6    489918.97022        18.750           1.750
  23724519.820     3200399.170 5   2493811.86821        10.250           0.500
  23425749.445       42028.819 5     19248.57421        11.000           0.531
  22323776.641    -3452773.011 6  -2690471.07521        17.500           1.094
  22987825.680     -643684.709 6   -501572.37821        18.000           1.094
  21267957.023    -3265640.124 7  -2509861.17823        26.500           3.156
 91  6 20 17 27  0.0000000  0  6G19G18G16G 6G11G 2
  21211601.500      639061.536 6    497968.74622        17.500           1.750
  23732609.211     3242905.989 5   2526933.95521        11.000           0.375
  23426975.813       48492.914 5     24285.51221        11.500           0.469
  22315525.531    -3496122.203 6  -2724249.65821        16.500           1.156
  22987382.430     -646001.508 6   -503377.69221        17.250           1.125
  21260568.680    -3304469.475 7  -2540117.80823        27.750           3.156
 91  6 20 17 27 15.0000000  0  6G19G18G16G 6G11G 2
  21213573.203      649457.240 6    506069.29122        18.250           1.625
  23740704.563     3285450.902 5   2560085.77721        10.250           0.375
  23428231.938       55077.954 6     29416.67121        12.000           0.438
  22307289.531    -3539439.406 6  -2758003.31421        17.000           1.156
  22986969.469     -648161.525 6   -505060.83821        17.000           1.156
  21253198.086    -3343212.827 7  -2570307.41723        27.250           3.313
 91  6 20 17 27 30.0000000  0  6G19G18G16G 6G11G 2
  21215565.328      659918.227 6    514220.69722        17.750           1.750
  23748811.234     3328033.749 5   2593267.13921        11.000           0.344
  23429501.227       61783.369 5     34641.63021        11.250           0.469
  22299049.875    -3582724.443 6  -2791731.89821        16.750           1.125
  22986590.078     -650164.609 6   -506621.68921        17.250           1.188
  21245839.680    -3381869.924 7  -2600429.81823        26.750           3.188
 91  6 20 17 27 45.0000000  0  6G19G18G16G 6G11G 2
  21217564.328      670442.645 6    522421.53922        18.000           1.625
  23756915.516     3370652.471 5   2626476.46321        10.500           0.344
  23430801.844       68607.411 5     39959.03621        11.000           0.500
  22290814.313    -3625979.014 6  -2825436.74521        16.500           1.125
  22986242.211     -652012.648 6   -508061.73621        18.500           1.063
  21238496.055    -3420442.510 7  -2630486.36323        26.750           3.219
 91  6 20 17 28  0.0000000  0  6G19G18G16G 6G11G 2
  21219584.898      681047.819 6    530685.29922        17.500           1.844
  23765035.742     3413323.945 5   2659726.86121         9.500           0.344
  23432124.359       75567.131 5     45382.14521        11.000           0.375
  22282596.773    -3669185.709 6  -2859104.28521        17.250           1.063
  22985921.852     -653688.481 6   -509367.59921        18.250           1.156
  21231179.672    -3458913.109 7  -2660463.44323        26.750           3.313
 91  6 20 17 28 15.0000000  0  6G19G18G16G 6G11G 2
  21221619.898      691731.960 6    539010.59922        18.250           1.688
  23773166.031     3456046.173 5   2693016.80421         9.250           0.344
  23433472.508       82660.431 5     50909.35821        10.750           0.563
  22274382.586    -3712346.423 6  -2892735.99921        17.000           1.219
  22985634.063     -655194.008 6   -510540.75421        18.250           1.156
  21223877.313    -3497283.594 7  -2690362.51123        26.750           3.281
 91  6 20 17 28 30.0000000  0  6G19G18G16G 6G11G 2
  21223665.461      702450.321 6    547362.55222        17.000           1.688
  23781299.563     3498774.133 5   2726311.22721        10.000           0.375
  23434844.891       89842.245 5     56505.52921        11.250           0.563
  22266166.648    -3755505.818 6  -2926366.68821        16.500           1.125
  22985367.836     -656574.103 6   -511616.16421        18.000           1.156
  21216586.523    -3535598.874 7  -2720218.55723        26.750           3.125
 91  6 20 17 28 45.0000000  0  6G19G18G16G 6G11G 2
  21225703.094      713210.223 6    555746.88822        17.750           1.844
  23789435.703     3541515.042 5   2759615.73921        10.500           0.281
  23436227.859       97119.716 5     62176.24921        11.250           0.500
  22257961.367    -3798656.536 6  -2959990.61721        17.500           1.188
  22985130.664     -657821.563 6   -512588.22321        18.000           1.063
  21209304.297    -3573851.557 7  -2750025.82723        26.250           3.125
 91  6 20 17 29  0.0000000  0  6G19G18G16G 6G11G 2
  21227775.898      724047.903 6    564191.82022        17.250           1.719
  23797572.680     3584305.034 5   2792958.52621        10.250           0.344
  23437632.891      104528.949 5     67949.63721        10.750           0.594
  22249755.281    -3841762.082 6  -2993579.33921        16.500           1.125
  22984926.711     -658899.941 6   -513428.54621        18.000           0.969
  21202046.977    -3612004.890 7  -2779755.68623        27.000           3.219
 91  6 20 17 29 15.0000000  0  6G19G18G16G 6G11G 2
  21229841.438      734948.767 6    572685.99022        18.000           1.719
  23805723.898     3627128.741 5   2826327.58521        10.500           0.406
  23439070.633      112054.927 5     73814.01321        10.750           0.500
  22241561.227    -3884837.140 6  -3027144.30621        17.750           1.094
  22984751.281     -659824.103 6   -514148.68321        18.000           1.125
  21194802.328    -3650073.661 7  -2809419.64923        26.500           3.250
 91  6 20 17 29 30.0000000  0  6G19G18G16G 6G11G 2
  21231934.469      745925.539 6    581239.31122        17.750           1.875
  23813880.469     3669998.927 5   2859732.83821        10.000           0.313
  23440524.148      119710.012 5     79778.99521        11.000           0.469
  22233369.070    -3927869.022 6  -3060675.63021        16.750           1.188
  22984605.930     -660581.459 6   -514738.84221        17.250           1.031
  21187577.219    -3688045.329 7  -2839007.94323        26.750           3.125
 91  6 20 17 29 45.0000000  0  6G19G18G16G 6G11G 2
  21234029.953      756946.847 6    589827.33622        18.750           1.875
  23822042.945     3712883.998 5   2893149.70421        10.000           0.375
  23441998.641      127462.604 5     85819.94021        10.500           0.469
  22225184.070    -3970889.000 6  -3094197.68121        16.750           1.125
  22984488.563     -661203.524 6   -515223.58821        18.250           1.000
  21180362.438    -3725951.152 7  -2868544.93623        26.250           3.063
 91  6 20 17 30  0.0000000  0  6G19G18G16G 6G11G 2
  21236140.133      768028.452 6    598462.34322        18.500           1.875
  23830211.117     3755799.148 5   2926589.99221        10.250           0.438
  23443492.914      135328.338 5     91949.04521        10.000           0.406
  22217000.344    -4013881.157 6  -3127698.05221        16.750           1.063
  22984407.352     -661674.696 6   -515590.74321        19.000           1.000
  21173164.836    -3763775.280 7  -2898018.26623        25.750           3.125
 91  6 20 17 30 15.0000000  0  6G19G18G16G 6G11G 2
  21238260.742      779188.267 6    607158.29422        18.000           1.844
  23838384.195     3798762.158 5   2960067.57221        10.000           0.469
  23445026.414      143324.678 5     98179.93021        11.250           0.375
  22208828.703    -4056827.603 6  -3161162.79821        17.000           1.219
  22984344.758     -661977.004 6   -515826.32621        18.250           1.094
  21165988.133    -3801499.767 7  -2927413.95723        26.500           3.094
 91  6 20 17 30 30.0000000  0  6G19G18G16G 6G11G 2
  21240407.945      790438.107 6    615924.39122        17.000           1.781
  23846574.969     3841784.780 5   2993591.57521        11.000           0.438
  23446574.344      151463.374 5    104521.73821        11.250           0.500
  22200667.156    -4099716.440 6  -3194582.66121        17.250           1.188
  22984320.469     -662098.630 6                        17.250
  21158830.664    -3839112.685 7  -2956722.71223        26.500           2.906
 91  6 20 17 30 45.0000000  0  6G19G18G16G 6G11G 2
  21242552.891      801745.797 6    624735.56322        17.750           1.875
  23854760.117     3884834.571 5   3027136.78921        10.250           0.344
  23448136.313      159712.118 5    110949.29521        10.750           0.375
  22192512.727    -4142579.769 6  -3227982.64221        17.750           1.125
  22984329.016     -662071.878 6                        17.250
  21151690.141    -3876646.119 7  -2985969.52023        27.000           3.031
 91  6 20 17 31  0.0000000  0  6G19G18G16G 6G11G 2
  21244713.906      813096.387 6    633580.17322        17.250           1.875
  23862961.813     3927896.117 5   3060691.15121        10.000           0.344
  23449732.992      168055.340 5    117450.48321        11.500           0.438
  22184361.297    -4185432.587 6  -3261374.43621        18.000           1.031
  22984352.227     -661911.963 6                        16.500
  21144553.273    -3914115.148 7  -3015166.15923        26.000           3.031
 91  6 20 17 31 15.0000000  0  6G19G18G16G 6G11G 2
  21246886.617      824511.750 6    642475.25222        18.500           1.906
  23871162.664     3970990.991 5   3094271.47421        10.250           0.438
  23451336.750      176514.522 5    124041.99621        11.750           0.469
  22176209.805    -4228252.909 6  -3294740.91821        18.500           1.125
  22984414.852     -661597.019 6                        17.250
  21137442.680    -3951497.797 7  -3044295.48323        25.750           2.906
 91  6 20 17 31 30.0000000  0  6G19G18G16G 6G11G 2
  21249080.625      836002.470 6    651429.05422        17.500           1.938
  23879370.977     4014129.806 5   3127886.05821         9.750           0.438
  23452971.414      185100.446 6    130732.30721        12.000           0.375
  22168067.773    -4271030.067 6  -3328073.74321        18.250           1.125
  22984503.891     -661116.588 6   -515155.96421        16.250           1.000
  21130345.914    -3988783.295 7  -3073349.09623        26.250           2.938
 91  6 20 17 31 44.9990000  0  6G19G18G16G 6G11G 2
  21251273.675      847554.609 6    660430.70922        18.500           1.906
  23887583.651     4057296.003 5   3161521.95221         9.750           0.438
  23454622.956      193798.850 5    137510.24421        11.250           0.406
  22159935.862    -4313774.240 6  -3361380.88021        18.750           0.969
  22984626.097     -660483.832 6   -514662.91621        17.000           1.094
  21123268.214    -4025982.422 7  -3102335.42623        26.500           2.938
 91  6 20 17 31 59.9990000  0  6G19G18G16G 6G11G 2
  21253484.386      859175.432 6    669485.88422        17.000           1.906
  23895813.565     4100500.702 5   3195187.85121        10.250           0.406
  23456303.042      202616.540 5    144381.16021        11.500           0.469
  22151805.534    -4356485.535 6  -3394662.39721        17.750           1.094
  22984778.105     -659693.392 6   -514046.99021        17.500           0.938
  21116206.511    -4063094.420 7  -3131253.85323        27.000           2.906
 91  6 20 17 32 14.9990000  0  6G19G18G16G 6G11G 2
  21255709.206      870863.258 6    678593.26922        18.250           1.875
  23904030.558     4143739.955 5   3228880.69121         9.250           0.406
  23458006.073      211551.416 6    151343.35621        12.000           0.500
  22143685.948    -4399161.893 6  -3427916.69121        18.000           1.063
  22984955.355     -658746.115 6   -513308.87421        16.750           1.031
  21109160.878    -4100117.693 7  -3160103.14723        26.500           2.906
 91  6 20 17 32 29.9990000  0  6G19G18G16G 6G11G 2
  21257946.065      882617.534 6    687752.43522        17.250           1.813
  23912270.808     4187013.180 5   3262599.98921         9.500           0.344
  23459724.714      220603.052 5    158396.54021        11.000           0.406
  22135572.964    -4441803.568 6  -3461143.95921        19.000           1.156
  22985170.245     -657642.567 6   -512448.98721        17.500           1.031
  21102133.331    -4137052.629 7  -3188883.59723        26.750           2.875
 91  6 20 17 32 44.9990000  0  6G19G18G16G 6G11G 2
  21260191.753      894433.862 6    696959.95222        18.000           1.813
  23920513.323     4230315.692 5   3296342.08621         9.500           0.313
  23461466.183      229766.475 5    165536.84121        10.750           0.344
  22127463.753    -4484414.933 6  -3494347.61521        18.500           1.188
  22985405.198     -656387.274 6   -511470.84921        16.500           1.031
  21095121.464    -4173903.635 7  -3217598.65823        27.500           3.000
 91  6 20 17 32 59.9990000  0  6G19G18G16G 6G11G 2
  21262450.128      906300.789 6    706206.88922        16.750           1.844
  23928754.737     4273635.507 5   3330097.72121         9.250           0.344
  23463230.839      239030.115 5    172755.20821        11.000           0.406
  22119360.261    -4527007.646 6  -3527536.72521        18.750           1.219
  22985671.105     -654991.883 6   -510383.54721        16.750           1.063
  21088123.730    -4210682.200 7  -3246257.26323        27.000           2.969
 91  6 20 17 33 14.9990000  0  6G19G18G16G 6G11G 2
  21264715.362      918208.103 6    715485.30122        17.750           1.938
  23936998.964     4316962.340 5   3363858.77721         9.500           0.344
  23465015.519      248383.451 5    180043.50621        10.250           0.438
  22111256.487    -4569591.754 6  -3560719.13821        18.500           1.219
  22985962.480     -653466.671 6   -509195.08621        16.750           1.031
  21081133.745    -4247398.455 7  -3274867.31823        27.000           2.938
 91  6 20 17 33 29.9990000  0  6G19G18G16G 6G11G 2
  21266996.409      930180.923 6    724814.75622        16.500           1.844
  23945254.776     4360320.973 5   3397644.63521        10.000           0.375
  23466818.683      257851.500 5    187421.15221        10.750           0.281
  22103161.909    -4612142.055 6  -3593875.19921        19.500           1.250
  22986280.901     -651786.681 6   -507886.01021        16.500           1.031
  21074167.120    -4284027.372 7  -3303409.31723        27.500           3.125
 91  6 20 17 33 44.9990000  0  6G19G18G16G 6G11G 2
  21269285.792      942238.481 6    734210.23822        17.250           1.875
  23953512.308     4403730.360 5   3431470.03921        10.000           0.406
  23468641.433      267452.983 5    194902.82221        10.750           0.375
  22095072.417    -4654639.267 6  -3626989.90821        18.250           1.375
  22986637.214     -649932.764 6   -506441.41521        17.750           1.031
  21067215.917    -4320549.471 7  -3331868.08923        27.250           3.031
 91  6 20 17 33 59.9990000  0  6G19G18G16G 6G11G 2
  21271598.745      954354.648 6    743651.39122        16.250           1.813
  23961770.183     4447164.184 5   3465314.46621         9.500           0.375
  23470494.323      277161.516 5    202467.86121        10.500           0.406
  22086989.347    -4697109.550 6  -3660083.62321        18.000           1.313
  22987015.901     -647931.239 6   -504881.80421        17.500           1.063
  21060282.847    -4356990.933 7  -3360264.02123        27.750           3.063
 91  6 20 17 34 14.9990000  0  6G19G18G16G 6G11G 2
  21273913.081      966537.363 6    753144.40622        17.500           1.938
  23970044.675     4490629.887 5   3499183.75121         9.750           0.344
  23472357.136      286984.694 5    210122.25721        11.250           0.500
  22078913.315    -4739544.842 6  -3693150.07521        18.250           1.344
  22987427.550     -645774.321 6   -503201.11121        17.500           1.031
  21053362.378    -4393343.842 7  -3388590.94823        26.750           3.094
 91  6 20 17 34 29.9990000  0  6G19G18G16G 6G11G 2
  21276240.706      978759.403 6    762668.05122        16.750           1.938
  23978316.987     4534099.993 5   3533056.45021        10.750           0.375
  23474241.401      296894.971 5    217844.52321         9.750           0.313
  22070837.706    -4781972.301 6  -3726210.42021        18.500           1.281
  22987860.761     -643489.245 6   -501420.53621        17.250           1.125
  21046457.011    -4429635.398 7  -3416870.07123        27.250           3.063
 91  6 20 17 34 44.9990000  0  6G19G18G16G 6G11G 2
  21278576.894      991051.126 6    772246.00522        17.750           1.906
  23986600.870     4577604.934 5   3566956.32421        10.500           0.406
  23476155.409      306922.747 5    225658.30121        11.250           0.375
  22062771.034    -4824361.260 6  -3759240.77021        18.000           1.281
  22988324.628     -641045.649 6   -499516.44921        17.000           1.063
  21039566.878    -4465834.918 7  -3445077.48123        27.000           3.031
 91  6 20 17 34 59.9990000  0  6G19G18G16G 6G11G 2
  21280938.620     1003441.795 6    781901.05822        16.750           1.938
  23994882.214     4621173.541 5   3600905.79721         9.500           0.313
  23478083.058      317096.766 5    233586.10821         9.250           0.375
  22054724.237    -4866682.716 7  -3792218.51421        20.000           1.344
  22988826.167     -638414.577 6   -497466.26921        18.000           1.063
  21032701.730    -4501913.244 7  -3473190.45823        26.750           3.156
 91  6 20 17 35 14.9990000  0  6G19G18G16G 6G11G 2
  21283304.940     1015908.594 6    791615.43322        17.750           1.906
  24003185.511     4664782.771 5   3634886.88421         9.000           0.406
  23480049.620      327394.099 5    241609.96421         9.500           0.344
  22046674.323    -4908959.375 6  -3825161.34921        18.750           1.313
  22989360.050     -635619.003 6   -495287.91321        17.750           1.063
  21025854.394    -4537893.323 7  -3501226.86023        27.000           3.188
 91  6 20 17 35 29.9990000  0  6G19G18G16G 6G11G 2
  21285691.151     1028405.678 6    801353.40122        17.000           1.844
  24011486.214     4708386.314 5   3668863.56521         9.250           0.313
  23482021.019      337768.415 5    249693.77721        10.250           0.313
  22038632.448    -4951236.785 6  -3858104.77821        18.500           1.406
  22989913.683     -632704.881 6   -493017.18321        17.750           0.969
  21019019.480    -4573820.748 7  -3529222.25323        27.250           3.063
 91  6 20 17 35 44.9990000  0  6G19G18G16G 6G11G 2
  21288075.065     1040968.866 6    811142.89122        17.500           1.969
  24019783.878     4752020.038 5   3702863.78221         8.250           0.406
  23484013.855      348255.436 5    257865.48121         8.750           0.406
  22030596.987    -4993479.206 6  -3891020.94921        19.250           1.344
  22990499.456     -629636.353 6   -490626.13021        18.250           1.125
  21012195.690    -4609659.651 7  -3557148.66723        27.250           3.156
 91  6 20 17 35 59.9990000  0  6G19G18G16G 6G11G 2
  21290484.042     1053614.528 6    820996.63022        17.000           1.875
  24028090.925     4795699.833 5   3736899.84221         7.500           0.375
  23486047.214      358871.372 5    266137.59521        10.500           0.313
  22022564.269    -5035670.119 6  -3923896.96821        18.500           1.219
  22991115.042     -626397.137 6   -488102.08321        18.000           1.031
  21005394.612    -4645393.749 7  -3584993.41323        27.250           3.063
 91  6 20 17 36 14.9990000  0  6G19G18G16G 6G11G 2
  21292901.417     1066321.944 6    830898.50322        17.250           1.875
  24036412.073     4839404.532 5   3770955.36621         7.750           0.438
  23488075.995      369594.752 5    274493.44021        10.000           0.344
  22014540.300    -5077830.401 6  -3956749.12421        19.500           1.313
  22991762.409     -623008.395 6   -485461.51021        18.250           1.094
  20998613.597    -4681044.062 7  -3612772.85923        27.250           3.000
 91  6 20 17 36 29.9990000  0  6G19G18G16G 6G11G 2
  21295328.503     1079076.462 6    840837.07222        16.000           1.875
  24044731.706     4883119.366 5   3805018.73321         7.750           0.313
  23490135.355      380410.747 5    282921.44021         9.750           0.375
  22006526.878    -5119974.684 7  -3989588.81722        20.000           1.500
  22992429.886     -619484.912 6   -482715.95421        17.250           1.031
  20991844.105    -4716625.129 8  -3640498.36123        28.000           3.000
 91  6 20 17 36 44.9990000  0  6G19G18G16G 6G11G 2
  21297760.972     1091883.480 6    850816.55222        16.750           1.906
  24053058.519     4926849.353 5   3839093.96221         8.000           0.281
  23492214.987      391324.562 5    291425.65421         9.500           0.344
  21998505.425    -5162097.445 6  -4022411.73821        18.500           1.313
  22993126.823     -615821.363 6   -479861.25821        17.500           0.969
  20985087.315    -4752131.336 8  -3668165.50723        28.750           3.094
 91  6 20 17 36 59.9990000  0  6G19G18G16G 6G11G 2
  21300219.745     1104760.035 6    860850.21722        17.250           1.938
  24061384.339     4970611.376 5   3873194.15121         7.500           0.281
  23494313.784      402352.892 5    300019.09721         9.750           0.344
  21990495.167    -5204181.477 6  -4055204.49021        18.500           1.375
  22993853.769     -612000.874 6   -476884.26021        17.500           0.969
  20978348.925    -4787545.615 8  -3695761.04923        28.000           2.906
 91  6 20 17 37 14.9990000  0  6G19G18G16G 6G11G 2
  21302673.784     1117673.318 6    870912.51022        17.500           1.844
  24069714.448     5014372.725 4   3907293.78421         7.250           0.188
  23496429.222      413462.888 5    308676.22621         9.750           0.406
  21982486.573    -5246259.396 6  -4087992.46121        18.500           1.281
  22994601.222     -608056.226 6   -473810.51521        17.000           1.125
  20971621.933    -4822900.692 8  -3723310.44623        28.250           3.063
 91  6 20 17 37 29.9990000  0  6G19G18G16G 6G11G 2
  21305144.753     1130641.589 6    881017.64022        17.000           1.844
  24078033.315     5058151.022 4   3941406.64321         6.750           0.344
  23498564.440      424672.487 5    317410.91621         8.750           0.250
  21974485.159    -5288313.121 6  -4120761.58421        18.750           1.313
  22995380.331     -603969.257 6   -470625.86821        17.500           1.094
  20964906.870    -4858178.271 8  -3750799.45923        28.500           2.969
 91  6 20 17 37 44.9990000  0  6G19G18G16G 6G11G 2
  21307621.886     1143681.232 6    891178.38722        17.000           1.844
  24086373.839     5101962.254 3   3975545.18121         5.750           0.313
  23500716.995      435997.541 5    326235.60521         9.250           0.250
  21966491.784    -5330325.974 6  -4153498.86921        19.750           1.219
  22996188.550     -599723.706 6   -467317.66421        17.250           1.188
  20958212.222    -4893361.901 8  -3778215.26423        28.250           2.875
 91  6 20 17 37 59.9990000  0  6G19G18G16G 6G11G 2
  21310125.753     1156821.741 6    901417.73422        16.500           1.844
  24094720.972     5145836.072 3   4009732.40521         5.250           0.375
  23502892.065      447467.423 5    335173.11721         9.500           0.375
  21958513.378    -5372268.388 6  -4186181.26121        19.250           1.344
  22997031.198     -595290.307 6   -463863.08321        17.250           1.000
  20951541.581    -4928422.106 8  -3805534.89723        28.500           2.969
 91  6 20 17 38 14.9990000  0  6G19G18G16G 6G11G 2
  21312635.558     1170014.199 6    911697.54822        18.000           1.813
  24103075.933     5189723.141 3   4043929.98621         5.750           0.344
  23505096.839      459032.960 5    344185.20521         9.500           0.250
  21950531.597    -5414189.239 6  -4218846.85021        19.500           1.219
  22997900.683     -590718.073 6   -460300.30921        16.750           1.031
  20944882.956    -4963407.874 8  -3832796.52723        28.250           2.875
 91  6 20 17 38 29.9990000  0  6G19G18G16G 6G11G 2
  21315162.105     1183279.328 6    922033.99822        16.250           1.875
  24111436.597     5233643.894 4   4078153.80521         7.250           0.219
  23507325.339      470714.616 5    353287.73521         9.500           0.344
  21942565.253    -5456067.756 6  -4251479.44821        19.750           1.188
  22998803.651     -585986.487 6   -456613.37221        17.500           1.063
  20938239.714    -4998298.238 7  -3859983.81823        27.750           2.875
 91  6 20 17 38 44.9990000  0  6G19G18G16G 6G11G 2
  21317696.261     1196632.008 6    932438.66422        17.250           1.781
  24119811.097     5277612.842 5   4112415.24621         8.250           0.313
  23509565.526      482526.946 5    362492.09921         9.250           0.375
  21934605.550    -5497888.959 6  -4284067.38221        19.000           1.281
  22999738.698     -581080.794 6   -452790.76921        17.250           1.031
  20931625.558    -5033078.426 8  -3887085.25523        28.750           2.938
 91  6 20 17 38 59.9990000  0  6G19G18G16G 6G11G 2
  21320259.401     1210071.086 6    942910.65222        16.500           1.813
  24128179.714     5321628.993 5   4146713.43721         8.000           0.250
  23511844.269      494468.512 5    371797.17521         9.500           0.281
  21926656.042    -5539653.941 6  -4316611.51621        19.500           1.344
  23000702.815     -576002.226 6   -448833.45221        17.000           0.969
  20925026.425    -5067749.524 8  -3914101.69323        28.000           2.938
 91  6 20 17 39 14.9990000  0  6G19G18G16G 6G11G 2
  21322831.151     1223603.105 6    953455.06822        17.750           1.813
  24136561.050     5365697.939 5   4181052.75221         8.500           0.313
  23514145.667      506545.766 5    381207.97321        10.000           0.375
  21918722.651    -5581356.173 6  -4349106.75021        18.750           1.375
  23001706.448     -570744.493 6   -444736.53321        17.500           1.094
  20918448.808    -5102305.011 7  -3941028.03023        27.750           2.938
 91  6 20 17 39 29.9990000  0  6G19G18G16G 6G11G 2
  21325416.815     1237173.709 6    964029.55522        16.000           1.625
  24144956.386     5409765.383 5   4215390.91921         9.000           0.344
  23516455.503      518703.629 5    390681.58721         9.500           0.313
  21910787.940    -5623049.914 6  -4381595.36521        19.500           1.406
  23002729.136     -565362.187 6   -440542.53221        17.250           1.094
  20911890.081    -5136799.293 8  -3967906.69223        28.500           3.000
 91  6 20 17 39 44.9990000  0  6G19G18G16G 6G11G 2
  21328005.589     1250792.700 6    974641.73922        17.750           1.750
  24153338.667     5453840.842 5   4249735.28521         8.250           0.219
  23518787.417      530951.635 5    400225.45221         9.750           0.313
  21902856.081    -5664725.378 6  -4414069.76121        19.000           1.406
  23003778.183     -559845.636 6   -436243.93621        17.500           1.094
  20905336.980    -5171222.456 8  -3994729.92423        28.000           2.813
 91  6 20 17 39 59.9990000  0  6G19G18G16G 6G11G 2
  21330607.433     1264447.542 6    985281.86422        17.250           1.719
  24161721.159     5497911.440 5   4284075.93821         7.750           0.156
  23521137.698      543276.824 5    409829.41921        10.750           0.344
  21894929.480    -5706395.011 6  -4446539.59321        19.250           1.406
  23004851.394     -554207.590 6   -431850.66321        17.250           1.094
  20898796.753    -5205587.211 8  -4021507.64823        28.000           3.000
 91  6 20 17 40 14.9990000  0  6G19G18G16G 6G11G 2
  21333216.214     1278163.936 6    995969.94922        18.000           1.844
  24170115.456     5542002.716 4   4318432.69221         7.250           0.188
  23523504.917      555704.760 5    419513.49121         9.750           0.344
  21887007.573    -5748033.014 7  -4478984.77521        20.000           1.375
  23005951.206     -548422.440 6   -427342.77421        17.000           0.969
  20892273.214    -5239867.695 7  -4048219.70823        27.750           2.906
 91  6 20 17 40 29.9990000  0  6G19G18G16G 6G11G 2
  21335841.823     1291953.360 6   1006714.93822        17.250           1.781
  24178510.261     5586125.917 4   4352814.28621         7.250           0.250
  23525879.190      568246.657 5    429286.31721         8.750           0.250
  21879088.237    -5789627.728 6  -4511396.24622        19.250           1.500
  23007081.823     -542478.781 6   -422711.36221        18.000           1.000
  20885769.495    -5274052.432 8  -4074857.15723        28.000           2.938
 91  6 20 17 40 44.9990000  0  6G19G18G16G 6G11G 2
  21338474.440     1305801.611 6   1017505.76622        17.750           1.750
  24186915.956     5630266.713 4   4387209.55921         7.250           0.250
  23528291.589      580888.277 5    439136.87521         9.750           0.344
  21871177.237    -5831193.291 6  -4543784.97321        19.750           1.406
  23008243.253     -536390.877 6   -417967.54221        17.500           1.031
  20879281.792    -5308155.454 8                        28.250
 91  6 20 17 40 59.9990000  0  5G19G18G16G 6G11
  21341126.698     1319718.242 6   1028349.88022        16.250           1.688
  24195320.589     5674434.415 5   4421625.84421         7.500           0.156
  23530710.605      593638.490 5    449072.06921        10.000           0.281
  21863278.519    -5872719.869 6  -4576143.33621        19.500           1.344
  23009429.128     -530149.283 6   -413103.97321        17.250           1.000
 91  6 20 17 41 14.9990000  0  6G19G18G16G 6G11G 2
  21343777.987     1333681.679 6   1039230.46122        18.000           1.750
  24203717.065     5718607.014 5   4456045.94021         8.000           0.188
  23533159.542      606475.622 5    459074.99421         9.750           0.344
  21855373.620    -5914229.081 6  -4608488.16421        19.000           1.406
  23010641.245     -523775.850 6   -408137.67621        16.500           1.000
  20866346.667      -33941.765 8                        28.250
 91  6 20 17 41 29.9990000  0  6G19G18G16G 6G11G 2
  21346457.831     1347731.383 6   1050178.26422        16.500           1.656
  24212136.394     5762823.504 5   4490500.23321         9.250           0.313
  23535624.386      619438.936 5    469176.21621        10.250           0.344
  21847489.089    -5955681.499 6  -4640788.74721        19.500           1.281
  23011885.917     -517231.349 6   -403038.07621        17.500           0.938
  20859912.261      -67774.432 8                        28.000
 91  6 20 17 41 44.9990000  0  6G19G18G16G 6G11G 2
  21349138.144     1361855.009 6   1061183.66422        17.750           1.750
  24220563.675     5807071.552 5   4524979.09721         9.750           0.250
  23538109.167      632515.705 5    479365.83721        10.500           0.344
  21839610.456    -5997089.354 6  -4673054.60621        19.250           1.281
  23013163.144     -510528.261 6   -397814.89321        17.000           1.000
  20853491.636     -101510.305 8        -0.36933        28.250           2.844
 91  6 20 17 41 59.9990000  0  6G19G18G16G 6G11G 2
  21351844.644     1376054.447 6   1072248.14122        17.250           1.656
  24228980.112     5851352.859 5   4559483.85921         8.500           0.281
  23540619.331      645707.436 5    489645.06421        10.000           0.344
  21831740.206    -6038450.714 6  -4705284.22721        19.750           1.438
  23014469.456     -503664.881 6   -392466.83021        17.000           1.031
  20847092.823     -135147.328 8    -26211.02923        28.500           3.063
 91  6 20 17 42 14.9990000  0  6G19G18G16G 6G11G 2
  21354551.480     1390299.436 6   1083348.10822        17.500           1.594
  24237408.339     5895636.566 5   4593990.54621         7.750           0.250
  23543148.901      658983.604 5    499990.06521        10.250           0.281
  21823873.636    -6079795.782 7  -4737501.16521        20.000           1.375
  23015799.878     -496671.691 6   -387017.60321        17.000           1.000
  20840701.550     -168715.896 8    -52368.34823        28.250           3.063
 91  6 20 17 42 29.9990000  0  5G19G16G 6G11G 2
  21357270.058     1404575.341 6   1094472.17022        17.500           1.563
  23545689.050      672329.229 5    510389.19621        10.500           0.406
  21816006.355    -6121139.102 6  -4769716.72421        19.500           1.313
  23017154.784     -489563.301 6   -381478.61021        18.000           1.063
  20834323.644     -202230.434 7    -78483.56323        27.750           2.906
 91  6 20 17 42 44.9990000  0  4G19G16G 6G11
  21359992.714     1418895.122 6   1105630.41921        17.500           1.469
  23548242.847      685757.040 5    520852.38521        10.000           0.406
  21808135.823    -6162467.523 6  -4801920.68421        19.250           1.375
  23018530.917     -482326.930 6   -375839.89521        17.500           1.031
 91  6 20 17 42 59.9990000  0  5G19G16G 6G11G 2
  21362736.050     1433265.901 6   1116828.41322        16.250           1.531
  23550815.753      699273.910 5    531384.95321        10.000           0.250
  21800282.940    -6203773.796 6  -4834107.38221        19.750           1.469
  23019932.573     -474955.617 6   -370096.02621        17.250           0.906
  20821609.737          -0.72418                        28.500
 91  6 20 17 43 14.9990000  0  5G19G16G 6G11G 2
  21365477.097     1447707.126 6   1128081.29721        17.250           1.344
  23553408.558      712898.779 5    542001.69221        10.000           0.281
  21792429.589    -6245038.436 6  -4866261.64122        19.750           1.531
  23021366.948     -467430.088 6   -364231.98521        17.500           0.906
  20815277.347      -33280.843 8                        28.500
 91  6 20 17 43 29.9990000  0  5G19G16G 6G11G 2
  21368238.112     1462206.866 6   1139379.76322        16.750           1.500
  23556013.901      726619.401 5    552693.03521         9.250           0.344
  21784581.675    -6286273.322 7  -4898392.71621        20.250           1.375
  23022823.815     -459762.541 6   -358257.28821        17.000           0.844
  20808956.315      -66479.327 7        -0.09833        27.750           2.969
 91  6 20 17 43 44.9990000  0  5G19G16G 6G11G 2
  21371010.245     1476770.510 6   1150728.04422        17.500           1.531
  23558653.503      740440.949 5    563463.02821         9.500           0.313
  21776739.605    -6327473.044 6  -4930496.38821        19.250           1.469
  23024310.331     -451947.790 6   -352167.88321        18.250           0.938
  20802656.167      -99590.693 7    -25801.16123        27.000           3.031
 91  6 20 17 43 59.9990000  0  5G19G16G 6G11G 2
  21373797.011     1491407.216 6   1162133.25121        16.000           1.469
  23561295.222      754372.387 5    574318.65421         8.750           0.281
  21768910.355    -6368628.351 6  -4962565.46421        19.750           1.438
  23025829.378     -443976.811 6   -345956.75921        18.250           1.000
  20796376.284     -132606.031 7    -51527.39223        27.750           3.063
 91  6 20 17 44 14.9990000  0  5G19G16G 6G11G 2
  21376589.769     1506103.016 6   1173584.50722        16.750           1.531
  23563966.667      768399.322 5    585248.67321         9.500           0.281
  21761086.167    -6409753.103 7  -4994610.72422        20.000           1.594
  23027371.878     -435863.800 6   -339634.94521        17.250           1.063
  20790107.073     -165539.238 7    -77189.62823        27.500           3.063
 91  6 20 17 44 29.9990000  0  5G19G16G 6G11G 2
  21379399.526     1520850.546 6   1185076.07221        16.250           1.438
  23566655.972      782514.163 5    596247.21221        10.000           0.375
  21753262.105    -6450854.528 6  -5026637.79122        19.500           1.500
  23028939.448     -427616.279 6   -333208.31421        17.000           1.000
  20783853.605     -198397.505 7   -102793.46523        27.750           3.219
 91  6 20 17 44 44.9990000  0  5G19G16G 6G11G 2
  21382222.698     1535689.509 6   1196638.88422        17.250           1.500
  23569363.253      796756.149 5    607344.80221         9.000           0.375
  21745453.222    -6491892.926 7  -5058615.77022        20.000           1.531
  23030542.550     -419194.621 6   -326646.00021        17.250           1.000
  20777624.456     -231141.055 7   -128307.91723        27.750           3.125
 91  6 20 17 44 59.9990000  0  4G19G16G 6G11
  21385056.308     1550590.100 6   1208249.70822        16.500           1.594
  23572098.175      811095.381 5    618518.15821         9.750           0.281
  21737653.636    -6532897.940 7  -5090567.74021        20.250           1.469
  23032173.550     -410628.835 6   -319971.37721        18.500           1.000
 91  6 20 17 45 14.9990000  0  5G19G16G 6G11G 2
  21387900.940     1565545.538 6   1219903.27622        17.500           1.531
  23574837.144      825524.565 5    629761.62521         8.750           0.281
  21729847.722    -6573876.297 7  -5122498.91122        20.000           1.500
  23033832.480     -401925.916 6   -313189.90221        17.000           0.906
  20765208.761          -0.52918                        28.000
 91  6 20 17 45 29.9990000  0  5G19G16G 6G11G 2
  21390760.558     1580565.220 6   1231606.90421        16.500           1.469
  23577605.526      840052.803 5    641082.30121         9.000           0.281
  21722059.237    -6614818.479 6  -5154401.91122        19.000           1.531
  23035515.972     -393076.634 6   -306294.37421        17.750           1.000
  20759024.581      -32493.733 8                        28.500
 91  6 20 17 45 44.9990000  0  5G19G16G 6G11G 2
  21393628.659     1595645.388 6   1243357.66222        17.000           1.594
  23580388.776      854676.325 5    652477.16421         8.750           0.375
  21714276.558    -6655728.099 7  -5186279.50422        20.250           1.531
  23037225.823     -384084.872 6   -299287.81721        17.500           1.063
  20752858.901      -64903.176 8        -0.35133        28.500           3.188
 91  6 20 17 45 59.9990000  0  4G19G16G 6G11
  21396510.425     1610770.522 6   1255143.46522        16.500           1.563
  23583179.253      869379.077 5    663933.80921         8.250           0.344
  21706493.909    -6696620.551 6  -5218143.74722        19.750           1.625
  23038957.909     -374966.343 6   -292182.49421        16.750           1.000
 91  6 20 17 46 14.9990000  0  5G19G16G 6G11G 2
  21399398.003     1625958.958 6   1266978.58922        16.750           1.563
  23586004.073      884178.957 5    675466.14821         9.000           0.375
  21698719.511    -6737477.465 7  -5249980.28922        20.000           1.563
  23040723.097     -365702.957 6   -284964.28321        17.000           1.000
  20740564.339          -0.65518                        28.250
 91  6 20 17 46 29.9990000  0  5G19G16G 6G11G 2
  21402302.605     1641204.085 6   1278857.89122        15.500           1.563
  23588836.690      899068.983 5    687068.71421         9.000           0.406
  21690950.901    -6778305.497 7  -5281794.33122        20.500           1.531
  23042510.933     -356301.522 6   -277638.50221        17.000           0.906
  20734442.394      -32175.090 7                        27.500
 91  6 20 17 46 44.9990000  0  5G19G16G 6G11G 2
  21405210.511     1656507.234 6   1290782.39722        16.500           1.594
  23591685.120      914050.461 5    698742.52221         8.250           0.344
  21683186.667    -6819103.181 6  -5313584.72821        19.000           1.406
  23044329.722     -346761.001 6   -270204.34721        17.000           0.906
  20728338.440      -64268.249 8        -0.12633        29.000           3.344
 91  6 20 17 46 59.9990000  0  5G19G16G 6G11G 2
  21408135.339     1671869.695 6   1302753.12622        15.500           1.531
  23594556.276      929124.397 5    710488.39421         9.750           0.313
  21675431.862    -6859869.187 7  -5345350.43921        20.500           1.438
  23046169.776     -337080.251 6   -262660.92421        17.000           0.906
  20722245.261      -96278.807 8    -24943.42023        28.250           3.188
 91  6 20 17 47 14.9990000  0  5G19G16G 6G11G 2
  21411065.855     1687286.013 6   1314765.83021        16.500           1.469
  23597444.065      944284.879 5    722301.71521         9.500           0.281
  21667675.175    -6900608.617 6  -5377095.44121        19.250           1.406
  23048036.159     -327264.688 6   -255012.44621        16.250           0.906
  20716168.987     -128211.999 8    -49826.42423        28.500           3.156
 91  6 20 17 47 29.9990000  0  5G19G16G 6G11G 2
  21414016.855     1702773.777 6   1326834.18622        16.000           1.563
  23600342.730      959549.349 5    734196.01921         8.500           0.313
  21659936.370    -6941303.887 7  -5408806.02822        20.500           1.500
  23049934.214     -317297.013 6   -247245.42921        17.250           0.906
  20710108.956     -160050.331 8    -74635.51823        28.000           3.125
 91  6 20 17 47 44.9990000  0  5G19G16G 6G11G 2
  21416974.105     1718313.429 6   1338942.98222        16.500           1.531
  23603265.620      974897.761 5    746155.79421         8.750           0.281
  21652195.370    -6981974.565 7  -5440497.45822        20.000           1.594
  23051856.972     -307196.985 6   -239375.29421        17.000           0.938
  20704064.417     -191813.320 8    -99385.88923        28.000           3.156
 91  6 20 17 47 59.9990000  0  5G19G16G 6G11G 2
  21419943.612     1733912.035 6   1351097.71422        16.000           1.625
  23606205.440      990336.511 5    758185.94021         9.000           0.281
  21644458.003    -7022613.490 7  -5472164.13322        20.250           1.563
  23053804.933     -296957.777 6   -231396.70721        16.250           0.938
  20698035.769     -223494.034 8   -124072.15723        28.500           3.250
 91  6 20 17 48 14.9990000  0  5G19G16G 6G11G 2
  21422913.440     1749558.247 6   1363289.54521        16.750           1.469
  23609156.378     1005854.051 5    770277.48321         8.750           0.313
  21636729.878    -7063232.073 7  -5503814.96922        21.000           1.531
  23055778.323     -286591.029 6   -223318.73521        17.000           0.969
  20692022.839     -255103.954 7   -148703.26623        27.750           3.156
 91  6 20 17 48 29.9990000  0  5G19G16G 6G11G 2
  21425907.480     1765270.918 6                        15.750
  23612124.862     1021469.265 5                         8.500
  21629008.292    -7103811.105 7  -5535434.99022        21.000           1.500
  23057779.011     -276077.979 6   -215126.77421        16.750           0.938
  20686025.480     -286624.011 8   -173264.34623        28.000           3.250
 91  6 20 17 48 44.9990000  0  5G19G16G 6G11G 2
  21428912.190     1781058.653 6                        17.250
  23615125.073     1037190.592 5                         9.000
  21621294.597    -7144341.816 7  -5567017.35622        20.750           1.625
  23059805.784     -265410.185 6   -206814.21821        16.000           0.875
  20680045.667     -318045.421 8   -197748.55823        28.000           3.094
 91  6 20 17 48 59.9990000  0  5G19G16G 6G11G 2
  21431930.847     1796902.577 6                        16.250
  23618129.386     1052998.445 5                         8.750
  21613589.378    -7184843.173 7  -5598576.84622        21.250           1.594
  23061863.589     -254606.915 6   -198396.10021        16.000           0.906
  20674080.144     -349387.211 8   -222170.73323        28.250           3.156
 91  6 20 17 49 14.9990000  0  5G19G16G 6G11G 2
  21434953.245     1812802.294 6                        16.750
  23621145.675     1068892.151 5                         8.250
  21605884.823    -7225315.544 7  -5630113.75222        20.750           1.656
  23063939.995     -243668.705 6   -189872.83321        15.500           0.938
  20668132.112     -380649.757 8   -246531.15323        28.750           3.156
 91  6 20 17 49 29.9990000  0  5G19G16G 6G11G 2
  21437987.597     1828751.806 6                        16.250
  23624189.308     1084865.064 5                         9.250
  21598185.144    -7265764.841 6  -5661632.67622        19.750           1.719
  23066049.722     -232601.753 6   -181249.26121        16.000           1.031
  20662197.253     -411839.125 8   -270834.54823        28.750           3.125
 91  6 20 17 49 44.9990000  0  5G19G16G 6G11G 2
  21441030.894     1844749.190 6                        17.250
  23627243.230     1100915.436 5                         8.250
  21590496.308    -7306192.631 7  -5693134.85022        20.500           1.688
  23068178.862     -221407.972 6   -172526.85621        15.500           0.906
  20656273.901     -442956.979 8   -295082.23323        28.750           3.156
 91  6 20 17 49 59.9990000  0  5G19G16G 6G11G 2
  21444088.847     1860805.455 6   1449975.50921        16.500           1.469
  23630316.878     1117054.064 5    856926.41521         9.000           0.344
  21582811.073    -7346587.843 7  -5724611.63922        20.500           1.719
  23070334.761     -210076.556 6   -163697.19521        15.500           0.813
  20650370.823     -473992.252 8   -319265.55323        28.500           3.094
 91  6 20 17 50 14.9990000  0  5G19G16G 6G11G 2
  21447157.972     1876932.574 6   1462542.06821        17.500           1.438
  23633413.753     1133292.498 5    869579.70521         9.500           0.406
  21575132.472    -7386938.482 7  -5756053.68322        20.750           1.719
  23072522.550     -198595.979 6   -154751.31521        15.000           1.031
  20644479.300     -504933.211 7   -343375.39323        27.500           3.125
 91  6 20 17 50 29.9990000  0  5G19G16G 6G11G 2
  21450239.167     1893110.819 6   1475148.47521        17.000           1.469
  23636509.925     1149610.734 5    882295.12621         8.000           0.156
  21567455.761    -7427264.182 7  -5787476.31122        21.250           1.781
  23074733.073     -186986.037 6   -145704.63021        16.000           0.938
  20638606.245     -535799.624 7   -367427.14223        27.500           3.125
 91  6 20 17 50 44.9990000  0  5G19G16G 6G11G 2
  21453318.448     1909332.038 6   1487788.36722        16.750           1.500
  23639630.448     1165999.946 5    895065.91721         8.500           0.156
  21559789.675    -7467573.000 7  -5818885.76922        21.500           1.688
  23076966.761     -175255.237 6   -136563.76221        16.250           0.906
  20632745.987     -566599.683 8   -391427.17723        28.000           3.094
 91  6 20 17 50 59.9990000  0  5G19G16G 6G11G 2
  21456426.503     1925616.456 6   1500477.49722        16.000           1.500
  23642766.081     1182480.184 5    907907.62521         8.500           0.313
  21552123.276    -7507844.678 7  -5850266.30222        20.250           1.813
  23079222.472     -163383.615 6   -127313.16621        16.250           0.969
  20626900.894     -597313.033 8   -415359.66123        28.000           3.219
 91  6 20 17 51 14.9990000  0  5G19G16G 6G11G 2
  21459531.183     1941957.901 6   1513211.07221        17.000           1.438
  23645922.261     1199044.995 5    920815.17121         9.250           0.313
  21544466.292    -7548085.234 7  -5881622.56922        21.000           1.750
  23081507.464     -151377.511 6   -117957.78921        16.000           0.875
  20621073.073     -627945.756 8   -439229.30823        28.250           3.094
 91  6 20 17 51 29.9990000  0  5G19G16G 6G11G 2
  21462657.589     1958378.003 6   1526005.93122        15.750           1.500
  23649090.651     1215715.711 5    933805.31521         8.500           0.156
  21536816.433    -7588272.872 7  -5912937.59722        20.750           1.844
  23083822.675     -139215.253 6   -108480.73621        16.000           0.969
  20615261.269     -658476.147 8   -463019.21923        28.000           3.031
 91  6 20 17 51 44.9990000  0  5G19G16G 6G11G 2
  21465790.065     1974869.244 6   1538856.22121        17.250           1.344
  23652285.042     1232484.553 5    946871.86821         9.500           0.313
  21529178.878    -7628414.831 7  -5944217.05222        20.500           1.813
  23086164.050     -126904.534 6    -98887.98421        15.250           0.875
  20609471.800     -688911.679 8   -486735.21523        28.250           3.063
 91  6 20 17 51 59.9990000  0  5G19G16G 6G11G 2
  21468942.620     1991405.580 6   1551741.65421        15.750           1.469
  23655487.737     1249325.054 5    959994.25721         8.500           0.375
  21521541.386    -7668537.227 7  -5975481.23822        20.750           1.906
  23088527.472     -114471.661 6    -89200.05021        15.750           1.031
  20603691.315     -719278.432 7   -510397.61523        27.750           3.094
 91  6 20 17 52 14.9990000  0  5G19G16G 6G11G 2
  21472099.589     2007998.424 6   1564671.11421        17.750           1.438
  23658708.667     1266248.500 5    973181.32021         9.500           0.313
  21513912.605    -7708628.558 7  -6006721.22422        20.000           1.781
  23090922.612     -101905.499 6    -79408.27521        16.500           0.969
  20597928.792     -749565.033 7   -533997.56523        27.750           3.125
 91  6 20 17 52 29.9990000  0  5G19G16G 6G11G 2
  21475266.870     2024636.125 6   1577635.53721        16.750           1.375
  23661942.433     1283242.750 5    986423.52821         9.500           0.188
  21506291.144    -7748700.303 7  -6037945.95822        20.250           1.844
  23093337.808      -89217.850 6    -69521.82721        16.000           1.063
  20592178.003     -779783.060 8   -557544.08023        28.500           3.156
 91  6 20 17 52 44.9990000  0  5G19G16G 6G11G 2
  21478445.847     2041349.499 6   1590658.90921        16.750           1.438
  23665199.230     1300338.407 5    999744.75021         8.250           0.188
  21498674.097    -7788721.474 7  -6069131.28422        20.500           1.938
  23095779.511      -76378.089 6    -59516.85821        16.500           1.031
  20586447.628     -809901.659 8   -581013.11523        28.000           3.125
 91  6 20 17 52 59.9990000  0  5G19G16G 6G11G 2
  21481638.550     2058131.647 6   1603735.89421        16.250           1.438
  23668466.222     1317528.137 5   1013139.28021         9.000           0.188
  21491066.214    -7828699.041 7  -6100282.63622        20.750           1.844
  23098255.448      -63393.588 6    -49399.08721        16.500           0.844
  20580735.019     -839927.809 8   -604410.10623        28.250           3.063
 91  6 20 17 53 14.9990000  0  5G19G16G 6G11G 2
  21484844.847     2074976.004 6   1616861.33221        17.000           1.406
  23671755.605     1334804.885 5   1026601.62221         9.750           0.313
  21483467.769    -7868639.416 7  -6131405.00022        20.750           1.906
  23100747.581      -50271.070 6    -39173.76521        16.750           0.813
  20575036.050     -869868.061 7   -627740.17523        27.500           3.063
 91  6 20 17 53 29.9990000  0  5G19G16G 6G11G 2
  21488063.198     2091867.009 6   1630023.13821        15.250           1.438
  23675059.503     1352153.042 5   1040119.60421         9.000           0.188
  21475871.925    -7908557.930 7  -6162510.32822        21.000           1.813
  23103268.417      -37025.986 6    -28852.95121        16.250           0.906
  20569352.753     -899737.954 8   -651015.41423        28.000           3.031
 91  6 20 17 53 44.9990000  0  5G19G16G 6G11G 2
  21491285.433     2108824.348 6   1643236.60221        17.250           1.281
  23678374.151     1369591.681 5   1053708.09321         8.250           0.313
  21468280.058    -7948434.957 7  -6193583.33422        20.250           1.844
  23105819.839      -23639.185 6    -18421.69721        16.250           0.844
  20563686.706     -929517.703 7   -674220.41123        27.750           3.125
 91  6 20 17 53 59.9990000  0  5G19G16G 6G11G 2
  21494526.933     2125828.731 6   1656486.75921        16.000           1.250
  23681707.167     1387101.401 5   1067351.94221        10.250           0.188
  21460696.753    -7988289.573 6  -6224638.87522        19.750           1.844
  23108384.034      -10130.031 6     -7895.11621        15.750           0.906
  20558031.401     -959226.530 8   -697370.14523        28.000           3.188
 91  6 20 17 54 14.9990000  0  5G19G16G 6G11G 2
  21497768.214     2142887.927 6   1669779.60721        17.250           1.281
  23685051.308     1404689.629 5   1081057.01121         9.500           0.156
  21453119.269    -8028114.002 7  -6255670.89022        20.250           1.844
  23110979.089        3508.879 6      2732.57621        15.750           0.844
  20552392.105     -988856.996 8   -720458.82023        28.000           3.156
 91  6 20 17 54 29.9990000  0  5G19G16G 6G11G 2
  21501024.394     2159997.945 6   1683112.07321        16.500           1.344
  23688415.065     1422351.732 5   1094819.64821         8.500           0.250
  21445545.589    -8067912.098 6  -6286682.40022        19.750           1.875
  23113601.753       17273.279 6     13458.05321        16.250           0.813
  20546770.245    -1018412.919 8   -743489.40523        28.750           3.063
 91  6 20 17 54 44.9990000  0  5G19G16G 6G11G 2
  21504286.151     2177160.771 6   1696485.67621        17.000           1.375
  23691787.362     1440089.595 5   1108641.27121         8.750           0.313
  21437978.456    -8107681.702 7  -6317671.69322        20.250           1.813
  23116244.386       31165.023 6     24282.76521        16.000           0.844
  20541157.034    -1047892.339 8   -766460.37523        28.500           3.063
 91  6 20 17 54 59.9990000  0  5G19G16G 6G11G 2
  21507568.808     2194384.204 6   1709906.50321        16.500           1.313
  23695179.019     1457910.865 5   1122527.91021         9.250           0.219
  21430420.784    -8147414.882 7  -6348632.60022        20.750           1.781
  23118914.042       45191.745 6     35212.63921        15.750           0.906
  20535565.339    -1077287.420 8   -789365.62923        28.250           3.094
 91  6 20 17 55 14.9990000  0  5G19G16G 6G11G 2
  21510853.636     2211652.560 6   1723362.35321        17.250           1.250
  23698581.847     1475799.434 5   1136466.98821         8.750           0.250
  21422859.698    -8187127.292 7  -6379577.33822        20.250           1.781
  23121603.886       59337.550 6     46235.30821        15.250           0.938
  20529984.573    -1106613.754 8   -812217.31723        28.250           3.188
 91  6 20 17 55 29.9990000  0  5G19G16G 6G11G 2
  21514153.237     2228979.127 6   1736863.54221        16.000           1.188
  23702001.214     1493768.513 5   1150468.81621         8.500           0.313
  21415308.503    -8226805.425 6  -6410495.36022        19.750           1.969
  23124324.386       73615.575 6     57361.01221        16.750           0.906
  20524419.839    -1135857.947 8   -835004.99823        28.750           3.188
 91  6 20 17 55 44.9990000  0  5G19G16G 6G11G 2
  21517459.401     2246361.726 6   1750408.41121        17.250           1.219
  23705438.370     1511815.075 5   1164531.02321         9.000           0.313
  21407766.800    -8266451.327 6  -6441388.26522        19.500           2.000
  23127068.003       88023.396 6     68587.84921        17.000           0.906
  20518870.808    -1165022.442 8   -857730.57623        28.500           3.031
 91  6 20 17 55 59.9990000  0  5G19G16G 6G11G 2
  21520783.401     2263812.764 6   1764006.60521        16.250           1.219
  23708896.823     1529951.341 5   1178663.09021        10.000           0.344
  21400229.581    -8306052.561 7  -6472246.36522        20.000           1.844
  23129833.042      102573.146 6     79925.29621        16.500           0.875
  20513335.948    -1194094.728 8   -880384.29923        28.500           3.188
 91  6 20 17 56 14.9990000  0  5G19G16G 6G11G 2
  21524111.183     2281327.861 6   1777654.70021        17.500           1.281
  23712358.472     1548172.704 5   1192861.49421         9.500           0.406
  21392700.433    -8345613.392 6  -6503072.97822        19.250           1.906
  23132624.417      117260.135 6     91369.67121        16.000           0.875
  20507822.042    -1223079.095 8   -902969.52023        28.000           3.094
 91  6 20 17 56 29.9990000  0  5G19G16G 6G11G 2
  21527456.464     2298896.699 6   1791344.67821        16.500           1.188
  23715834.308     1566468.382 5   1207117.79821         9.000           0.375
  21385179.511    -8385144.119 7  -6533876.13222        20.500           1.938
  23135444.862      132073.820 6    102912.77421        16.250           0.813
  20502320.198    -1251986.018 7   -925494.39523        27.750           3.156
 91  6 20 17 56 44.9990000  0  5G19G16G 6G11G 2
  21530803.683     2316515.597 6   1805073.65721        16.750           1.313
  23719333.284     1584834.388 5   1221428.94221         8.750           0.281
  21377659.339    -8424648.196 6  -6564658.52922        19.500           1.969
  23138287.894      147010.268 6    114551.52821        16.750           0.719
  20496836.542    -1280819.164 8   -947961.77723        28.500           3.156
 91  6 20 17 56 59.9990000  0  5G19G16G 6G11G 2
  21534171.230     2334190.312 6   1818846.14521        16.500           1.250
  23722841.737     1603276.116 5   1235799.02421         8.750           0.250
  21370150.651    -8464119.845 7  -6595415.66022        20.500           1.906
  23141155.550      162074.868 6    126290.16021        17.000           0.875
  20491361.940    -1309572.805 7   -970367.20623        27.750           3.188
 91  6 20 17 57 14.9990000  0  5G19G16G 6G11G 2
  21537545.925     2351936.630 6   1832674.40921        16.500           1.219
  23726375.933     1621809.500 5   1250240.57821         9.750           0.406
  21362649.573    -8503542.818 7  -6626134.84322        20.750           1.875
  23144050.144      177283.631 6    138141.11521        16.500           0.844
  20485908.636    -1338230.742 7   -992698.06423        27.750           3.063
 91  6 20 17 57 29.9990000  0  5G19G16G 6G11G 2
  21540938.386     2369748.310 6   1846553.62621        16.500           1.344
  23729914.167     1640427.364 5   1264747.94321         8.500           0.344
  21355149.581    -8542923.577 6  -6656821.14022        19.750           1.875
  23146971.105      192629.761 6    150099.10621        16.750           0.750
  20480471.394    -1366799.560 7  -1014959.48223        27.750           3.219
 91  6 20 17 57 44.9990000  0  5G19G16G 6G11G 2
  21544332.308     2387621.734 6   1860480.94121        16.500           1.344
  23733464.862     1659126.025 5   1279318.25221         7.750           0.500
  21347667.800    -8582265.589 7  -6687477.25122        20.750           1.969
  23149916.480      208109.336 6    162161.06021        16.500           0.844
  20475052.245    -1395282.865 8  -1037154.26323        28.000           3.094
 91  6 20 17 57 59.9990000  0  5G19G16G 6G11G 2
  21547753.370     2405562.590 6   1874460.80221        16.000           1.250
  23737050.573     1677910.862 5   1293955.72321         8.750           0.313
  21340188.386    -8621563.022 7  -6718098.62522        20.250           1.875
  23152890.089      223727.893 6    174331.33921        16.250           0.844
  20469648.456    -1423674.956 8  -1059277.97023        28.250           3.125
 91  6 20 17 58 14.9990000  0  5G19G16G 6G11G 2
  21551174.987     2423563.009 6   1888487.05521        16.250           1.281
  23740634.433     1696773.497 5   1308653.80521         9.250           0.375
  21332715.323    -8660823.654 6  -6748691.31522        19.750           1.969
  23155886.175      239477.259 6    186603.53321        16.500           0.750
  20464262.667    -1451983.822 8  -1081336.82423        28.500           3.156
 91  6 20 17 58 29.9990000  0  5G19G16G 6G11G 2
  21554616.089     2441614.711 6   1902553.26721        16.250           1.281
  23744241.511     1715705.213 5   1323405.70821         9.250           0.375
  21325251.136    -8700055.463 7  -6779261.54922        20.000           2.000
  23158903.761      255349.123 6    198971.18921        16.000           0.719
  20458890.089    -1480217.489 8  -1103337.08523        28.750           3.094
 91  6 20 17 58 44.9990000  0  5G19G16G 6G11G 2
  21558060.800     2459738.919 6   1916676.03621        17.000           1.281
  23747860.128     1734726.856 5   1338227.73021         8.750           0.313
  21317793.628    -8739237.215 7  -6809792.77022        20.250           1.938
  23161952.769      271364.265 6    211450.48521        15.500           0.781
  20453534.409    -1508354.795 8  -1125262.25723        28.500           3.281
 91  6 20 17 58 59.9990000  0  5G19G16G 6G11G 2
  21561522.620     2477917.286 6   1930840.99521        15.500           1.375
  23751497.745     1753820.155 5   1353105.50921         9.000           0.344
  21310345.558    -8778387.132 7  -6840299.20422        20.250           1.844
  23165024.339      287504.226 6    224027.04721        16.250           0.875
  20448196.495    -1536414.179 8  -1147126.71223        28.750           3.250
 91  6 20 17 59 14.9990000  0  5G19G16G 6G11G 2
  21564990.464     2496155.137 6   1945052.25821        17.000           1.281
  23755140.753     1772990.156 5   1368043.11921         9.750           0.375
  21302903.050    -8817499.600 7  -6870776.44522        20.500           1.875
  23168118.972      303774.258 6    236704.95821        15.500           0.688
  20442873.956    -1564390.044 8  -1168926.08923        28.250           3.094
 91  6 20 17 59 29.9990000  0  5G19G16G 6G11G 2
  21568477.198     2514463.261 6   1959318.32321        16.250           1.313
  23758799.745     1792246.863 5   1383048.28021         8.500           0.344
  21295471.480    -8856563.868 7  -6901216.12722        20.750           1.844
  23171245.331      320184.636 6    249492.22921        15.750           0.656
  20437565.073    -1592271.821 8  -1190652.14323        28.750           3.219
 91  6 20 17 59 44.9990000  0  5G19G16G 6G11G 2
  21571968.894     2532832.510 6   1973631.99721        16.750           1.250
  23762476.894     1811580.968 5   1398113.77821         7.750           0.313
  21288047.628    -8895588.982 7  -6931625.30422        21.750           1.781
  23174390.839      336726.085 6    262381.64521        15.000           0.719
  20432275.753    -1620068.507 8  -1212311.90023        28.250           3.156
 91  6 20 17 59 59.9990000  0  5G19G16G 6G11G 2
  21575476.495     2551245.608 6   1987979.85421        16.500           1.281
  23766173.690     1830975.007 5   1413225.92721         8.000           0.438
  21280620.987    -8934592.022 7  -6962017.27422        21.000           1.938
  23177561.050      353381.022 6    275359.47021        15.500           0.688
  20427000.323    -1647797.563 8  -1233918.96323        28.750           3.219
 91  6 20 18  0 14.9990000  0  5G19G16G 6G11G 2
  21578984.659     2569704.661 6   2002363.50721        16.500           1.375
  23769875.667     1850430.652 5   1428386.08521         8.750           0.375
  21273201.323    -8973570.782 7  -6992390.32722        20.500           1.813
  23180748.886      370151.348 6    288427.23021        14.000           0.563
  20421738.597    -1675456.718 8  -1255471.54923        30.000           3.313
 91  6 20 18  0 29.9990000  0  5G19G16G 6G11G 2
  21582513.487     2588230.888 6   2016799.50921        15.500           1.375
  23773600.222     1869968.828 5   1443610.62421         9.250           0.313
  21265797.190    -9012503.889 7  -7022727.79722        21.750           1.938
  23183968.870      387058.085 6    301601.26021        14.750           0.688
  20416490.026    -1703024.701 8  -1276953.09423        28.500           3.188
 91  6 20 18  0 44.9990000  0  5G19G16G 6G11G 2
  21586046.769     2606785.702 6   2031257.77321        17.250           1.219
  23777319.644     1889550.429 5   1458868.94521         7.500           0.250
  21258387.472    -9051429.850 7  -7053059.71422        21.250           1.813
  23187200.831      404062.191 6    314851.18721        14.250           0.688
  20411254.433    -1730540.230 8  -1298393.76923        29.250           3.188
 91  6 20 18  0 59.9990000  0  5G19G16G 6G11G 2
  21589585.870     2625391.726 6   2045755.95421        16.000           1.281
  23781056.480     1909198.055 4   1474178.70421         7.250           0.313
  21250986.042    -9090325.841 7  -7083368.27222        21.500           1.906
  23190462.050      421186.230 6    328194.55021        15.000           0.656
  20406031.472    -1757980.579 8  -1319775.86523        29.000           3.281
 91  6 20 18  1 14.9990000  0  5G19G16G 6G11G 2
  21593138.440     2644071.252 6   2060311.40521        16.750           1.219
  23784822.425     1928933.485 5   1489556.86221         8.000           0.281
  21243593.565    -9129169.525 7  -7113636.06822        21.250           1.938
  23193748.964      438452.118 6    341648.47221        15.500           0.531
  20400829.565    -1785323.505 8  -1341082.03623        28.750           3.219
 91  6 20 18  1 29.9990000  0  5G19G16G 6G11G 2
  21596704.315     2662816.393 6   2074917.98121        16.000           1.406
  23788587.862     1948748.355 5   1504996.97121         8.500           0.281
  21236213.644    -9167968.565 7  -7143869.07722        21.750           1.906
  23197059.909      455851.834 6    355206.64721        14.750           0.625
  20395643.886    -1812576.897 8  -1362318.44823        28.750           3.094
 91  6 20 18  1 44.9990000  0  5G19G16G 6G11G 2
  21600282.276     2681621.742 6   2089571.47121        16.250           1.344
  23792368.058     1968637.176 4   1520494.67921         7.000           0.344
  21228836.815    -9206728.183 7  -7174071.37322        22.000           1.906
  23200396.065      473379.743 6    368864.72821        14.750           0.781
  20390475.894    -1839746.281 8  -1383489.39523        30.000           3.219
 91  6 20 18  1 59.9990000  0  5G19G16G 6G11G 2
  21603873.690     2700482.732 6   2104268.32021        16.000           1.375
  23796163.690     1988594.976 4   1536046.13621         7.000           0.219
  21221470.058    -9245453.135 7  -7204246.65722        22.000           2.000
  23203757.011      491030.874 6    382618.81921        14.750           0.719
  20385316.097    -1866836.035 8  -1404598.29623        28.750           3.063
 91  6 20 18  2 14.9990000  0  5G19G16G 6G11G 2
  21607472.769     2719390.778 6   2119001.82221        16.750           1.344
  23799972.503     2008612.819 5   1551644.38421         8.250           0.250
  21214100.159    -9284151.674 7  -7234401.35822        21.500           1.906
  23207133.565      508796.415 6    396462.04121        14.500           0.719
  20380178.901    -1893854.856 8  -1425651.91823        29.500           3.063
 91  6 20 18  2 29.9990000  0  5G19G16G 6G11G 2
  21611084.675     2738351.791 6   2133776.61721        16.000           1.344
  23803807.323     2028696.252 5   1567293.76221         8.250           0.281
  21206746.698    -9322817.733 7  -7264530.75822        21.750           2.031
  23210541.644      526682.077 6    410398.89321        15.500           0.781
  20375050.503    -1920796.746 8  -1446645.60023        29.000           3.125
 91  6 20 18  2 44.9990000  0  5G19G16G 6G11G 2
  21614701.972     2757393.141 6   2148614.01121        16.750           1.344
  23807640.019     2048872.256 5   1583015.25721         7.750           0.219
  21199399.784    -9361423.749 7  -7294613.36022        21.500           2.094
  23213973.151      544715.074 6    424450.54121        15.000           0.750
  20369943.870    -1947634.247 8  -1467557.93523        29.250           3.125
 91  6 20 18  2 59.9990000  0  5G19G16G 6G11G 2
  21618338.089     2776469.763 6   2163478.88521        16.000           1.375
  23811488.917     2069095.586 5   1598773.60521         8.250           0.219
  21192056.706    -9400014.704 7  -7324684.22922        21.750           1.969
  23217421.605      562849.998 6    438581.60521        14.750           0.688
  20364848.683    -1974412.552 8  -1488424.15023        29.500           3.125
 91  6 20 18  3 14.9990000  0  5G19G16G 6G11G 2
  21621973.565     2795591.207 6   2178378.68021        16.750           1.219
  23815351.503     2089375.172 5   1614575.79121         8.750           0.250
  21184715.089    -9438580.903 7  -7354735.80922        21.500           2.063
  23220891.511      581096.222 6    452799.38921        14.500           0.813
  20359764.526    -2001121.915 8  -1509236.63923        29.250           3.156
 91  6 20 18  3 29.9990000  0  5G19G16G 6G11G 2
  21625633.198     2814792.915 6   2193341.04621        14.750           1.313
  23819224.620     2109746.202 5   1630449.29221         8.000           0.156
  21177388.019    -9477086.702 7  -7384740.32522        21.750           2.031
  23224392.456      599488.869 6    467131.29821        14.750           0.719
  20354701.808    -2027727.053 8  -1529967.91123        29.500           3.125
 91  6 20 18  3 44.9980000  0  5G19G16G 6G11G 2
  21629291.967     2834053.978 6   2208349.65121        16.500           1.250
  23823111.357     2130187.270 4   1646377.31621         6.750           0.344
  21170070.287    -9515549.163 7  -7414711.07222        21.500           2.094
  23227916.428      618006.909 6    481560.88521        15.250           0.719
  20349656.397    -2054245.917 8  -1550631.96023        29.500           3.094
 91  6 20 18  3 59.9980000  0  5G19G16G 6G11G 2
  21632972.357     2853362.177 6   2223394.96621        15.750           1.250
  23827010.592     2150686.436 4   1662350.62721         6.500           0.344
  21162757.732    -9553987.932 7  -7444663.35322        22.250           1.969
  23231465.357      636637.864 6    496078.49421        14.750           0.750
  20344620.959    -2080696.764 8  -1571243.00523        29.250           3.063
 91  6 20 18  4 14.9980000  0  5G19G16G 6G11G 2
  21636652.295     2872729.795 6   2238486.59921        16.500           1.250
  23830926.006     2171255.350 5   1678378.28221         8.250           0.281
  21155450.061    -9592386.904 7  -7474584.62822        22.000           2.125
  23235033.318      655393.553 6    510693.27321        14.750           0.688
  20339603.928    -2107064.351 8  -1591789.17423        29.250           2.938
 91  6 20 18  4 29.9980000  0  4G19G 6G11G 2
  21640354.092     2892168.970 6   2253633.98121        15.500           1.313
  21148151.920    -9630733.804 7  -7504465.32322        21.500           2.156
  23238625.404      674285.840 6    525414.50221        15.250           0.656
  20334606.256    -2133336.532 8  -1612260.99923        29.250           3.063
 91  6 20 18  4 44.9980000  0  4G19G 6G11G 2
  21644060.154     2911655.824 6   2268818.50821        16.250           1.250
  21140859.404    -9669052.186 7  -7534323.79122        22.250           2.094
  23242242.787      693290.871 6    540223.59021        15.750           0.750
  20329618.982    -2159536.948 8  -1632676.91123        28.750           2.906
 91  6 20 18  4 59.9980000  0  4G19G 6G11G 2
  21647781.779     2931202.873 6   2284049.94421        16.000           1.250
  21133576.201    -9707329.537 7  -7564150.29722        22.500           2.156
  23245885.529      712420.658 6    555129.87721        16.000           0.719
  20324650.029    -2185653.257 8  -1653027.27723        28.750           2.969
 91  6 20 18  5 14.9980000  0  4G19G 6G11G 2
  21651511.826     2950808.310 6   2299326.88321        16.500           1.156
  21126297.451    -9745567.440 7  -7593946.06122        22.500           2.219
  23249548.303      731673.182 6    570131.81021        14.250           0.813
  20319694.240    -2211687.228 8  -1673313.48323        28.750           2.969
 91  6 20 18  5 29.9980000  0  4G19G 6G11G 2
  21655254.022     2970465.126 6   2314643.85521        16.250           1.344
  21119030.803    -9783772.789 7  -7623716.45722        22.750           2.188
  23253231.607      751041.172 6    585223.70121        14.250           0.719
  20314756.818    -2237645.929 8  -1693541.04423        28.750           2.875
 91  6 20 18  5 44.9980000  0  4G19G 6G11G 2
  21658998.529     2990177.727 6   2330004.30321        15.750           1.188
  21111764.842    -9821941.028 7  -7653457.94022        22.750           2.188
  23256944.889      770528.760 6    600408.79321        14.500           0.656
  20309831.342    -2263524.902 8  -1713706.47323        28.500           3.031
 91  6 20 18  5 59.9980000  0  4G19G 6G11G 2
  21662772.865     3009959.513 6   2345418.66421        14.750           1.219
  21104513.131    -9860058.483 7  -7683159.84422        23.500           2.156
  23260673.811      790149.223 6    615697.41821        15.250           0.813
  20304924.022    -2289310.622 8  -1733799.23723        28.000           2.906
 91  6 20 18  6 14.9980000  0  4G19G 6G11G 2
  21666541.256     3029799.191 6                        16.250
  21097264.803    -9898136.408 7  -7712830.95822        23.250           2.250
  23264429.826      809890.954 6                        15.500
  20300032.436    -2315014.345 8  -1753828.10723        28.250           2.906
 91  6 20 18  6 29.9980000  0  4G19G 6G11G 2
  21670329.029     3049687.517 6                        14.250
  21090024.256    -9936183.983 7  -7742478.40822        22.750           2.125
  23268207.217      829744.373 6                        14.500
  20295156.732    -2340645.644 8  -1773800.54823        28.750           2.875
 91  6 20 18  6 44.9980000  0  4G19G 6G11G 2
  21674118.967     3069621.583 6                        16.000
  21082791.318    -9974203.932 7  -7772104.35022        22.500           2.219
  23272011.147      849706.179 6                        15.000
  20290290.897    -2366207.375 8  -1793718.77723        28.000           2.938
 91  6 20 18  6 59.9980000  0  4G19G 6G11G 2
  21677925.654     3089608.324 6   2407482.58221        15.500           1.281
  21075561.959   -10012189.394 7  -7801703.40222        22.250           2.188
  23275830.857      869783.060 6    677749.59921        14.500           0.719
  20285441.279    -2391692.569 8  -1813577.36723        28.000           2.938
 91  6 20 18  7 14.9980000  0  4G19G 6G11G 2
  21681732.209     3109647.684 6   2423097.61321        16.250           1.094
  21068339.607   -10050139.987 7  -7831275.28422        22.500           2.219
  23279672.936      889974.785 6    693483.34821        14.500           0.656
  20280606.522    -2417101.164 7  -1833376.27023        27.750           3.031
 91  6 20 18  7 29.9980000  0  4G19G 6G11G 2
  21685558.990     3129739.824 6   2438753.81621        16.500           1.094
  21061126.100   -10088055.275 7  -7860819.66722        22.250           2.250
  23283530.537      910281.466 6    709306.71021        13.500           0.625
  20275786.568    -2442432.897 8  -1853115.27923        28.250           3.094
 91  6 20 18  7 44.9980000  0  4G19G 6G11G 2
  21689394.693     3149900.832 6   2454463.66321        16.000           1.281
  21053918.717   -10125919.225 7  -7890324.03422        22.250           2.219
  23287422.912      930718.752 6    725231.79821        14.500           0.656
  20270981.897    -2467671.718 8  -1872781.89623        28.000           3.000
 91  6 20 18  7 59.9980000  0  4G19G 6G11G 2
  21693249.897     3170119.921 6   2470218.77221        15.000           1.156
  21046720.951   -10163742.325 7  -7919796.57122        21.000           2.219
  23291336.686      951275.667 6    741250.12621        14.500           0.688
  20266198.248    -2492828.338 8  -1892384.45423        29.250           3.156
 91  6 20 18  8 14.9980000  0  4G19G 6G11G 2
  21697105.061     3190405.576 6   2486025.75121        16.750           1.250
  21039534.490   -10201516.000 7  -7949230.60022        21.750           2.156
  23295273.756      971960.420 6    757368.06521        15.250           0.594
  20261425.412    -2517894.372 8  -1911916.43523        28.250           3.188
 91  6 20 18  8 29.9980000  0  4G19G 6G11G 2
  21700980.834     3210752.157 6   2501880.19321        15.750           1.188
  21032357.061   -10239245.871 7  -7978630.49722        22.000           2.125
  23299231.350      992766.956 6    773580.92521        14.750           0.594
  20256671.576    -2542875.582 8  -1931382.31923        28.250           3.219
 91  6 20 18  8 44.9980000  0  4G19G 6G11G 2
  21704860.561     3231172.607 6   2517792.20921        16.500           1.281
  21025184.443   -10276918.850 7  -8007986.06222        21.750           2.063
  23303217.920     1013707.992 6    789898.57021        14.000           0.688
  20251939.232    -2567759.058 8  -1950772.03823        29.000           3.125
 91  6 20 18  8 59.9980000  0  4G19G 6G11G 2
  21708758.061     3251637.955 6   2533739.19521        16.000           1.219
  21018022.482   -10314563.720 7  -8037319.72922        22.500           2.125
  23307221.131     1034754.229 6    806298.16821        15.000           0.688
  20247215.326    -2592573.725 8  -1970108.13723        28.500           3.094
 91  6 20 18  9 14.9980000  0  4G19G 6G11G 2
  21712662.326     3272161.042 6   2549731.18821        16.250           1.250
  21010863.498   -10352167.336 7  -8066621.24722        21.250           2.250
  23311250.982     1055918.473 6    822789.77721        15.750           0.688
  20242508.850    -2617306.610 8  -1989380.51723        28.750           3.156
 91  6 20 18  9 29.9980000  0  4G19G 6G11G 2
  21716576.998     3292742.043 6   2565768.30521        15.250           1.375
  21003717.092   -10389729.528 7  -8095890.48122        21.500           2.063
  23315300.990     1077200.554 6    839373.16421        14.500           0.688
  20237817.600    -2641957.706 8  -2008589.16623        28.750           3.188
 91  6 20 18  9 44.9980000  0  4G19G 6G11G 2
  21720502.482     3313364.898 6   2581838.05621        15.750           1.250
  20996577.045   -10427266.112 7  -8125139.75522        22.000           2.156
  23319367.365     1098584.144 6    856035.64821        14.750           0.719
  20233138.600    -2666542.942 8  -2027746.48623        29.250           3.156
 91  6 20 18  9 59.9980000  0  4G19G 6G11G 2
  21724438.662     3334043.354 6   2597951.11121        15.000           1.219
  20989441.115   -10464763.221 7  -8154358.27122        22.000           2.063
  23323459.311     1120082.631 6    872787.69821        14.250           0.563
  20228475.428    -2691048.666 8  -2046841.85923        29.000           3.094
 91  6 20 18 10 14.9980000  0  4G19G 6G11G 2
  21728385.506     3354784.006 6   2614112.64221        15.750           1.219
  20982311.248   -10502213.989 7  -8183540.68422        21.500           2.156
  23327571.623     1141702.427 6    889634.24821        14.000           0.688
  20223829.553    -2715468.072 8  -2065869.96023        29.750           3.219
 91  6 20 18 10 29.9980000  0  4G19G 6G11G 2
  21732343.217     3375574.218 6   2630312.76621        15.750           1.281
  20975193.889   -10539631.087 7  -8212696.86622        21.750           2.156
  23331706.670     1163430.439 6    906565.12421        14.250           0.563
  20219195.475    -2739814.106 8  -2084840.90223        29.500           3.219
 91  6 20 18 10 44.9980000  0  4G19G 6G11G 2
  21736303.975     3396424.118 6   2646559.41921        15.000           1.188
  20968083.717   -10577004.079 7  -8241818.67322        22.250           2.250
  23335863.889     1185276.816 6    923588.22921        14.500           0.594
  20214580.490    -2764076.354 8  -2103746.54823        30.000           3.188
 91  6 20 18 10 59.9980000  0  4G19G 6G11G 2
  21740289.076     3417332.652 6   2662851.74921        15.250           1.250
  20960979.506   -10614333.846 7  -8270906.80122        22.000           2.219
  23340043.006     1207240.010 6    940702.38121        14.750           0.563
  20209976.654    -2788255.924 8  -2122587.77423        29.250           3.219
 91  6 20 18 11 14.9980000  0  4G19G 6G11G 2
  21744276.904     3438304.497 6   2679193.40921        16.500           1.375
  20953881.522   -10651615.560 7  -8299957.47722        21.500           2.219
  23344250.959     1229324.492 6    957911.04321        15.250           0.656
  20205394.139    -2812348.204 8  -2141360.97923        30.000           3.156
 91  6 20 18 11 29.9980000  0  4G19G 6G11G 2
  21748285.201     3459340.367 6   2695584.96821        14.750           1.250
  20946797.092   -10688848.485 7  -8328970.14422        22.250           2.219
  23348475.662     1251530.647 6    975214.47821        14.500           0.656
  20200826.006    -2836352.498 8  -2160065.61323        29.750           3.188
 91  6 20 18 11 44.9980000  0  4G19G 6G11G 2
  21752298.217     3480441.818 6   2712027.63221        16.000           1.156
  20939723.647   -10726030.840 7  -8357943.40122        22.500           2.250
  23352727.311     1273859.705 6    992613.67821        15.000           0.625
  20196272.764    -2860267.246 8  -2178700.48423        29.250           3.156
 91  6 20 18 11 59.9980000  0  4G19G 6G11G 2
  21756321.537     3501591.591 6   2728507.94721        14.750           1.344
  20932653.053   -10763179.632 7  -8386890.51022        22.500           2.188
  23356991.217     1296294.313 6   1010095.16121        13.750           0.531
  20191737.506    -2884109.512 8  -2197278.88123        29.250           3.125
 91  6 20 18 12 14.9980000  0  4G19G 6G11G 2
  21760359.092     3522813.449 6   2745044.42321        15.500           1.250
  20925593.803   -10800271.017 7  -8415792.88222        22.000           2.344
  23361287.529     1318857.757 6   1027677.00221        14.000           0.438
  20187221.732    -2907855.750 8  -2215782.44223        30.000           3.125
 91  6 20 18 12 29.9980000  0  4G19G 6G11G 2
  21764410.998     3544091.831 6   2761624.96221        15.000           1.219
  20918545.037   -10837320.637 7  -8444662.71022        22.000           2.344
  23365600.092     1341534.047 6   1045346.82421        13.000           0.719
  20182714.576    -2931521.801 8  -2234223.52123        29.500           3.094
 91  6 20 18 12 44.9980000  0  4G19G 6G11G 2
  21768470.006     3565433.229 6   2778254.60221        15.000           1.156
  20911504.795   -10874321.633 7  -8473494.65422        22.250           2.281
  23369935.318     1364329.549 6   1063109.47521        13.000           0.563
  20178226.287    -2955100.957 8  -2252596.88923        29.750           3.125
 91  6 20 18 12 59.9980000  0  4G19G 6G11G 2
  21772548.701     3586832.772 6   2794929.53421        15.500           1.344
  20904468.912   -10911278.624 7  -8502292.30522        22.000           2.281
  23374294.865     1387239.307 5   1080961.20421        11.500           0.563
  20173756.084    -2978597.966 8  -2270906.24723        29.750           3.031
 91  6 20 18 13 14.9980000  0  4G19G 6G11G 2
  21776626.506     3608288.518 6   2811648.26821        15.250           1.188
  20897448.873   -10948193.355 7  -8531057.02622        22.250           2.375
  23378680.951     1410261.015 6   1098900.12921        13.000           0.594
  20169302.178    -3002014.602 8  -2289152.97623        30.000           3.000
 91  6 20 18 13 29.9980000  0  4G19G 6G11G 2
  21780715.256     3629794.135 6   2828405.85821        14.500           1.250
  20890427.100   -10985072.091 7  -8559793.70322        22.500           2.313
  23383078.428     1433388.005 6   1116921.10821        13.500           0.656
  20164858.522    -3025357.296 8  -2307342.09323        29.250           2.969
 91  6 20 18 13 44.9980000  0  4G19G 6G11G 2
  21784819.209     3651357.565 6   2845208.50721        14.750           1.125
  20883420.264   -11021906.705 7  -8588495.99222        22.500           2.250
  23387500.053     1456627.998 6   1135030.14321        13.000           0.719
  20160433.990    -3048618.237 8  -2325467.50323        30.000           3.094
 91  6 20 18 13 59.9980000  0  4G19G 6G11G 2
  21788944.764     3673008.171 6   2862079.07521        15.000           1.156
  20876424.607   -11058667.709 7  -8617140.93122        22.500           2.375
  23391947.842     1480010.048 6   1153249.87321        13.000           0.719
  20156025.162    -3071767.955 8  -2343506.24723        29.250           3.000
 91  6 20 18 14 14.9980000  0  4G19G 6G11G 2
  21793077.553     3694751.394 6   2879021.81321        15.250           1.219
  20869442.897   -11095349.368 7  -8645724.03422        22.500           2.281
  23396431.373     1503539.403 6   1171584.38621        13.750           0.594
  20151643.756    -3094801.000 8  -2361454.06923        29.500           2.969
 91  6 20 18 14 29.9980000  0  4G19G 6G11G 2
  21797229.748     3716553.664 6   2896010.56321        15.000           1.281
  20862472.303   -11131985.275 7  -8674271.49122        22.750           2.375
  23400928.709     1527182.061 6   1190007.20421        14.250           0.688
  20147277.537    -3117751.179 8  -2379337.32823        29.250           2.938
 91  6 20 18 14 44.9980000  0  4G19G 6G11G 2
  21801386.037     3738423.906 6   2913052.26921        14.500           1.188
  20855508.506   -11168566.214 7  -8702776.11722        21.750           2.406
  23405453.412     1550946.718 6   1208525.05521        14.750           0.688
  20142928.740    -3140609.534 8  -2397149.03223        29.750           2.938
 91  6 20 18 14 59.9980000  0  4G19G 6G11G 2
  21805564.436     3760367.435 6   2930151.10221        14.250           1.188
  20848561.287   -11205086.674 7  -8731233.61322        22.500           2.219
  23409998.037     1574838.572 6   1227142.04521        14.500           0.563
  20138596.428    -3163370.484 8  -2414884.84623        29.250           3.000
 91  6 20 18 15 14.9980000  0  4G19G 6G11G 2
  21809752.264     3782374.241 6   2947299.23421        15.000           1.188
  20841623.264   -11241556.467 7  -8759651.62522        22.500           2.250
  23414570.412     1598847.121 6   1245849.96621        14.250           0.500
  20134282.561    -3186044.124 8  -2432552.61923        29.250           2.969
 91  6 20 18 15 29.9980000  0  4G19G 6G11G 2
  21813953.615     3804444.375 6   2964496.70421        14.250           1.156
  20834690.240   -11277975.340 7  -8788029.96322        22.250           2.375
  23419158.107     1622972.227 6   1264648.71421        14.000           0.594
  20129984.592    -3208630.364 8  -2450152.29223        29.500           2.906
 91  6 20 18 15 44.9980000  0  4G19G 6G11G 2
  21818163.506     3826578.892 6   2981744.34621        14.000           1.219
  20827770.850   -11314342.274 7  -8816367.82422        22.750           2.375
  23423773.928     1647214.531 6   1283538.77921        14.000           0.656
  20125703.451    -3231128.317 8  -2467683.16523        29.500           3.063
 91  6 20 18 15 59.9980000  0  4G19G 6G11G 2
  21822389.482     3848772.610 6   2999038.12121        12.500           1.094
  20820858.881   -11350662.064 7  -8844668.95422        22.750           2.281
  23428406.982     1671568.780 6   1302516.06221        12.500           0.688
  20121436.178    -3253543.034 8  -2485149.18323        29.750           3.000
 91  6 20 18 16 14.9980000  0  4G19G 6G11G 2
  21826626.803     3871028.186 6   3016380.09421        14.500           1.188
  20813960.068   -11386931.996 7  -8872931.23922        22.750           2.219
  23433062.592     1696037.306 6   1321582.35621        13.500           0.594
  20117186.061    -3275872.008 8  -2502548.38823        29.500           3.031
 91  6 20 18 16 29.9980000  0  4G19G 6G11G 2
  21830870.553     3893342.757 6   3033768.03521        13.250           1.125
  20807060.100   -11423154.827 7  -8901156.82122        21.500           2.250
  23437736.873     1720616.819 6   1340735.16921        12.500           0.531
  20112956.693    -3298118.066 8  -2519882.97923        30.750           3.063
 91  6 20 18 16 44.9980000  0  4G19G 6G11G 2
  21835128.990     3915722.264 6   3051206.58921        14.250           1.156
  20800182.443   -11459324.342 7  -8929340.84822        23.000           2.250
  23442434.186     1745313.001 6   1359978.90521        12.000           0.625
  20108739.506    -3320275.262 8  -2537148.33123        30.500           3.156
 91  6 20 18 16 59.9980000  0  4G19G 6G11G 2
  21839399.350     3938164.693 6   3068694.14521        13.250           1.250
  20793309.709   -11495442.328 7  -8957484.73122        23.000           2.156
  23447161.178     1770123.615 6   1379311.81021        12.750           0.406
  20104537.287    -3342345.444 8  -2554345.88123        30.000           3.063
 91  6 20 18 17 14.9980000  0  4G19G 6G11G 2
  21843678.678     3960674.740 6   3086234.41521        13.250           1.156
  20786445.350   -11531503.887 7  -8985584.63722        23.000           2.094
  23451900.748     1795053.224 6   1398737.43721        12.500           0.563
  20100357.709    -3364323.936 8  -2571471.97923        30.750           3.188
 91  6 20 18 17 29.9980000  0  4G19G 6G11G 2
  21847975.068     3983237.907 6   3103816.06221        13.750           1.125
  20779590.889   -11567523.365 7  -9013651.75722        23.000           2.063
  23456669.279     1820086.894 6   1418244.14321        12.250           0.531
  20096189.834    -3386225.412 8  -2588538.07223        30.250           3.031
 91  6 20 18 17 44.9980000  0  4G19G 6G11G 2
  21852280.248     4005866.327 6   3121448.57121        14.000           1.063
  20772745.693   -11603488.509 7  -9041676.54222        22.250           2.188
  23461453.748     1845236.434 6   1437841.12521        12.000           0.469
  20092039.193    -3408037.696 8  -2605534.65623        30.500           3.188
 91  6 20 18 17 59.9980000  0  4G19G 6G11G 2
  21856601.850     4028554.979 6   3139127.99321        13.750           1.219
  20765912.139   -11639404.126 7  -9069662.72922        22.500           2.344
  23466260.873     1870496.659 6   1457524.36621        13.250           0.563
  20087903.162    -3429765.755 8  -2622465.61323        29.750           3.156
 91  6 20 18 18 14.9980000  0  4G19G 6G11G 2
  21860918.998     4051274.163 6   3156831.22221        13.750           1.156
  20759080.232   -11675299.647 7  -9097633.26222        22.250           2.313
  23471081.850     1895837.588 6   1477270.48521        13.500           0.531
  20083779.943    -3451439.098 8  -2639353.93423        30.250           3.094
 91  6 20 18 18 29.9980000  0  4G19G 6G11G 2
  21865261.607     4074059.834 6   3174586.25721        12.750           1.031
  20752263.240   -11711138.964 7  -9125560.00522        22.500           2.344
  23475927.623     1921294.757 6   1497107.19621        13.750           0.531
  20079672.295    -3473021.899 8  -2656171.70623        30.000           3.156
 91  6 20 18 18 44.9980000  0  4G19G 6G11G 2
  21869608.061     4096913.343 6   3192394.14921        13.250           1.094
  20745455.592   -11746920.832 7  -9153441.97622        22.750           2.406
  23480791.600     1946869.150 6   1517035.23721        13.000           0.594
  20075583.186    -3494512.929 8  -2672917.96423        30.250           3.125
 91  6 20 18 18 59.9980000  0  4G19G 6G11G 2
  21873974.975     4119835.729 6   3210255.71121        13.000           1.094
  20738655.912   -11782643.826 7  -9181278.07422        22.250           2.438
  23485679.654     1972561.538 6   1537055.23321        12.500           0.656
  20071509.342    -3515911.243 8  -2689591.98123        30.250           3.094
 91  6 20 18 19 14.9980000  0  4G19G 6G11G 2
  21878339.178     4142822.206 6   3228167.21621        13.500           1.188
  20731868.295   -11818312.563 7  -9209071.89822        22.250           2.438
  23490592.420     1998366.885 6   1557163.23021        12.750           0.469
  20067456.639    -3537221.524 8  -2706197.39823        30.500           3.094
 91  6 20 18 19 29.9980000  0  4G19G 6G11G 2
  21882728.350     4165854.227 6   3246114.21721        13.000           1.094
  20725087.967   -11853945.494 7  -9236837.82222        22.250           2.250
  23495524.287     2024266.435 6   1577344.67821        13.750           0.469
  20063413.420    -3558462.197 8  -2722748.57223        30.250           3.031
 91  6 20 18 19 44.9980000  0  4G19G 6G11G 2
  21887122.397     4188937.469 6   3264101.11821        14.250           1.094
  20718314.482   -11889536.477 7  -9264571.04822        22.500           2.313
  23500469.623     2050265.655 6   1597603.74521        13.250           0.531
  20059387.537    -3579627.762 8  -2739241.21923        30.000           3.031
 91  6 20 18 19 59.9980000  0  4G19G 6G11G 2
  21891522.701     4212070.999 6   3282127.20521        14.000           1.063
  20711549.678   -11925086.476 7  -9292272.34822        22.250           2.469
  23505438.662     2076363.254 6   1617939.49021        14.250           0.469
  20055374.670    -3600719.226 8  -2755676.12623        30.000           2.969
 91  6 20 18 20 14.9980000  0  4G19G 6G11G 2
  21895938.076     4235275.017 6   3300208.23121        14.500           1.125
  20704797.639   -11960575.179 7  -9319925.87323        22.000           2.563
  23510427.131     2102579.026 6   1638367.33721        13.500           0.594
  20051374.982    -3621716.418 8  -2772037.58023        29.500           2.969
 91  6 20 18 20 29.9980000  0  4G19G 6G11G 2
  21900367.115     4258531.546 6   3318330.16121        13.750           1.125
  20698048.397   -11996020.273 7  -9347545.41022        21.750           2.469
  23515434.256     2128894.776 6   1658873.04621        13.000           0.625
  20047397.061    -3642637.005 8  -2788339.33723        30.250           2.969
 91  6 20 18 20 44.9980000  0  4G19G 6G11G 2
  21904799.514     4281846.807 6   3336497.86021        14.500           1.094
  20691313.139   -12031415.248 7  -9375125.92122        21.750           2.406
  23520461.068     2155316.525 6   1679461.35021        12.500           0.594
  20043430.287    -3663474.926 8  -2804576.67723        30.000           2.906
 91  6 20 18 20 59.9980000  0  4G19G 6G11G 2
  21909247.482     4305214.391 6   3354706.33521        14.000           1.094
  20684586.857   -12066766.421 7  -9402672.27922        21.500           2.438
  23525509.193     2181837.502 6   1700127.01521        13.500           0.594
  20039478.092    -3684236.572 8  -2820754.58523        29.500           2.906
 91  6 20 18 21 14.9980000  0  4G19G 6G11G 2
  21913704.326     4328626.461 6   3372949.48021        15.250           1.125
  20677867.904   -12102081.473 7  -9430190.49223        21.750           2.563
  23530570.537     2208449.355 6   1720863.48221        13.500           0.563
  20035542.037    -3704929.753 8  -2836879.14223        29.500           2.781
 91  6 20 18 21 29.9980000  0  4G19G 6G11G 2
  21918172.451     4352103.237 6   3391243.03221        14.500           1.281
  20671157.670   -12137340.207 7  -9457664.82322        21.500           2.469
  23535657.568     2235171.995 6   1741686.28221        13.250           0.750
  20031621.693    -3725534.385 8  -2852934.70423        29.500           2.906
 91  6 20 18 21 44.9980000  0  4G19G 6G11G 2
  21922648.701     4375635.490 6   3409579.81221        15.000           1.094
  20664462.693   -12172551.390 7  -9485102.09823        22.500           2.531
  23540762.365     2261996.099 6   1762588.11721        12.250           0.563
  20027715.584    -3746059.513 8  -2868928.31123        29.500           2.875
 91  6 20 18 21 59.9980000  0  4G19G 6G11G 2
  21927142.490     4399218.916 6   3427956.47321        14.250           1.063
  20657767.209   -12207718.980 7  -9512505.41123        22.500           2.594
  23545882.068     2288917.280 6   1783565.59621        12.750           0.500
  20023824.287    -3766509.452 8  -2884863.32823        29.500           2.844
 91  6 20 18 22 14.9980000  0  4G19G 6G11G 2
  21931631.467     4422852.862 6   3446372.49921        15.000           1.094
  20651083.420   -12242843.607 7  -9539875.24323        22.250           2.563
  23551028.467     2315934.518 6   1804617.96321        12.750           0.563
  20019947.928    -3786884.858 8  -2900740.27423        30.000           2.906
 91  6 20 18 22 29.9980000  0  4G19G 6G11G 2
  21936146.818     4446554.099 6   3464840.96221        13.750           1.156
  20644408.873   -12277908.246 7  -9567198.33723        22.250           2.625
  23556190.092     2343064.232 6   1825757.93721        12.250           0.531
  20016088.272    -3807168.976 8  -2916546.07923        30.250           2.781
 91  6 20 18 22 44.9980000  0  4G19G 6G11G 2
  21940662.154     4470308.555 6   3483350.87721        14.250           1.219
  20637746.264   -12312926.902 7  -9594485.59223        22.250           2.625
  23561370.029     2370292.147 6   1846974.41821        13.000           0.469
  20012243.889    -3827375.875 8  -2932291.71723        30.500           2.781
 91  6 20 18 22 59.9980000  0  4G19G 6G11G 2
  21945198.076     4494137.467 6   3501918.84021        13.250           1.125
  20631092.686   -12347878.153 7  -9621720.32823        22.250           2.563
  23566572.725     2397638.887 6   1868283.56221        12.750           0.313
  20008413.678    -3847484.388 8  -2947960.68723        30.000           2.813
 91  6 20 18 23 14.9980000  0  4G19G 6G11G 2
  21949741.647     4518009.189 6   3520520.14821        14.750           1.063
  20624451.170   -12382793.254 7  -9648926.89323        22.250           2.625
  23571794.350     2425072.755 6   1889660.55321        12.250           0.469
  20004599.834    -3867525.953 8  -2963577.49523        30.000           2.781
 91  6 20 18 23 29.9980000  0  4G19G 6G11G 2
  21954296.576     4541937.688 6   3539165.69421        13.500           1.063
  20617818.686   -12417658.225 7  -9676094.39723        23.000           2.531
  23577031.443     2452607.377 6   1911116.05021        12.000           0.594
  20000802.850    -3887486.702 8  -2979131.32823        30.250           2.719
 91  6 20 18 23 44.9980000  0  4G19G 6G11G 2
  21958854.779     4565918.197 6   3557851.77421        14.000           1.125
  20611194.420   -12452477.566 7  -9703226.34922        23.500           2.469
  23582291.568     2480237.662 6   1932646.05821        12.000           0.438
  19997018.686    -3907371.682 8  -2994626.11423        30.000           2.781
 91  6 20 18 23 59.9980000  0  4G19G 6G11G 2
  21963438.967     4589958.143 6   3576584.15121        13.500           1.063
  20604575.436   -12487243.561 7  -9730316.72922        22.750           2.438
  23587568.607     2507970.846 5   1954256.29421        11.750           0.375
  19993250.756    -3927173.138 8  -3010055.82223        30.250           2.719
 91  6 20 18 24 14.9980000  0  4G19G 6G11G 2
  21968017.951     4614055.572 6   3595361.34121        14.250           1.094
  20597969.107   -12521957.887 7  -9757366.84823        22.250           2.625
  23592868.514     2535804.757 6   1975944.98421        12.500           0.500
  19989499.717    -3946892.757 8  -3025421.76423        30.000           2.844
 91  6 20 18 24 29.9980000  0  4G19G 6G11G 2
  21972620.357     4638225.269 6   3614194.82921        13.500           1.000
  20591377.436   -12556605.822 7  -9784365.23023        23.250           2.656
  23598186.326     2563753.689 6   1997723.34521        12.500           0.563
  19985766.670    -3966516.306 8  -3040712.84323        30.250           2.719
 91  6 20 18 24 44.9980000  0  4G19G 6G11G 2
  21977225.772     4662453.846 6   3633074.20621        13.500           1.000
  20584792.920   -12591200.468 7  -9811322.09923        22.500           2.531
  23603520.404     2591804.026 6   2019580.68521        12.500           0.469
  19982044.404    -3986057.169 8  -3055939.49223        30.250           2.781
 91  6 20 18 24 59.9980000  0  4G19G 6G11G 2
  21981847.139     4686729.255 6   3651990.07121        13.000           0.906
  20578218.975   -12625753.895 7  -9838246.85023        23.000           2.500
  23608881.240     2619943.271 6   2041507.34721        12.750           0.438
  19978338.232    -4005527.348 8  -3071111.06723        29.500           2.750
 91  6 20 18 25 14.9980000  0  4G19G 6G11G 2
  21986476.498     4711059.446 6   3670948.62821        13.500           0.875
  20571650.037   -12660257.754 7  -9865132.97323        22.250           2.625
  23614250.357     2648178.984 6   2063509.12721        12.500           0.375
  19974651.748    -4024918.930 8  -3086221.39023        30.500           2.781
 91  6 20 18 25 29.9980000  0  4G19G 6G11G 2
  21991123.428     4735450.102 6   3689954.30221        13.750           0.969
  20565096.342   -12694706.063 7  -9891975.80423        23.000           2.531
  23619643.068     2676516.951 6   2085590.62021        12.500           0.406
  19970977.443    -4044225.938 8  -3101265.81923        30.250           2.688
 91  6 20 18 25 44.9980000  0  4G19G 6G11G 2
  21995771.975     4759896.442 6   3709003.35821        13.750           0.938
  20558552.076   -12729103.396 7  -9918778.91723        23.000           2.563
  23625052.240     2704951.952 6   2107747.70721        12.500           0.594
  19967315.756    -4063453.046 8  -3116247.98423        30.000           2.813
 91  6 20 18 25 59.9980000  0  4G19G 6G11G 2
  22000434.998     4784401.399 6   3728098.08721        13.250           0.906
  20552019.162   -12763446.679 7  -9945539.91623        23.250           2.563
  23630483.131     2733486.545 6   2129982.39621        12.500           0.531
  19963675.131    -4082597.615 8  -3131165.83923        30.500           2.844
 91  6 20 18 26 14.9980000  0  4G19G 6G11G 2
  22005103.264     4808951.654 6   3747228.12121        13.750           1.000
  20545487.100   -12797749.174 7  -9972269.12923        21.750           2.531
  23635928.037     2762107.091 5   2152284.08121        11.000           0.406
  19960044.068    -4101673.061 8  -3146029.82723        30.750           2.750
 91  6 20 18 26 29.9980000  0  4G19G 6G11G 2
  22009788.951     4833556.663 6   3766400.82121        13.000           0.906
  20538971.100   -12832001.282 7  -9998959.07922        22.750           2.406
  23641393.522     2790822.916 6   2174659.98121        12.000           0.469
  19956427.959    -4120669.651 8  -3160832.37023        30.250           2.750
 91  6 20 18 26 44.9980000  0  4G19G 6G11G 2
  22014484.326     4858233.000 6   3785629.08921        13.750           0.969
  20532464.607   -12866185.901 7 -10025596.44123        23.000           2.531
  23646876.459     2819650.275 6   2197122.80621        12.250           0.438
  19952831.982    -4139570.861 8  -3175560.58723        29.750           2.813
 91  6 20 18 26 59.9980000  0  4G19G 6G11G 2
  22019187.350     4882960.240 6   3804897.04621        12.250           0.938
  20525968.514   -12900323.355 7 -10052197.05323        22.500           2.500
  23652382.928     2848568.345 6   2219656.34321        12.750           0.531
  19949250.326    -4158397.242 8  -3190230.50123        31.000           2.719
 91  6 20 18 27 14.9980000  0  4G19G 6G11G 2
  22023904.615     4907748.246 6   3824212.32721        13.750           1.000
  20519483.662   -12934403.667 7 -10078753.14322        22.750           2.406
  23657904.131     2877586.615 6   2242267.91421        12.500           0.469
  19945683.303    -4177138.925 8  -3204834.41123        30.250           2.781
 91  6 20 18 27 29.9980000  0  4G19G 6G11G 2
  22028635.193     4932589.824 6   3843569.37521        13.250           0.875
  20513007.693   -12968433.760 7 -10105270.09923        22.750           2.500
  23663443.623     2906697.769 6   2264951.90421        12.000           0.563
  19942132.756    -4195802.883 8  -3219377.75323        31.000           2.844
 91  6 20 18 27 44.9980000  0  4G19G 6G11G 2
  22033370.490     4957493.618 6   3862974.88221        14.250           0.844
  20506542.779   -13002404.700 7 -10131740.96123        23.250           2.500
  23669005.959     2935910.227 6   2287714.80421        12.750           0.500
  19938597.678    -4214380.527 8  -3233853.84723        30.750           2.813
 91  6 20 18 27 59.9980000  0  4G19G 6G11G 2
  22038120.647     4982444.683 6   3882417.23421        13.000           0.875
  20500087.514   -13036331.255 7 -10158177.24122        23.000           2.344
  23674580.842     2965208.673 5   2310544.70221        11.750           0.500
  19935076.178    -4232886.849 8  -3248274.36723        31.250           2.813
 91  6 20 18 28 14.9980000  0  4G19G 6G11G 2
  22042877.787     5007449.229 6   3901901.26021        13.500           0.969
  20493641.482   -13070207.035 7 -10184573.94722        23.500           2.469
  23680170.623     2994598.946 5   2333446.15121        11.500           0.469
  19931569.779    -4251315.911 8  -3262634.67123        31.250           2.625
 91  6 20 18 28 29.9980000  0  4G19G 6G11G 2
  22047656.061     5032516.916 6   3921434.49021        12.500           0.781
  20487203.873   -13104022.301 7 -10210923.49822        23.000           2.406
  23685785.553     3024090.455 6   2356426.53021        12.250           0.344
  19928077.232    -4269657.893 8  -3276927.13223        31.000           2.781
 91  6 20 18 28 44.9980000  0  4G19G 6G11G 2
  22052433.857     5057637.413 6   3941008.85521        14.000           0.938
  20480781.943   -13137787.023 7 -10237233.67222        23.250           2.375
  23691421.428     3053672.665 6   2379477.55121        12.250           0.438
  19924602.670    -4287923.052 8  -3291159.72423        30.500           2.688
 91  6 20 18 28 59.9980000  0  4G19G 6G11G 2
  22057229.045     5082827.042 6   3960637.10921        12.500           0.938
  20474370.178   -13171484.476 7 -10263491.42722        23.750           2.469
  23697062.920     3083361.618 6   2402611.75221        12.000           0.563
  19921143.639    -4306094.993 8  -3305319.67823        30.750           2.719
 91  6 20 18 29 14.9980000  0  4G19G 6G11G 2
  22062024.592     5108069.141 6   3980306.22321        13.500           0.875
  20467965.795   -13205131.418 7 -10289709.81123        23.500           2.625
  23702726.529     3113140.232 5   2425815.80621        11.500           0.406
  19917698.631    -4324190.431 8  -3319420.02223        30.500           2.656
 91  6 20 18 29 29.9980000  0  4G19G 6G11G 2
  22066842.045     5133379.740 6   4000028.74221        12.000           0.813
  20461574.373   -13238711.605 7 -10315876.18623        23.500           2.500
  23708418.811     3143024.299 5   2449102.03821        11.750           0.375
  19914274.209    -4342193.235 8  -3333448.18723        31.000           2.750
 91  6 20 18 29 44.9980000  0  4G19G 6G11G 2
  22071663.475     5158736.577 6   4019787.27621        13.000           0.813
  20455194.631   -13272246.964 7 -10342007.62923        23.750           2.656
  23714119.193     3172991.141 6   2472452.78221        12.000           0.188
  19910861.881    -4360125.713 8  -3347421.56223        30.500           2.656
 91  6 20 18 29 59.9980000  0  4G19G 6G11G 2
  22076502.990     5184143.092 6   4039584.51421        12.500           0.875
  20448823.584   -13305733.832 7 -10368101.29623        24.000           2.625
  23719838.873     3203043.908 6   2495870.48121        13.250           0.406
  19907466.201    -4377984.498 8  -3361337.50323        30.500           2.594
 91  6 20 18 30 14.9980000  0  4G19G 6G11G 2
  22081352.904     5209609.877 6   4059428.73421        13.250           0.813
  20442460.053   -13339161.629 7 -10394148.92623        23.500           2.719
  23725577.732     3233192.927 6   2519363.18821        12.250           0.469
  19904081.053    -4395758.989 8  -3375187.75723        30.750           2.781
 91  6 20 18 30 29.9980000  0  4G19G 6G11G 2
  22086209.045     5235130.783 6   4079315.10821        13.250           0.813
  20436111.311   -13372536.120 7 -10420155.01823        23.750           2.563
  23731332.068     3263431.784 6   2542925.85421        12.250           0.469
  19900714.943    -4413455.499 8  -3388977.24323        31.000           2.563
 91  6 20 18 30 44.9980000  0  4G19G 6G11G 2
  22091068.131     5260715.152 6   4099250.94421        12.500           0.938
  20429772.654   -13405847.706 7 -10446112.10023        23.750           2.625
  23737099.647     3293769.447 5   2566565.54321        11.250           0.406
  19897364.295    -4431064.469 8  -3402698.51323        31.750           2.625
 91  6 20 18 30 59.9980000  0  4G19G 6G11G 2
  22095962.326     5286366.391 6   4119238.88621        12.000           0.875
  20423444.014   -13439092.698 7 -10472017.28723        23.500           2.688
  23742899.779     3324209.147 6   2590284.74421        13.000           0.375
  19894028.881    -4448582.536 8  -3416348.95823        31.250           2.688
 91  6 20 18 31 14.9980000  0  4G19G 6G11G 2
  22100846.420     5312063.446 6   4139262.52221        13.250           0.750
  20417128.943   -13472292.149 7 -10497886.98223        24.000           2.656
  23748708.186     3354729.491 6   2614066.76221        12.250           0.500
  19890710.147    -4466030.779 8  -3429944.99323        30.750           2.781
 91  6 20 18 31 29.9980000  0  4G19G 6G11G 2
  22105752.186     5337815.737 6   4159329.20721        12.000           0.875
  20410818.678   -13505436.115 7 -10523713.44823        23.500           2.719
  23754531.975     3385339.763 6   2637918.84521        12.500           0.344
  19887404.732    -4483399.560 8  -3443479.11623        31.250           2.844
 91  6 20 18 31 44.9980000  0  4G19G 6G11G 2
  22110657.186     5363629.611 6   4179443.87321        13.000           0.844
  20404524.717   -13538518.213 7 -10549491.70323        23.500           2.719
  23760371.568     3416045.931 6   2661845.69321        12.000           0.406
  19884114.256    -4500682.662 8  -3456946.46423        31.250           2.781
 91  6 20 18 31 59.9980000  0  4G19G 6G11G 2
  22115577.607     5389483.525 6   4199589.73421        12.000           0.875
  20398239.389   -13571559.643 7 -10575238.26823        24.250           2.625
  23766226.709     3446826.061 5   2685830.16721        11.000           0.406
  19880839.397    -4517901.765 8  -3470363.94523        31.250           2.781
 91  6 20 18 32 14.9980000  0  4G19G 6G11G 2
  22120504.522     5415376.129 6   4219765.74721        13.250           0.813
  20391957.889   -13604561.859 7 -10600954.28223        24.250           2.656
  23772095.678     3477678.497 5   2709870.96621        11.250           0.469
  19877574.967    -4535058.175 8  -3483732.57723        31.000           2.938
 91  6 20 18 32 29.9980000  0  4G19G 6G11G 2
  22125446.748     5441335.520 6   4239993.81521        12.250           0.781
  20385691.170   -13637496.307 7 -10626617.48423        24.000           2.594
  23777989.717     3508631.163 5   2733989.86021        11.000           0.531
  19874325.506    -4552123.589 8  -3497030.30923        30.750           2.875
 91  6 20 18 32 44.9980000  0  4G19G 6G11G 2
  22130393.787     5467352.327 6   4260266.60121        12.250           0.813
  20379435.615   -13670372.191 7 -10652235.05023        24.250           2.688
  23783898.982     3539674.260 5   2758179.21921        11.000           0.438
  19871094.022    -4569107.431 8  -3510264.47123        31.000           2.875
 91  6 20 18 32 59.9980000  0  4G19G 6G11G 2
  22135367.717     5493438.518 6   4280593.46121        12.000           0.875
  20373190.467   -13703177.268 7 -10677797.43923        24.000           2.656
  23789824.928     3570819.374 6   2782448.08621        12.000           0.406
  19867879.732    -4585997.829 8  -3523425.82523        30.000           2.906
 91  6 20 18 33 14.9980000  0  4G19G 6G11G 2
  22140335.412     5519593.392 6   4300973.84421        12.500           0.906
  20366963.647   -13735912.148 7 -10703305.13323        24.500           2.531
  23795766.279     3602065.547 5   2806795.69521        10.750           0.406
  19864682.436    -4602795.566 8  -3536514.96823        30.000           2.875
 91  6 20 18 33 29.9980000  0  4G19G 6G11G 2
  22145327.131     5545805.516 6   4321398.83121        12.000           0.844
  20360747.217   -13768587.966 7 -10728766.80323        24.500           2.531
  23801733.514     3633401.135 5   2831212.99621        10.750           0.313
  19861505.076    -4619512.062 8  -3549540.81423        30.500           2.813
 91  6 20 18 33 44.9980000  0  4G19G 6G11G 2
  22150322.436     5572068.238 6   4341863.24821        12.500           0.750
  20354535.693   -13801211.099 7 -10754187.42423        23.750           2.625
  23807714.904     3664819.226 5   2855694.59421        11.250           0.406
  19858338.115    -4636153.830 8  -3562508.43223        30.500           2.813
 91  6 20 18 33 59.9980000  0  4G19G 6G11G 2
  22155334.404     5598399.798 5   4362381.30421        11.500           0.844
  20348343.522   -13833763.072 7 -10779552.59222        24.250           2.469
  23813717.170     3696337.751 5   2880254.42721        11.000           0.406
  19855188.178    -4652702.663 8  -3575403.62623        30.500           2.875
 91  6 20 18 34 14.9980000  0  4G19G 6G11G 2
  22160358.225     5624789.120 6   4382944.36621        13.250           0.875
  20342156.068   -13866254.695 7 -10804870.73523        23.000           2.500
  23819725.217     3727945.407 5   2904883.74721        11.000           0.406
  19852054.662    -4669169.493 8  -3588234.92723        30.500           2.813
 91  6 20 18 34 29.9980000  0  4G19G 6G11G 2
  22165387.490     5651226.014 5   4403544.48921        11.750           0.844
  20335984.248   -13898696.019 7 -10830149.69223        23.500           2.625
  23825752.217     3759631.581 5   2929574.21221         9.750           0.406
  19848934.490    -4685564.609 8  -3601010.34323        30.750           2.875
 91  6 20 18 34 44.9980000  0  4G19G 6G11G 2
  22170427.959     5677720.373 6   4424189.41521        13.000           0.875
  20329824.318   -13931076.858 7 -10855381.50823        23.250           2.625
  23831799.123     3791406.093 5   2954333.52621        10.750           0.406
  19845829.428    -4701877.991 8  -3613722.07123        30.750           2.813
 91  6 20 18 34 59.9970000  0  3G19G 6G 2
  22175488.134     5704279.184 6   4444884.53821        12.250           0.750
  20323675.267   -13963385.939 7 -10880557.40922        23.000           2.469
  19842744.001    -4718099.836 8  -3626362.47023        30.750           2.938
 91  6 20 18 35 14.9970000  0  3G19G 6G 2
  22180549.017     5730890.507 6   4465620.59521        12.750           0.875
  20317538.868   -13995643.042 7 -10905692.80923        23.250           2.625
  19839670.837    -4734247.816 8  -3638945.31223        31.500           2.875
 91  6 20 18 35 29.9970000  0  3G19G 6G 2
  22185621.923     5757550.391 6   4486394.47421        12.500           0.750
  20311408.509   -14027848.173 7 -10930787.71023        23.250           2.531
  19836612.337    -4750323.399 8  -3651471.74423        31.250           2.813
 91  6 20 18 35 44.9970000  0  3G19G 6G 2
  22190700.001     5784271.270 5   4507215.88521        11.750           0.719
  20305294.103   -14059988.486 7 -10955832.10823        23.500           2.594
  19833568.313    -4766313.963 8  -3663931.92123        32.000           2.938
 91  6 20 18 35 59.9970000  0  3G19G 6G 2
  22195803.485     5811046.504 6   4528079.64721        12.250           0.813
  20299186.524   -14092070.268 7 -10980830.89323        23.500           2.656
  19830541.587    -4782226.110 8  -3676331.00523        31.750           2.906
 91  6 20 18 36 14.9970000  0  3G19G 6G 2
  22200905.970     5837876.796 6   4548986.33721        12.000           0.781
  20293094.446   -14124092.533 7 -11005783.31323        24.250           2.656
  19827527.688    -4798058.933 8  -3688668.26623        32.000           2.844
 91  6 20 18 36 29.9970000  0  3G19G 6G 2
  22206025.712     5864754.268 5   4569929.76621        11.500           0.750
  20287006.790   -14156063.052 7 -11030695.39423        23.250           2.625
  19824528.735    -4813820.509 8  -3700950.01923        31.750           2.813
 91  6 20 18 36 44.9970000  0  3G19G 6G 2
  22211143.009     5891690.959 6   4590919.34621        12.000           0.719
  20280940.415   -14187969.354 7 -11055557.43623        24.000           2.563
  19821543.251    -4829498.565 8  -3713166.68823        31.000           2.813
 91  6 20 18 36 59.9970000  0  3G19G 6G 2
  22216284.563     5918678.137 5   4611948.27921        11.750           0.813
  20274876.751   -14219820.271 7 -11080376.32523        23.750           2.656
  19818576.704    -4845101.907 8  -3725325.13923        31.500           2.813
 91  6 20 18 37 14.9970000  0  3G19G 6G 2
  22221432.720     5945722.394 6   4633021.66821        12.250           0.781
  20268826.485   -14251608.750 7 -11105146.55323        23.250           2.656
  19815621.376    -4860624.049 8  -3737420.31823        31.250           2.813
 91  6 20 18 37 29.9970000  0  3G19G 6G 2
  22226587.368     5972825.203 5   4654140.69721        11.500           0.781
  20262793.110   -14283333.295 7 -11129866.97323        24.000           2.656
  19812684.071    -4876063.507 8  -3749451.06823        32.000           2.750
 91  6 20 18 37 44.9970000  0  3G19G 6G 2
  22231756.407     5999986.458 5   4675305.27221        11.500           0.719
  20256766.360   -14314993.367 7 -11154537.14823        24.250           2.656
  19809763.712    -4891420.260 8  -3761417.37123        31.750           2.781
 91  6 20 18 37 59.9970000  0  3G19G 6G 2
  22236932.665     6027178.412 5   4696493.74121        11.500           0.750
  20250750.001   -14346616.864 7 -11179178.83023        24.500           2.781
  19806849.563    -4906722.035 8  -3773340.83323        31.000           2.875
 91  6 20 18 38 14.9970000  0  3G19G 6G 2
  22242106.743     6054418.816 5   4717720.00121        11.000           0.656
  20244741.313   -14378185.641 7 -11203777.86723        24.250           2.719
  19803951.579    -4921951.093 8  -3785207.63623        31.000           2.750
 91  6 20 18 38 29.9970000  0  3G19G 6G 2
  22247310.399     6081725.075 5   4738997.55521        11.250           0.719
  20238746.673   -14409681.917 7 -11228320.41623        23.250           2.719
  19801070.540    -4937089.880 8  -3797004.09723        30.750           2.813
 91  6 20 18 38 44.9970000  0  3G19G 6G 2
  22252514.001     6109086.912 5   4760318.41621        11.500           0.688
  20232763.946   -14441115.906 7 -11252814.41523        23.250           2.750
  19798204.274    -4952148.851 8  -3808738.36023        31.000           2.750
 91  6 20 18 38 59.9970000  0  3G19G 6G 2
  22257733.610     6136517.123 5   4781692.54921        10.750           0.781
  20226798.462   -14472474.660 7 -11277249.80423        23.750           2.813
  19795354.587    -4967115.255 8  -3820400.50023        30.250           2.781
 91  6 20 18 39 14.9970000  0  3G19G 6G 2
  22262966.556     6164012.969 5   4803117.83321        11.000           0.625
  20220845.118   -14503760.512 7 -11301628.38323        23.500           2.813
  19792524.892    -4981991.618 8  -3831992.47323        30.750           2.750
 91  6 20 18 39 29.9970000  0  3G19G 6G 2
  22268211.899     6191555.300 5   4824579.36821        10.500           0.688
  20214902.290   -14534992.453 7 -11325964.94923        23.000           2.750
  19789707.517    -4996797.207 8  -3843529.29823        31.250           2.781
 91  6 20 18 39 44.9970000  0  3G19G 6G 2
  22273458.876     6219156.527 5   4846086.75521        11.000           0.656
  20208970.454   -14566157.959 7 -11350249.75023        23.000           2.844
  19786908.743    -5011519.641 8  -3855001.32523        31.000           2.656
 91  6 20 18 39 59.9970000  0  3G19G 6G 2
  22278729.509     6246829.028 5   4867649.66721        10.750           0.563
  20203056.454   -14597244.260 7 -11374472.83723        23.000           2.750
  19784123.423    -5026146.499 8  -3866398.88023        30.750           2.844
 91  6 20 18 40 14.9970000  0  3G19G 6G 2
  22284003.634     6274545.028 5   4889246.51121        11.750           0.656
  20197151.501   -14628278.995 7 -11398655.73323        23.250           2.750
  19781353.157    -5040705.674 8  -3877743.69423        30.750           2.750
 91  6 20 18 40 29.9970000  0  3G19G 6G 2
  22289287.243     6302320.463 5   4910889.66721        10.500           0.594
  20191256.454   -14659245.834 7 -11422785.72923        22.750           2.781
  19778599.595    -5055181.215 8  -3889023.34223        31.000           2.688
 91  6 20 18 40 44.9970000  0  3G19G 6G 2
  22294577.345     6330134.935 5   4932563.22721        11.250           0.594
  20185373.040   -14690164.820 7 -11446878.43823        22.750           2.844
  19775855.032    -5069593.201 8  -3900253.46323        31.000           2.688
 91  6 20 18 40 59.9970000  0  3G19G 6G 2
  22299888.524     6358003.796 5   4954279.17521        10.750           0.719
  20179506.470   -14721020.561 7 -11470921.86323        23.500           2.844
  19773127.470    -5083926.423 8  -3911422.21323        30.500           2.594
 91  6 20 18 41 14.9970000  0  3G19G 6G 2
  22305194.657     6385936.919 5   4976045.20921        10.750           0.813
  20173644.353   -14751803.152 7 -11494908.29323        23.250           2.781
  19770417.579    -5098171.154 8  -3922522.00823        30.750           2.594
 91  6 20 18 41 29.9970000  0  3G19G 6G 2
  22310529.712     6413925.205 5   4997854.18821        10.750           0.625
  20167798.540   -14782520.979 7 -11518844.25823        23.500           2.781
  19767721.720    -5112336.275 8  -3933559.76823        30.250           2.594
 91  6 20 18 41 44.9970000  0  3G19G 6G 2
  22315861.470     6441975.539 5   5019711.54921        11.250           0.656
  20161967.595   -14813167.119 7 -11542724.35823        23.500           2.750
  19765044.704    -5126414.793 8  -3944530.03923        30.500           2.656
 91  6 20 18 41 59.9970000  0  3G19G 6G 2
  22321212.798     6470074.042 5   5041606.42621        11.250           0.656
  20156147.438   -14843755.267 7 -11566559.27523        24.000           2.719
  19762377.142    -5140420.688 8  -3955443.73123        30.000           2.656
 91  6 20 18 42 14.9970000  0  3G19G 6G 2
  22326566.634     6498213.041 5   5063532.88121        11.500           0.625
  20150335.220   -14874292.650 7 -11590354.62723        23.500           2.750
  19759726.142    -5154361.823 8  -3966306.95523        30.500           2.594
 91  6 20 18 42 29.9970000  0  3G19G 6G 2
  22331932.446     6526412.995 5   5085506.81021        11.500           0.688
  20144538.884   -14904758.786 7 -11614094.46223        24.000           2.688
  19757088.204    -5168217.560 8  -3977103.64223        30.250           2.688
 91  6 20 18 42 44.9970000  0  3G19G 6G 2
  22337306.493     6554673.293 5   5107527.78021        11.750           0.719
  20138754.423   -14935153.955 7 -11637778.99923        24.000           2.625
  19754470.876    -5181988.681 8  -3987834.38223        31.000           2.625
 91  6 20 18 42 59.9970000  0  3G19G 6G 2
  22342696.813     6582976.794 6   5129582.39721        12.000           0.688
  20132977.923   -14965495.114 7 -11661421.45423        23.750           2.656
  19751860.392    -5195692.035 8  -3998512.32423        30.500           2.656
 91  6 20 18 43 14.9970000  0  3G19G 6G 2
  22348085.290     6611332.863 5   5151677.99021        11.000           0.750
  20127218.634   -14995772.394 7 -11685014.13823        23.750           2.531
  19749267.556    -5209318.189 8  -4009130.11423        30.750           2.688
 91  6 20 18 43 29.9970000  0  3G19G 6G 2
  22353496.462     6639738.673 5   5173812.32921        10.500           0.750
  20121466.665   -15025988.417 7 -11708559.09123        23.000           2.563
  19746686.696    -5222869.963 8  -4019689.94123        30.750           2.531
 91  6 20 18 43 44.9970000  0  3G19G 6G 2
  22358908.813     6668200.387 5   5195990.24321        11.000           0.781
  20115730.907   -15056136.985 7 -11732051.47323        23.500           2.594
  19744125.751    -5236341.353 8  -4030187.12823        31.000           2.719
 91  6 20 18 43 59.9970000  0  3G19G 6G 2
  22364343.235     6696712.851 5   5218207.68221        10.750           0.719
  20110006.884   -15086223.048 7 -11755495.15723        23.500           2.594
  19741578.079    -5249737.636 8  -4040625.79623        31.000           2.656
 91  6 20 18 44 14.9970000  0  3G19G 6G 2
  22369772.001     6725275.217 5   5240464.04521        11.000           0.656
  20104293.235   -15116247.136 7 -11778890.53723        23.250           2.500
  19739042.149    -5263059.542 8  -4051006.50423        31.000           2.750
 91  6 20 18 44 29.9970000  0  3G19G 6G 2
  22375221.438     6753892.620 5   5262763.26521        10.750           0.781
  20098592.962   -15146203.750 7 -11802233.35223        23.500           2.656
  19736520.470    -5276301.959 8  -4061325.27023        30.500           2.750
 91  6 20 18 44 44.9970000  0  3G19G 6G 2
  22380673.603     6782569.422 5   5285108.76621        11.250           0.656
  20092906.524   -15176088.396 7 -11825520.08023        23.750           2.625
  19734016.470    -5289460.541 8  -4071578.71023        30.750           2.688
 91  6 20 18 44 59.9970000  0  3G19G 6G 2
  22386138.118     6811288.992 5   5307487.57721        10.250           0.688
  20087230.196   -15205917.274 7 -11848763.35823        23.750           2.625
  19731523.384    -5302551.693 8  -4081779.60823        30.750           2.719
 91  6 20 18 45 14.9970000  0  3G19G 6G 2
  22391616.407     6840065.975 5   5329911.15821        11.000           0.656
  20081564.423   -15235675.524 7 -11871951.60323        23.000           2.750
  19729051.009    -5315560.711 8  -4091916.50423        31.000           2.906
 91  6 20 18 45 29.9970000  0  3G19G 6G 2
  22397110.673     6868900.537 5   5352379.61921        10.500           0.688
  20075919.509   -15265362.829 7 -11895084.55423        23.750           2.719
  19726591.204    -5328487.550 8  -4101989.37223        30.500           2.875
 91  6 20 18 45 44.9970000  0  3G19G 6G 2
  22402601.649     6897787.280 5   5374888.69321        11.250           0.688
  20070281.149   -15294984.252 7 -11918166.18723        23.500           2.719
  19724143.274    -5341337.608 8  -4112002.40223        30.000           2.875
 91  6 20 18 45 59.9970000  0  3G19G 6G 2
  22408107.978     6926731.051 5   5397442.25021        10.500           0.781
  20064656.353   -15324534.706 7 -11941192.51123        23.750           2.688
  19721715.876    -5354106.044 8  -4121951.83523        30.000           2.719
 91  6 20 18 46 14.9970000  0  3G19G 6G 2
  22413628.774     6955734.311 5   5420042.14221        10.750           0.625
  20059047.017   -15354011.534 7 -11964161.46223        23.250           2.688
  19719300.142    -5366790.306 8  -4131835.67423        29.250           2.906
 91  6 20 18 46 29.9970000  0  3G19G 6G 2
  22419155.938     6984778.021 5   5442673.55021        10.000           0.750
  20053447.915   -15383433.429 7 -11987087.60623        23.250           2.688
  19716900.774    -5379409.473 8  -4141668.79523        29.750           2.813
 91  6 20 18 46 44.9970000  0  3G19G 6G 2
  22424694.181     7013869.821 5   5465342.43821        11.250           0.688
  20047861.446   -15412792.566 7 -12009964.85623        23.000           2.688
  19714512.813    -5391955.863 8  -4151445.20223        30.000           2.719
 91  6 20 18 46 59.9970000  0  3G19G 6G 2
  22430234.634     7043012.354 5   5488050.84021        10.750           0.656
  20042289.915   -15442086.032 7 -12032790.92523        23.750           2.625
  19712140.681    -5404426.761 8  -4161162.78523        30.000           2.844
 91  6 20 18 47 14.9970000  0  3G19G 6G 2
  22435789.337     7072201.574 5   5510795.64321        11.500           0.625
  20036726.087   -15471317.548 7 -12055568.72323        23.250           2.750
  19709779.032    -5416826.204 8  -4170824.68723        30.500           2.813
 91  6 20 18 47 29.9970000  0  3G19G 6G 2
  22441354.712     7101432.517 5   5533572.94021        10.500           0.656
  20031177.868   -15500491.883 7 -12078301.97423        23.500           2.594
  19707433.376    -5429159.224 8  -4180434.83423        30.250           2.906
 91  6 20 18 47 44.9970000  0  3G19G 6G 2
  22446924.821     7130717.072 5   5556392.03021        11.000           0.594
  20025635.767   -15529596.881 7 -12100981.18723        23.250           2.781
  19705100.345    -5441414.155 8  -4189984.12223        30.250           2.844
 91  6 20 18 47 59.9970000  0  3G19G 6G 2
  22452508.868     7160039.697 5   5579240.78021        11.000           0.625
  20020107.876   -15558647.804 7 -12123618.26223        23.250           2.750
  19702781.431    -5453606.273 8  -4199484.47523        30.000           2.844
 91  6 20 18 48 14.9970000  0  3G19G 6G 2
  22458096.079     7189409.191 5   5602126.03821        11.000           0.531
  20014590.970   -15587635.608 7 -12146206.16223        23.500           2.688
  19700474.157    -5465726.662 8  -4208928.93323        30.000           2.781
 91  6 20 18 48 29.9970000  0  3G19G 6G 2
  22463695.509     7218825.580 5   5625047.84421        10.500           0.531
  20009088.978   -15616559.827 7 -12168744.50523        23.500           2.750
  19698182.681    -5477775.254 8  -4218317.44323        30.000           2.813
 91  6 20 18 48 44.9970000  0  3G19G 6G 2
  22469296.587     7248282.856 5   5648001.52321        11.000           0.531
  20003594.353   -15645426.303 7 -12191237.85823        23.750           2.781
  19695898.579    -5489758.078 8  -4227654.70923        29.500           3.000
 91  6 20 18 48 59.9970000  0  3G19G 6G 2
  22474915.243     7277790.393 5   5670994.35421         9.000           0.625
  19998114.587   -15674225.599 7 -12213678.86323        23.250           2.719
  19693636.931    -5501665.865 8  -4236933.50623        30.500           2.906
 91  6 20 18 49 14.9970000  0  3G19G 6G 2
  22480538.751     7307359.024 5   5694034.78021        11.000           0.594
  19992646.946   -15702946.570 7 -12236058.83323        22.750           2.813
  19691385.290    -5513487.703 8  -4246145.33123        30.250           2.906
 91  6 20 18 49 29.9970000  0  3G19G 6G 2
  22486179.298     7336976.469 5   5717113.25621        10.500           0.594
  19987194.485   -15731601.080 7 -12258387.02123        22.500           3.000
  19689151.438    -5525235.815 8  -4255299.70423        30.750           2.844
 91  6 20 18 49 44.9970000  0  3G19G 6G 2
  22491821.876     7366636.041 5   5740224.57121        10.250           0.469
  19981754.532   -15760195.702 7 -12280668.53523        23.000           2.906
  19686927.259    -5536917.118 8  -4264402.01523        30.500           2.844
 91  6 20 18 49 59.9970000  0  3G19G 6G 2
  22497471.438     7396325.158 5   5763358.89321        10.500           0.594
  19976322.407   -15788742.636 7 -12302912.89123        23.000           2.938
  19684715.228    -5548543.710 8  -4273461.70323        30.750           2.781
 91  6 20 18 50 14.9970000  0  3G19G 6G 2
  22503129.985     7426074.194 5   5786539.91321        10.500           0.563
  19970904.181   -15817211.286 7 -12325096.25423        22.750           2.938
  19682519.845    -5560085.372 8  -4282455.20623        31.000           2.906
 91  6 20 18 50 29.9970000  0  3G19G 6G 2
  22508802.954     7455864.803 5   5809753.29721        10.750           0.531
  19965498.978   -15845619.612 7 -12347232.59823        22.750           2.906
  19680333.821    -5571560.463 8  -4291396.83423        30.250           2.844
 91  6 20 18 50 44.9970000  0  3G19G 6G 2
  22514476.782     7485699.125 5   5833000.78121        11.000           0.500
  19960102.462   -15873965.211 7 -12369320.07223        22.750           2.781
  19678163.212    -5582966.784 8  -4300284.87223        30.500           2.813
 91  6 20 18 50 59.9970000  0  3G19G 6G 2
  22520166.876     7515574.154 5   5856279.97621         9.750           0.469
  19954722.688   -15902250.998 7 -12391360.93923        23.250           2.875
  19676006.610    -5594307.582 8  -4309121.85623        30.500           2.813
 91  6 20 18 51 14.9970000  0  3G19G 6G 2
  22525860.595     7545500.748 5   5879599.35321        10.500           0.531
  19949352.353   -15930465.810 7 -12413346.49623        23.000           2.719
  19673863.071    -5605571.728 8  -4317899.10923        30.750           2.875
 91  6 20 18 51 29.9970000  0  4G19G13G 6G 2
  22531557.173     7575471.235 5   5902952.92121         9.250           0.531
  23248159.329          -0.95014                         6.750
  19943994.368   -15958616.895 7 -12435282.40323        22.750           2.844
  19671733.353    -5616766.622 8  -4326622.40723        31.000           2.844
 91  6 20 18 51 44.9970000  0  4G19G13G 6G 2
  22537270.938     7605509.969 5   5926359.66121         9.750           0.469
  23234148.579      -73607.583 4                         6.750
  19938653.603   -15986679.706 7 -12457149.52023        22.750           2.781
  19669621.743    -5627868.193 8  -4335272.98023        31.000           2.844
 91  6 20 18 51 59.9970000  0  4G19G13G 6G 2
  22543001.118     7635589.926 5   5949798.55421         9.250           0.469
  23220147.407     -147197.011 5                         7.750
  19933324.337   -16014681.039 7 -12478968.73223        22.750           2.719
  19667520.993    -5638903.503 8  -4343871.92523        30.500           2.844
 91  6 20 18 52 14.9970000  0  4G19G13G 6G 2
  22548736.103     7665726.557 5   5973281.58421        10.500           0.406
  23206151.329     -220753.252 5                         7.750
  19928014.103   -16042605.188 7 -12500727.80823        23.250           2.688
  19665434.978    -5649857.089 8  -4352407.18823        30.000           2.844
 91  6 20 18 52 29.9970000  0  4G19G13G 6G 2
  22554479.290     7695910.547 5   5996801.53521         9.250           0.469
  23192155.907     -294284.996 5                         7.500
  19922713.688   -16070461.043 7 -12522433.65923        23.250           2.719
  19663365.157    -5660737.982 8  -4360885.80923        30.750           2.781
 91  6 20 18 52 44.9970000  0  4G19G13G 6G 2
  22560230.259     7726131.393 5   6020350.18421        10.000           0.406
  23178171.321     -367802.643 4        -0.12031         7.000           0.156
  19917423.931   -16098259.135 7 -12544094.50523        23.250           2.719
  19661306.204    -5671556.954 8  -4369316.17623        30.250           2.750
 91  6 20 18 52 59.9970000  0  4G19G13G 6G 2
  22565990.282     7756390.579 5   6043928.71421        10.000           0.438
  23164181.907     -441304.253 5    -57273.97121         7.500           0.125
  19912144.282   -16125997.429 7 -12565708.75623        22.750           2.688
  19659258.188    -5682312.343 8  -4377697.00523        30.000           2.844
 91  6 20 18 53 14.9970000  0  4G19G13G 6G 2
  22571758.399     7786703.229 5   6067548.91521         9.750           0.563
  23150202.774     -514773.751 5   -114522.86921         8.750           0.188
  19906881.524   -16153660.457 7 -12587264.35323        23.000           2.656
  19657228.228    -5692989.048 8  -4386016.51623        30.250           2.844
 91  6 20 18 53 29.9970000  0  4G19G13G 6G 2
  22577539.571     7817059.978 5   6091203.46321         9.250           0.438
  23136222.524     -588220.154 5   -171753.78021         8.250           0.188
  19901627.337   -16181257.356 7 -12608768.42323        22.500           2.781
  19655207.415    -5703596.221 8  -4394281.84723        30.250           2.875
 91  6 20 18 53 44.9970000  0  4G19G13G 6G 2
  22583320.196     7847459.176 5   6114891.11121        10.000           0.438
  23122250.118     -661644.906 5   -228967.75821         8.750           0.188
  19896388.329   -16208789.737 7 -12630222.21723        22.750           2.688
  19653205.493    -5714135.695 8  -4402494.42923        30.500           2.906
 91  6 20 18 53 59.9970000  0  4G19G13G 6G 2
  22589113.860     7877908.237 5   6138617.59521         9.250           0.469
  23108276.157     -735039.945 5   -286158.64021         8.000           0.156
  19891164.157   -16236249.793 7 -12651619.65723        23.500           2.688
  19651213.509    -5724599.994 8  -4410648.42923        30.250           2.875
 91  6 20 18 54 14.9970000  0  5G19G13G15G 6G 2
  22594913.837     7908403.217 5   6162379.85421        10.000           0.531
  23094318.415     -808408.737 5   -343329.00921         8.500           0.156
  23335994.017      -36882.428 5                         9.250
  19885951.345   -16263641.123 7 -12672963.54323        23.000           2.656
  19649235.087    -5734993.126 8  -4418746.98123        30.250           2.875
 91  6 20 18 54 29.9970000  0  5G19G13G15G 6G 2
  22600725.134     7938936.736 5   6186172.14721         8.750           0.313
  23080357.806     -881758.252 5   -400484.45121         8.500           0.125
  23328980.704      -73670.188 5                         8.000
  19880748.384   -16290970.868 7 -12694259.44223        22.750           2.531
  19647269.665    -5745322.326 8  -4426795.70723        30.500           2.844
 91  6 20 18 54 44.9970000  0  5G19G13G15G 6G 2
  22606546.188     7969514.091 5   6209998.62521        10.000           0.469
  23066415.220     -955082.659 5   -457620.20021         8.750           0.094
  23322010.329     -110358.321 5                         8.500
  19875564.181   -16318233.481 7 -12715503.02723        23.000           2.625
  19645317.142    -5755582.303 8  -4434790.50323        30.500           2.844
 91  6 20 18 54 59.9970000  0  5G19G13G15G 6G 2
  22612376.524     8000127.424 5   6233853.12721         9.500           0.438
  23052461.954    -1028389.657 5   -514742.48421         9.250           0.031
  23315041.735     -146953.993 5                         8.500
  19870385.665   -16345436.497 7 -12736700.17523        22.750           2.500
  19643375.493    -5765780.782 8  -4442737.37323        30.250           2.875
 91  6 20 18 55 14.9970000  0  5G19G13G15G 6G 2
  22618208.688     8030788.194 5   6257744.57221         8.750           0.438
  23038520.462    -1101667.051 5   -571841.69121         9.750           0.063
  23308101.946     -183445.171 5        -0.07331         9.500           0.281
  19865222.392   -16372568.196 7 -12757841.75322        22.500           2.438
  19641449.673    -5775906.211 8  -4450627.32123        30.750           2.875
 91  6 20 18 55 29.9970000  0  5G19G13G15G 6G 2
  22624045.743     8061483.682 5   6281663.05421         9.000           0.469
  23024572.813    -1174927.203 5   -628927.44021         8.500           0.188
  23301174.751     -219844.758 5    -28363.33921         8.750           0.406
  19860072.696   -16399641.221 7 -12778937.60923        23.500           2.500
  19639533.563    -5785971.531 8  -4458470.43423        30.500           2.938
 91  6 20 18 55 44.9970000  0  5G19G13G15G 6G 2
  22629897.438     8092234.386 5   6305624.61621         9.750           0.281
  23010643.017    -1248148.871 5   -685983.19321         9.250           0.125
  23294265.040     -256131.455 5    -56638.68021         8.500           0.500
  19854936.157   -16426634.551 7 -12799971.37523        23.500           2.500
  19637633.938    -5795955.986 8  -4466250.53323        30.000           3.031
 91  6 20 18 55 59.9970000  0  5G19G13G15G 6G 2
  22635767.798     8123032.108 5   6329622.80621         8.750           0.406
  22996712.509    -1321339.984 5   -743015.15521         7.750           0.188
  23287379.149     -292313.068 5    -84832.14121         9.250           0.375
  19849812.462   -16453556.205 7 -12820949.28123        23.500           2.563
  19635748.798    -5805867.859 8  -4473974.07523        30.250           2.844
 91  6 20 18 56 14.9970000  0  5G19G13G15G 6G 2
  22641628.142     8153876.331 5   6353657.18921         9.000           0.438
  22982782.368    -1394500.698 4   -800023.35421         7.250           0.094
  23280522.563     -328389.609 5   -112943.72921         9.250           0.375
  19844702.384   -16480406.403 7 -12841871.50123        24.000           2.656
  19633873.993    -5815707.671 8  -4481641.46823        29.750           2.875
 91  6 20 18 56 29.9970000  0  5G19G13G15G 6G 2
  22647512.915     8184761.052 5   6377723.13221         9.000           0.469
  22968870.915    -1467636.337 4   -857012.07821         7.000           0.156
  23273669.501     -364366.840 5   -140977.92521         9.000           0.469
  19839606.946   -16507190.852 7 -12862742.50223        23.500           2.531
  19632015.603    -5825481.486 8  -4489257.43323        30.250           2.813
 91  6 20 18 56 44.9970000  0  5G19G13G15G 6G 2
  22653395.087     8215692.425 5   6401825.45821        10.000           0.406
  22954961.181    -1540740.502 5   -913976.27521         7.750           0.188
  23266847.478     -400238.156 5   -168929.60421         9.750           0.469
  19834521.173   -16533903.223 7 -12883557.32723        22.750           2.594
  19630170.399    -5835183.156 8  -4496817.17523        30.250           2.938
 91  6 20 18 56 59.9970000  0  5G19G13G15G 6G 2
  22659289.728     8246673.239 5   6425966.30121         8.750           0.406
  22941059.642    -1613809.732 5   -970913.21521         7.500           0.094
  23260043.673     -436000.227 5   -196796.12321        10.250           0.563
  19829451.110   -16560540.268 7 -12904313.45823        23.250           2.656
  19628338.235    -5844809.561 8  -4504318.27423        30.000           2.906
 91  6 20 18 57 14.9970000  0  5G19G13G15G 6G 2
  22665192.431     8277704.872 5   6450146.72521         9.250           0.438
  22927159.087    -1686842.283 4  -1027821.62621         7.250           0.094
  23253250.696     -471651.574 5   -224576.37821         8.500           0.469
  19824398.157   -16587100.418 7 -12925009.67923        23.250           2.719
  19626521.524    -5854359.480 8  -4511759.77423        30.500           2.969
 91  6 20 18 57 29.9970000  0  5G19G13G15G 6G 2
  22671110.517     8308802.320 5   6474378.44121         9.250           0.469
  22913277.454    -1759822.364 5  -1084689.09421         8.750           0.125
  23246499.540     -507176.473 5   -252258.11021         9.250           0.438
  19819361.993   -16613568.304 7 -12945633.99923        23.250           2.781
  19624722.001    -5863817.891 8  -4519129.96623        30.250           2.906
 91  6 20 18 57 44.9970000  0  5G19G13G15G 6G 2
  22677043.556     8339939.925 5   6498641.45521        10.500           0.469
  22899387.446    -1832775.609 4  -1141535.65821         7.250           0.188
  23239753.915     -542600.375 5   -279861.12121         8.750           0.406
  19814338.228   -16639969.487 7 -12966206.34723        23.000           2.625
  19622933.063    -5873210.476 8  -4526448.86923        29.750           2.969
 91  6 20 18 57 59.9970000  0  5G19G13G15G 6G 2
  22682977.392     8371128.834 5   6522944.42121         9.250           0.469
  22885511.368    -1905690.236 5  -1198352.15621         8.000           0.156
  23233036.993     -577911.893 5   -307376.61921         9.750           0.469
  19809328.368   -16666292.600 7 -12986717.85523        23.250           2.656
  19621161.048    -5882526.144 8  -4533707.83423        29.750           3.031
 91  6 20 18 58 14.9970000  0  5G19G13G15G 6G 2
  22688907.423     8402364.988 5   6547284.24221         9.000           0.438
  22871642.165    -1978569.961 5  -1255141.43321         8.250           0.219
  23226335.618     -613114.783 5   -334807.39721         8.750           0.375
  19804334.837   -16692541.303 7 -13007171.39023        24.250           2.719
  19619401.313    -5891768.919 8  -4540910.00523        29.750           3.031
 91  6 20 18 58 29.9970000  0  5G19G13G15G 6G 2
  22694866.493     8433636.964 5   6571651.95621         9.500           0.469
  22857781.298    -2051425.518 5  -1311911.90621         8.250           0.156
  23219649.485     -648219.680 5   -362161.85221         8.750           0.375
  19799352.618   -16718726.574 7 -13027575.49523        24.000           2.719
  19617654.142    -5900950.144 8  -4548064.21323        29.500           3.063
 91  6 20 18 58 44.9970000  0  5G19G13G15G 6G 2
  22700825.392     8464973.976 5   6596070.34321         9.750           0.469
  22843926.360    -2124227.131 5  -1368640.31721         9.000           0.156
  23212998.540     -683196.988 5   -389416.89821         9.000           0.406
  19794386.188   -16744818.957 7 -13047907.21423        24.250           2.813
  19615923.985    -5910040.433 8  -4555147.56123        29.750           3.188
 91  6 20 18 58 59.9970000  0  5G19G13G15G 6G 2
  22706808.290     8496354.519 5   6620522.66421         9.000           0.469
  22830077.657    -2196996.004 5  -1425343.24221         9.250           0.219
  23206362.399     -718068.138 5   -416589.20421         9.250           0.406
  19789436.360   -16770839.799 7 -13068183.19623        24.000           2.719
  19614208.282    -5919061.475 8  -4562176.94923        29.500           3.219
 91  6 20 18 59 14.9970000  0  5G19G13G15G 6G 2
  22712785.001     8527781.591 5   6645011.21321         9.750           0.375
  22816234.587    -2269728.567 5  -1482017.83421         9.500           0.281
  23199749.868     -752829.245 5   -443675.76221         9.500           0.406
  19784496.985   -16796785.760 7 -13088400.81923        23.500           2.656
  19612506.087    -5928009.944 8  -4569149.78823        30.000           3.250
 91  6 20 18 59 29.9970000  0  5G19G13G15G 6G 2
  22718772.774     8559248.163 5   6669530.59121         9.000           0.344
  22802406.743    -2342431.298 5  -1538669.25221        10.250           0.313
  23193151.438     -787487.105 5   -470681.87921         9.250           0.438
  19779573.079   -16822663.425 7 -13108565.23223        23.750           2.594
  19610813.274    -5936892.753 8  -4576071.46523        29.750           3.156
 91  6 20 18 59 44.9970000  0  5G19G13G15G 6G 2
  22724766.548     8590769.367 5   6694092.48821         8.750           0.344
  22788579.220    -2415088.701 5  -1595285.28021        10.500           0.250
  23186579.290     -822026.036 5   -497595.30721        10.250           0.500
  19774665.423   -16848457.522 7 -13128664.52323        23.750           2.625
  19609140.032    -5945694.996 8  -4582930.36223        30.250           3.281
 91  6 20 18 59 59.9970000  0  5G19G13G15G 6G 2
  22730771.829     8622323.031 5   6718679.71621         9.000           0.469
  22774759.267    -2487722.375 5  -1651882.83721        10.250           0.281
  23180030.556     -856467.993 5   -524433.18721        10.000           0.500
  19769767.938   -16874189.868 7 -13148715.69723        24.000           2.656
  19607475.657    -5954438.635 8  -4589743.59323        30.000           3.188
 91  6 20 19  0 14.9970000  0  5G19G13G15G 6G 2
  22736788.899     8653932.033 5   6743310.04621         9.000           0.375
  22760946.415    -2560308.910 5  -1708443.65821         9.750           0.156
  23173492.923     -890789.742 5   -551177.39821        10.250           0.438
  19764889.079   -16899837.216 7 -13168700.64023        24.000           2.594
  19605827.915    -5963100.577 8  -4596493.16523        30.500           3.125
 91  6 20 19  0 29.9970000  0  5G19G13G15G 6G 2
  22742809.931     8685580.041 5   6767970.77721         7.750           0.250
  22747135.626    -2632864.261 5  -1764980.18921         9.000           0.250
  23166982.563     -925007.091 5   -577840.25121         9.250           0.500
  19760019.235   -16925415.733 7 -13188631.95223        23.500           2.563
  19604192.181    -5971697.368 8  -4603191.96423        30.750           3.156
 91  6 20 19  0 44.9970000  0  5G19G13G15G 6G 2
  22748834.017     8717266.872 5   6792661.73621         9.250           0.438
  22733336.337    -2705388.228 5  -1821492.29621         9.250           0.156
  23160492.595     -959120.199 5   -604421.87021         8.250           0.344
  19755164.524   -16950925.318 7 -13208509.54323        23.500           2.625
  19602570.243    -5980229.197 8  -4609840.14823        30.750           3.219
 91  6 20 19  0 59.9970000  0  5G19G13G15G 6G 2
  22754878.626     8748999.392 5   6817388.32021         9.500           0.344
  22719545.603    -2777873.444 5  -1877974.17921         9.000           0.125
  23154019.517     -993121.838 5   -630916.64321         9.500           0.406
  19750325.157   -16976358.986 7 -13228327.98623        23.500           2.594
  19600957.892    -5988689.214 8  -4616432.37523        30.000           3.188
 91  6 20 19  1 14.9970000  0  5G19G13G15G 6G 2
  22760930.157     8780786.075 5   6842157.11521        10.000           0.438
  22705757.962    -2850310.991 5  -1934418.91121         9.000           0.156
  23147575.774    -1027003.273 5   -657317.74721         9.250           0.500
  19745502.548   -17001707.856 7 -13248080.35223        23.750           2.594
  19599362.368    -5997068.961 8  -4622962.05023        29.750           3.063
 91  6 20 19  1 29.9970000  0  5G19G13G15G 6G 2
  22766991.712     8812621.500 5   6866963.88321         8.750           0.469
  22691986.806    -2922705.626 5  -1990830.21221         9.250           0.063
  23141145.751    -1060769.054 5   -683628.74121         9.000           0.313
  19740694.329   -17026977.016 7 -13267770.60523        23.750           2.531
  19597784.048    -6005373.787 8  -4629433.34223        30.000           3.125
 91  6 20 19  1 44.9970000  0  5G19G13G15G 6G 2
  22773050.157     8844497.290 5   6891802.09121         8.750           0.344
  22678214.892    -2995065.446 5  -2047214.40021         9.000           0.125
  23134750.040    -1094427.283 5   -709855.92121        10.250           0.406
  19735897.618   -17052174.574 7 -13287405.06523        23.500           2.531
  19596214.970    -6013611.781 8  -4635852.56323        30.250           3.031
 91  6 20 19  1 59.9970000  0  5G19G13G15G 6G 2
  22779130.704     8876418.842 5   6916675.95121         8.000           0.313
  22664452.267    -3067384.503 5  -2103566.77621         8.250           0.219
  23128360.454    -1127972.120 5   -735994.71921        10.250           0.438
  19731116.313   -17077294.975 7 -13306979.40023        23.250           2.594
  19594662.290    -6021777.731 8  -4642215.64823        30.750           3.094
 91  6 20 19  2 14.9970000  0  5G19G13G15G 6G 2
  22785210.712     8908393.288 5   6941591.03821         9.000           0.406
  22650697.204    -3139654.932 5  -2159881.30821         7.750           0.250
  23122003.470    -1161396.036 5   -762039.33521         9.750           0.406
  19726352.267   -17102330.539 7 -13326487.63123        23.250           2.563
  19593123.329    -6029864.374 8  -4648516.92823        31.000           3.031
 91  6 20 19  2 29.9970000  0  5G19G13G15G 6G 2
  22791307.446     8940422.220 5   6966548.60921         8.750           0.438
  22636950.212    -3211875.038 5  -2216156.62021         8.250           0.250
  23115665.267    -1194697.255 5   -787988.33021         9.750           0.281
  19721606.470   -17127279.560 7 -13345928.42323        23.500           2.500
  19591600.142    -6037870.335 8  -4654755.34723        30.750           3.031
 91  6 20 19  2 44.9970000  0  5G19G13G15G 6G 2
  22797408.845     8972507.523 5   6991550.07821         8.750           0.406
  22623219.306    -3284042.152 5  -2272390.66821         9.250           0.188
  23109347.946    -1227873.365 5   -813839.82521         9.750           0.469
  19716872.946   -17152139.703 7 -13365299.96623        22.750           2.500
  19590091.228    -6045793.474 8  -4660929.22923        30.250           2.969
 91  6 20 19  2 59.9970000  0  5G19G13G15G 6G 2
  22803524.540     9004637.895 5   7016586.65521         8.000           0.438
  22609497.790    -3356167.254 5  -2328591.94421         9.500           0.156
  23103064.610    -1260935.200 5   -839602.27621         9.750           0.469
  19712158.829   -17176922.064 7 -13384610.89423        23.500           2.563
  19588597.103    -6053645.043 8  -4667047.34223        30.000           2.938
 91  6 20 19  3 14.9970000  0  5G19G13G15G 6G 2
  22809645.962     9036813.476 5   7041658.45421         8.000           0.250
  22595782.251    -3428249.876 5  -2384760.14821        10.500           0.219
  23096786.813    -1293882.178 5   -865275.24421         9.250           0.469
  19707459.329   -17201626.267 7 -13403860.92222        23.500           2.469
  19587116.751    -6061424.906 8  -4673109.57223        30.000           2.969
 91  6 20 19  3 29.9970000  0  5G19G13G15G 6G 2
  22815776.728     9069022.246 5   7066756.14821         7.750           0.188
  22582069.462    -3500301.463 5  -2440904.14021        10.250           0.281
  23090541.423    -1326725.940 5   -890867.78621         9.500           0.469
  19702772.493   -17226263.906 7 -13423059.07622        23.750           2.469
  19585646.813    -6069144.975 8  -4679125.21323        29.500           2.969
 91  6 20 19  3 44.9970000  0  5G19G13G15G 6G 2
  22821908.681     9101265.613 5   7091880.79221         9.000           0.313
  22568369.673    -3572320.039 5  -2497022.40921        10.500           0.156
  23084311.517    -1359464.820 5   -916378.57721         8.750           0.406
  19698097.423   -17250833.370 7 -13442204.11823        24.250           2.500
  19584189.423    -6076803.808 8  -4685093.13523        29.250           2.969
 91  6 20 19  3 59.9970000  0  5G19G13G15G 6G 2
  22828056.384     9133563.046 4   7117047.57421         7.250           0.313
  22554665.470    -3644285.647 5  -2553099.43021        10.000           0.188
  23078101.993    -1392079.013 5   -941792.22721         9.500           0.406
  19693437.876   -17275314.894 7 -13461280.62922        23.750           2.469
  19582747.743    -6084381.885 8  -4690998.13723        29.250           2.969
 91  6 20 19  4 14.9970000  0  5G19G13G15G 6G 2
  22834213.587     9165912.701 5   7142255.01321         7.500           0.219
  22540982.056    -3716199.535 5  -2609136.11221        10.500           0.219
  23071917.235    -1424569.796 5   -967109.72321         9.750           0.344
  19688794.478   -17299709.924 7 -13480289.74223        23.750           2.500
  19581320.954    -6091880.912 8  -4696841.54323        29.500           3.000
 91  6 20 19  4 29.9970000  0  5G19G13G15G 6G 2
  22840381.681     9198292.691 5   7167486.11321         8.000           0.313
  22527303.798    -3788083.175 5  -2665149.28221        10.500           0.219
  23065761.720    -1456958.669 5   -992347.79921        10.250           0.469
  19684164.798   -17324040.067 7 -13499248.29023        23.750           2.594
  19579905.579    -6099322.764 8  -4702640.39423        29.500           2.906
 91  6 20 19  4 44.9970000  0  5G19G13G15G 6G 2
  22846547.415     9230711.663 5   7192747.58321         8.750           0.344
  22513632.345    -3859927.512 5  -2721131.84521        10.500           0.219
  23059609.188    -1489236.920 5  -1017499.65121         9.750           0.375
  19679549.001   -17348296.521 7 -13518149.42823        23.500           2.625
  19578499.774    -6106698.928 8  -4708388.06223        30.000           3.031
 91  6 20 19  4 59.9970000  0  5G19G13G15G 6G 2
  22852721.071     9263171.873 4   7218041.23421         6.750           0.438
  22499973.837    -3931729.866 5  -2777081.59421        10.500           0.156
  23053499.438    -1521401.836 5  -1042563.24021        11.250           0.406
  19674946.571   -17372476.689 7 -13536991.12123        23.000           2.531
  19577111.524    -6114007.081 8  -4714082.73023        30.250           3.031
 91  6 20 19  5 14.9970000  0  5G19G13G15G 6G 2
  22858906.095     9295676.124 5   7243369.11121         7.750           0.313
  22486318.188    -4003486.805 5  -2832996.02821         9.750           0.250
  23047392.173    -1553450.131 5  -1067535.90821        11.000           0.344
  19670359.235   -17396577.543 7 -13555771.00323        23.250           2.563
  19575734.048    -6121244.310 8  -4719722.13223        30.250           3.000
 91  6 20 19  5 29.9970000  0  5G19G13G15G 6G 2
  22865105.767     9328222.465 5   7268729.81921         8.000           0.313
  22472671.509    -4075199.644 5  -2888876.07321         9.750           0.219
  23041323.774    -1585382.966 5  -1092418.63621        11.000           0.500
  19665790.017   -17420600.445 7 -13574490.15122        23.500           2.469
  19574369.946    -6128412.205 8  -4725307.50723        30.500           2.844
 91  6 20 19  5 44.9970000  0  5G19G13G15G 6G 2
  22871308.282     9360815.778 5   7294127.17021         8.250           0.281
  22459022.399    -4146863.106 5  -2944717.64221         8.500           0.250
  23035267.782    -1617195.591 5  -1117207.68821        11.500           0.469
  19661231.251   -17444540.318 7 -13593144.59623        22.750           2.563
  19573018.024    -6135506.314 8  -4730835.38523        30.750           2.938
 91  6 20 19  5 59.9970000  0  5G19G13G15G 6G 2
  22877514.563     9393453.027 4   7319558.70621         6.750           0.250
  22445397.579    -4218479.932 5  -3000522.88621         9.000           0.281
  23029236.454    -1648890.781 5  -1141905.22521        10.500           0.438
  19656691.149   -17468400.147 7 -13611736.66623        22.500           2.594
  19571686.001    -6142529.702 8  -4736308.15723        31.500           2.969
 91  6 20 19  6 14.9960000  0  5G19G13G15G 6G 2
  22883732.324     9426144.861 5   7345032.81821         8.500           0.313
  22431792.926    -4290031.945 5  -3056277.62321         9.500           0.219
  23023225.879    -1680452.932 5  -1166499.10821        10.500           0.438
  19652170.832   -17492165.098 7 -13630254.81222        23.000           2.469
  19570363.840    -6149468.791 8  -4741715.24823        31.000           2.906
 91  6 20 19  6 29.9960000  0  5G19G13G15G 6G 2
  22889962.074     9458872.328 4   7370534.66421         7.250           0.406
  22418179.285    -4361551.675 5  -3112007.22221        10.000           0.250
  23017240.238    -1711909.302 5  -1191010.53321         9.000           0.500
  19647659.168   -17515861.296 7 -13648719.37623        23.000           2.531
  19569052.902    -6156347.766 8  -4747075.48723        30.750           2.969
 91  6 20 19  6 44.9960000  0  5G19G13G15G 6G 2
  22896207.199     9491644.146 5   7396071.09321         8.750           0.344
  22404575.293    -4433022.783 5  -3167698.92121         9.250           0.281
  23011278.512    -1743246.433 5  -1215429.09021         9.250           0.375
  19643167.504   -17539476.002 7 -13667120.44223        23.250           2.500
  19567758.113    -6163155.395 8  -4752380.13823        31.250           2.969
 91  6 20 19  6 59.9960000  0  5G19G13G15G 6G 2
  22902453.270     9524462.957 5   7421644.12821         8.500           0.469
  22390986.856    -4504442.144 5  -3223350.29321         9.000           0.125
  23005341.574    -1774461.318 5  -1239752.37821        11.000           0.469
  19638689.184   -17563006.273 7 -13685455.72123        23.000           2.531
  19566476.090    -6169888.774 8  -4757626.93423        30.750           2.875
 91  6 20 19  7 14.9960000  0  5G19G13G15G 6G 2
  22908697.246     9557315.869 5   7447243.73621         9.000           0.438
  22377403.262    -4575822.368 5  -3278971.18821         9.000           0.188
  22999419.113    -1805566.526 5  -1263990.19021        10.250           0.438
  19634225.887   -17586464.674 7 -13703734.99723        22.750           2.500
  19565209.051    -6176560.917 8  -4762826.01323        31.250           3.000
 91  6 20 19  7 29.9960000  0  5G19G13G15G 6G 2
  22914961.043     9590221.913 5   7472884.75421         8.500           0.344
  22363828.020    -4647143.871 5  -3334546.31621         9.500           0.250
  22993523.754    -1836542.676 5  -1288127.44721        10.250           0.344
  19629780.238   -17609831.894 7 -13721943.21323        23.250           2.500
  19563950.410    -6183152.628 8  -4767962.41923        30.250           2.906
 91  6 20 19  7 44.9960000  0  5G19G13G15G 6G 2
  22921225.824     9623177.860 5   7498564.62621         8.250           0.438
  22350264.613    -4718409.429 5  -3390077.85221         9.000           0.188
  22987660.027    -1867392.746 5  -1312166.46921        11.750           0.406
  19625350.949   -17633110.996 7 -13740082.77523        23.750           2.500
  19562714.176    -6189667.292 8  -4773038.78623        30.500           2.938
 91  6 20 19  7 59.9960000  0  5G19G13G15G 6G 2
  22927512.520     9656182.819 5   7524282.71521         8.500           0.594
  22336719.512    -4789619.342 5  -3445566.01421        10.750           0.188
  22981811.473    -1898116.969 5  -1336107.39221        11.000           0.500
  19620937.465   -17656302.403 7 -13758154.00622        24.000           2.469
  19561488.020    -6196105.635 8  -4778055.68123        30.000           2.938
 91  6 20 19  8 14.9960000  0  5G19G13G15G 6G 2
  22933793.051     9689233.989 5   7550036.79821         7.750           0.469
  22323174.473    -4860775.753 5  -3501012.54421        10.000           0.250
  22975983.293    -1928718.165 5  -1359952.48521        11.000           0.313
  19616540.152   -17679408.714 7 -13776158.92323        24.000           2.500
  19560278.473    -6202470.462 8  -4783015.29323        30.250           2.938
 91  6 20 19  8 29.9960000  0  5G19G13G15G 6G 2
  22940104.301     9722340.564 5   7575834.06021         8.000           0.531
  22309646.090    -4931868.972 5  -3556409.78121        10.250           0.219
  22970188.746    -1959186.324 5  -1383693.90721        11.250           0.406
  19612161.520   -17702420.336 7 -13794090.05623        23.500           2.500
  19559081.129    -6208752.414 8  -4787910.32623        30.000           2.844
 91  6 20 19  8 44.9960000  0  5G19G13G15G 6G 2
  22946397.590     9755471.869 5   7601650.60321         8.000           0.625
  22296125.910    -5002929.378 5  -3611781.48421        10.500           0.156
  22964408.996    -1989551.775 5  -1407355.29221        11.000           0.406
  19607793.582   -17725367.669 7 -13811971.09223        23.250           2.688
  19557896.918    -6214982.208 8  -4792764.71723        30.500           2.906
 91  6 20 19  8 59.9960000  0  5G19G13G15G 6G 2
  22952717.981     9788636.818 4   7627493.34621         7.250           0.531
  22282609.379    -5073947.555 5  -3667120.25221        10.500           0.281
  22958648.652    -2019805.502 5  -1430929.60821        10.500           0.313
  19603439.676   -17748241.586 7 -13829794.91823        22.750           2.531
  19556724.449    -6221150.761 8  -4797571.38323        31.250           2.844
 91  6 20 19  9 14.9960000  0  5G19G13G15G 6G 2
  22959034.785     9821836.927 5   7653363.50521         8.000           0.469
  22269110.856    -5144921.568 5  -3722424.65021        11.500           0.250
  22952917.816    -2049945.672 5  -1454415.45621        10.500           0.531
  19599103.465   -17771040.313 7 -13847560.16023        22.750           2.563
  19555558.754    -6227256.593 8  -4802329.18023        30.500           2.844
 91  6 20 19  9 29.9960000  0  5G19G13G15G 6G 2
  22965361.332     9855090.661 4   7679275.42121         6.750           0.469
  22255609.941    -5215832.537 5  -3777679.87621        10.750           0.250
  22947208.465    -2079953.460 5  -1477798.15521        11.250           0.469
  19594781.988   -17793745.201 7 -13865252.28323        22.500           2.594
  19554413.504    -6233281.420 8  -4807023.84723        31.000           2.875
 91  6 20 19  9 44.9960000  0  5G19G13G15G 6G 2
  22971697.918     9888391.542 4   7705224.08521         7.000           0.406
  22242125.199    -5286686.389 5  -3832890.59221        10.250           0.344
  22941516.020    -2109834.897 5  -1501082.36121        10.000           0.469
  19590479.137   -17816362.298 7 -13882875.99123        23.250           2.625
  19553282.652    -6239231.543 8  -4811660.31823        31.750           2.938
 91  6 20 19  9 59.9960000  0  5G19G13G15G 6G 2
  22978048.340     9921741.328 4   7731210.84921         7.250           0.281
  22228655.910    -5357480.759 5  -3888054.99921        11.250           0.250
  22935858.879    -2139587.854 5  -1524266.47221        10.250           0.344
  19586190.410   -17838889.498 7 -13900429.65923        22.750           2.656
  19552164.965    -6245104.964 8  -4816237.01523        31.500           2.906
 91  6 20 19 10 14.9960000  0  5G19G13G15G 6G 2
  22984396.168     9955127.929 4   7757226.35321         7.250           0.313
  22215196.574    -5428227.274 5  -3943182.09821        11.750           0.281
  22930221.426    -2169223.843 5  -1547359.47421        11.250           0.500
  19581919.168   -17861338.496 7 -13917922.37923        23.000           2.625
  19551059.293    -6250913.639 8  -4820763.26023        30.750           2.938
 91  6 20 19 10 29.9960000  0  5G19G13G15G 6G 2
  22990759.457     9988557.028 4   7783274.92521         6.250           0.406
  22201742.402    -5498919.552 5  -3998266.94721        11.250           0.219
  22924603.660    -2198736.751 5  -1570356.51721        11.250           0.344
  19577665.270   -17883703.130 7 -13935349.37123        23.500           2.688
  19549965.910    -6256651.878 8  -4825234.62023        30.000           3.031
 91  6 20 19 10 44.9960000  0  5G19G13G15G 6G 2
  22997131.059    10022026.072 3   7809354.60221         6.000           0.313
  22188294.223    -5569559.669 5  -4053311.14621        10.500           0.250
  22919009.238    -2228128.888 5  -1593259.45821        11.500           0.375
  19573424.481   -17905985.770 7 -13952712.46823        23.000           2.688
  19548887.410    -6262322.332 8  -4829653.16023        30.750           2.906
 91  6 20 19 10 59.9960000  0  5G19G13G15G 6G 2
  23003511.176    10055547.423 4   7835475.03621         7.000           0.344
  22174868.168    -5640135.052 5  -4108304.87721        11.250           0.281
  22913446.145    -2257387.406 5  -1616058.30121        11.750           0.531
  19569201.949   -17928173.819 7 -13970001.85623        23.000           2.625
  19547825.332    -6267912.682 8  -4834009.28623        30.750           2.969
 91  6 20 19 11 14.9960000  0  5G19G13G15G 6G 2
  23009890.402    10089097.360 4   7861617.81621         7.250           0.313
  22161448.621    -5710668.801 5  -4163266.21321        11.750           0.156
  22907898.957    -2286536.006 6  -1638771.48421        12.000           0.500
  19564992.660   -17950290.710 7 -13987235.79423        23.000           2.625
  19546772.363    -6273446.457 8  -4838321.32223        30.500           2.969
 91  6 20 19 11 29.9960000  0  5G19G13G15G 6G 2
  23016290.652    10122701.321 4   7887802.66321         7.000           0.250
  22148044.754    -5781135.006 6  -4218174.88421        13.250           0.250
  22902370.574    -2315548.712 5  -1661378.78521        11.000           0.563
  19560801.457   -17972310.692 7 -14004394.22123        23.500           2.656
  19545733.301    -6278898.047 8  -4842569.32823        29.750           2.938
 91  6 20 19 11 44.9960000  0  5G19G13G15G 6G 2
  23022688.434    10156339.632 4   7914014.24121         6.750           0.156
  22134639.590    -5851552.861 6  -4273045.91421        12.500           0.219
  22896871.770    -2344444.878 5  -1683895.27721        10.750           0.438
  19556626.418   -17994253.205 7 -14021492.28023        23.750           2.688
  19544708.137    -6284287.239 8  -4846768.71123        29.750           3.063
 91  6 20 19 11 59.9960000  0  5G19G13G15G 6G 2
  23029098.496    10190027.131 3   7940264.17521         6.000           0.219
  22121247.981    -5921907.043 6  -4327867.28621        12.000           0.313
  22891397.816    -2373209.260 5  -1706309.07121         9.750           0.438
  19552472.043   -18016103.104 7 -14038518.17223        24.500           2.625
  19543694.809    -6289598.878 8  -4850907.65823        29.250           2.969
 91  6 20 19 12 14.9960000  0  5G19G13G15G 6G 2
  23035518.402    10223763.539 5   7966552.23121         7.500           0.313
  22107874.316    -5992197.226 6  -4382638.81521        12.250           0.219
  22885951.762    -2401842.145 5  -1728620.41021        10.250           0.406
  19548328.145   -18037860.379 7 -14055471.89923        24.250           2.625
  19542701.106    -6294833.590 8  -4854986.65823        29.750           2.938
 91  6 20 19 12 29.9960000  0  5G19G13G15G 6G 2
  23041949.356    10257539.776 4   7992871.30421         7.000           0.344
  22094508.418    -6062432.375 5  -4437367.46821        11.500           0.281
  22880529.668    -2430352.144 5  -1750835.96521        11.000           0.469
  19544203.879   -18059533.912 7 -14072360.36723        23.750           2.594
  19541718.590    -6300000.467 8  -4859012.80823        29.750           3.000
 91  6 20 19 12 44.9960000  0  5G19G13G15G 6G 2
  23048372.113    10291352.362 4   8019218.70021         7.000           0.344
  22081156.598    -6132615.119 6  -4492055.24621        12.500           0.250
  22875128.668    -2458742.066 5  -1772957.97621        10.000           0.438
  19540095.606   -18081126.713 7 -14089185.92323        23.750           2.563
  19540745.926    -6305102.703 8  -4862988.58223        30.000           3.000
 91  6 20 19 12 59.9960000  0  5G19G13G15G 6G 2
  23054823.160    10325207.987 4   8045599.63421         7.000           0.250
  22067810.324    -6202738.322 6  -4546696.66321        12.750           0.156
  22869744.488    -2487004.899 5  -1794980.96621        10.000           0.531
  19536001.637   -18102631.723 7 -14105943.07523        23.750           2.563
  19539791.426    -6310133.604 8  -4866908.77523        30.500           3.063
 91  6 20 19 13 14.9960000  0  5G19G13G15G 6G 2
  23061271.949    10359097.353 4   8072006.88921         7.000           0.281
  22054475.691    -6272810.909 6  -4601298.62621        12.500           0.281
  22864391.262    -2515149.803 5  -1816912.03221        10.750           0.531
  19531924.910   -18124058.045 7 -14122638.91423        23.500           2.563
  19538844.238    -6315102.356 8  -4870780.54223        30.250           3.000
 91  6 20 19 13 29.9960000  0  5G19G13G15G 6G 2
  23067733.652    10393043.028 4   8098457.97921         7.000           0.219
  22041154.746    -6342809.790 6  -4655843.14821        12.750           0.281
  22859060.582    -2543153.574 5  -1838733.14021        10.000           0.406
  19527867.684   -18145382.755 7 -14139255.57522        23.750           2.469
  19537914.254    -6319986.479 8  -4874586.35423        30.000           3.063
 91  6 20 19 13 44.9960000  0  5G19G13G15G 6G 2
  23074197.762    10427027.862 4   8124939.63221         7.000           0.188
  22027845.059    -6412751.654 5  -4710343.25821        11.750           0.281
  22853756.309    -2571033.174 5  -1860457.51021         9.750           0.531
  19523826.191   -18166622.726 7 -14155806.20522        24.000           2.469
  19536999.395    -6324802.743 8  -4878339.29323        30.250           3.063
 91  6 20 19 13 59.9960000  0  5G19G13G15G 6G 2
  23080674.410    10461043.842 4   8151445.48921         7.250           0.344
  22014548.223    -6482643.956 6  -4764804.73021        12.500           0.219
  22848471.582    -2598796.298 5  -1882091.09621         9.750           0.406
  19519797.551   -18187785.701 7 -14172296.83523        23.500           2.531
  19536091.645    -6329559.236 8  -4882045.66423        29.500           3.094
 91  6 20 19 14 14.9960000  0  5G19G13G15G 6G 2
  23087153.738    10495094.003 5   8177978.01021         7.750           0.406
  22001256.723    -6552483.065 6  -4819224.74721        12.250           0.219
  22843218.066    -2626439.542 5  -1903631.26921        10.500           0.438
  19515786.777   -18208868.219 7 -14188724.77323        23.250           2.500
  19535199.949    -6334252.956 8  -4885703.11523        29.750           3.156
 91  6 20 19 14 29.9960000  0  5G19G13G15G 6G 2
  23093638.496    10529197.859 4   8204552.36121         7.000           0.344
  21987978.457    -6622248.974 6  -4873587.72721        12.000           0.281
  22837974.934    -2653942.880 5  -1925062.43921         9.500           0.531
  19511793.293   -18229850.461 7 -14205074.57123        23.250           2.594
  19534322.481    -6338864.251 8  -4889296.34523        30.000           3.125
 91  6 20 19 14 44.9960000  0  5G19G13G15G 6G 2
  23100141.629    10563342.276 5   8231158.34621         7.750           0.500
  21974716.082    -6691954.234 6  -4927903.44421        12.500           0.219
  22832770.043    -2681319.401 5  -1946394.76421        10.750           0.531
  19507817.582   -18250745.265 7 -14221356.24022        23.250           2.469
  19533458.145    -6343406.071 8  -4892835.42923        29.250           3.031
 91  6 20 19 14 59.9960000  0  5G19G13G15G 6G 2
  23106643.004    10597525.310 4   8257794.38121         7.250           0.375
  21961456.215    -6761600.366 6  -4982173.08521        12.000           0.250
  22827588.106    -2708570.432 5  -1967629.32621        10.250           0.531
  19503861.012   -18271554.343 7 -14237571.10623        23.500           2.625
  19532608.145    -6347880.407 8  -4896321.93323        29.750           3.094
 91  6 20 19 15 14.9960000  0  5G19G13G15G 6G 2
  23113154.231    10631758.864 4   8284469.78021         7.000           0.406
  21948220.402    -6831175.098 6  -5036387.11221        12.250           0.219
  22822427.871    -2735683.702 5  -1988756.56321        10.500           0.531
  19499915.285   -18292265.365 7 -14253709.56323        23.000           2.563
  19531768.402    -6352275.429 8  -4899746.62823        29.250           3.063
 91  6 20 19 15 29.9960000  0  5G19G13G15G 6G 2
  23119687.004    10666035.541 4   8311178.82621         6.750           0.344
  21935001.770    -6900685.404 6  -5090550.88421        13.250           0.281
  22817283.949    -2762666.518 5  -2009782.10221        10.250           0.656
  19495993.988   -18312885.475 7 -14269777.17923        22.750           2.531
  19530947.332    -6356598.435 8  -4903115.21423        29.500           3.000
 91  6 20 19 15 44.9960000  0  5G19G13G15G 6G 2
  23126209.723    10700359.745 5   8337924.89421         7.750           0.438
  21921783.090    -6970126.285 6  -5144660.61021        12.250           0.313
  22812177.363    -2789513.954 5  -2030702.18521        10.000           0.625
  19492085.559   -18333410.069 7 -14285770.37223        22.250           2.500
  19530139.801    -6360845.125 8  -4906424.32423        30.000           3.031
 91  6 20 19 15 59.9960000  0  5G19G13G15G 6G 2
  23132752.957    10734720.244 4   8364699.21621         6.250           0.469
  21908577.293    -7039508.504 6  -5198724.59221        12.250           0.375
  22807094.731    -2816236.989 5  -2051525.33021        10.750           0.594
  19488198.059   -18353850.033 7 -14301697.61322        22.500           2.344
  19529345.668    -6365026.571 8  -4909682.60323        30.500           3.031
 91  6 20 19 16 14.9960000  0  5G19G13G15G 6G 2
  23139298.098    10769107.409 4   8391494.32021         7.000           0.469
  21895382.231    -7108841.289 6  -5252750.05821        12.000           0.250
  22802032.262    -2842844.942 5  -2072258.77921        10.500           0.500
  19484322.504   -18374214.678 7 -14317566.16922        22.500           2.375
  19528557.918    -6369152.381 8  -4912897.52523        29.750           3.125
 91  6 20 19 16 29.9960000  0  5G19G13G15G 6G 2
  23145852.949    10803545.726 3   8418329.31121         6.000           0.406
  21882206.543    -7178099.483 6  -5306717.40421        12.750           0.250
  22796994.746    -2869312.529 5  -2092882.86121         9.500           0.500
  19480466.606   -18394479.140 7 -14333356.66122        23.000           2.469
  19527788.254    -6373197.675 8  -4916049.70223        30.000           3.063
 91  6 20 19 16 44.9960000  0  5G19G13G15G 6G 2
  23152410.551    10838033.701 4   8445202.92721         6.250           0.500
  21869041.262    -7247284.076 6  -5360627.39521        12.750           0.313
  22791987.957    -2895641.320 5  -2113398.77621        11.000           0.531
  19476629.387   -18414644.665 7 -14349070.05522        22.500           2.375
  19527035.426    -6377164.096 8  -4919140.42823        30.500           3.063
 91  6 20 19 16 59.9960000  0  5G19G13G15G 6G 2
  23158986.785    10872553.828 4   8472101.65221         6.500           0.344
  21855881.777    -7316412.113 6  -5414493.33421        12.500           0.313
  22786997.473    -2921848.440 5  -2133819.91921        11.500           0.594
  19472808.527   -18434728.343 7 -14364719.66723        23.000           2.531
  19526290.309    -6381069.012 8  -4922183.22323        29.500           3.094
 91  6 20 19 17 14.9960000  0  5G19G13G15G 6G 2
  23165545.574    10907099.033 3   8499019.92721         5.750           0.406
  21842738.598    -7385490.219 6  -5468320.35621        12.000           0.344
  22782035.113    -2947940.398 5  -2154151.27621        11.750           0.469
  19469000.754   -18454737.064 7 -14380310.87922        23.000           2.438
  19525558.168    -6384919.513 8  -4925183.61623        29.750           3.000
 91  6 20 19 17 29.9960000  0  5G19G13G15G 6G 2
  23172135.402    10941675.586 3   8525962.60121         6.000           0.375
  21829607.754    -7454511.600 6  -5522103.16821        13.250           0.344
  22777089.301    -2973910.757 5  -2174387.93221        10.500           0.438
  19465206.121   -18474664.104 7 -14395838.44222        23.250           2.375
  19524837.926    -6388709.246 8  -4928136.65423        29.500           3.094
 91  6 20 19 17 44.9960000  0  5G19G13G15G 6G 2
  23178722.223    10976297.153 4   8552940.37621         6.250           0.313
  21816480.426    -7523462.380 6  -5575830.96021        13.000           0.250
  22772176.582    -2999745.822 6  -2194519.14121        12.000           0.500
  19461432.504   -18494495.837 7 -14411291.73922        23.250           2.438
  19524130.027    -6392424.689 8  -4931031.80823        29.000           3.156
 91  6 20 19 17 59.9960000  0  5G19G13G15G 6G 2
  23185318.293    11010948.055 3   8579941.00221         5.750           0.313
  21803375.973    -7592357.559 6  -5629515.45721        13.750           0.313
  22767279.301    -3025460.902 5  -2214556.86621        11.750           0.500
  19457673.559   -18514247.449 7 -14426682.60122        22.750           2.438
  19523433.738    -6396081.255 8  -4933881.08423        29.250           3.250
 91  6 20 19 18 14.9960000  0  5G19G13G15G 6G 2
  23191915.129    11045633.842 3   8606968.80621         5.500           0.313
  21790276.746    -7661190.893 6  -5683151.74021        14.500           0.344
  22762410.543    -3051050.111 6  -2234496.49921        12.250           0.406
  19453932.520   -18533913.017 7 -14442006.42022        23.000           2.344
  19522750.246    -6399673.439 8  -4936680.19623        29.250           3.094
 91  6 20 19 18 29.9960000  0  5G19G13G15G 6G 2
  23198534.020    11080367.215 4   8634033.69021         7.000           0.156
  21777192.059    -7729949.387 6  -5736729.71221        13.750           0.281
  22757572.691    -3076500.038 6  -2254327.57421        12.000           0.500
  19450210.801   -18553479.478 7 -14457253.01422        23.250           2.344
  19522084.223    -6403188.381 8  -4939419.12123        29.000           3.250
 91  6 20 19 18 44.9960000  0  5G19G13G15G 6G 2
  23205146.824    11115153.917 4   8661140.14821         7.000           0.250
  21764120.816    -7798627.002 6  -5790244.66821        13.000           0.406
  22752750.574    -3101804.807 5  -2274045.57321        11.750           0.656
  19446506.285   -18572941.092 7 -14472417.90422        23.250           2.344
  19521428.512    -6406620.464 8  -4942093.47423        28.250           3.313
 91  6 20 19 18 59.9960000  0  5G19G13G15G 6G 2
  23211777.848    11149973.980 4   8688272.58121         6.750           0.313
  21751063.332    -7867243.123 6  -5843711.70921        12.500           0.313
  22747965.246    -3126984.208 6  -2293665.88021        12.750           0.656
  19442818.566   -18592317.210 7 -14487516.17922        23.000           2.438
  19520787.145    -6409989.422 8  -4944718.64623        28.250           3.188
 91  6 20 19 19 14.9960000  0  4G13G15G 6G 2
  21738025.004    -7935765.103 6  -5897105.36521        13.750           0.344
  22743198.496    -3152005.675 5  -2313163.11321        10.750           0.656
  19439156.207   -18611575.679 7 -14502522.77722        23.500           2.344
  19520163.676    -6413263.330 8  -4947269.74723        28.000           3.281
 91  6 20 19 19 29.9960000  0  4G13G15G 6G 2
  21725002.129    -8004207.699 6  -5950437.19921        13.750           0.313
  22738463.777    -3176884.187 5  -2332548.96421        11.000           0.531
  19435509.699   -18630731.394 7 -14517449.30522        23.250           2.313
  19519559.176    -6416457.251 8  -4949758.52323        29.250           3.188
 91  6 20 19 19 44.9960000  0  4G13G15G 6G 2
  21711987.598    -8072579.865 6  -6003714.13821        13.250           0.281
  22733759.809    -3201628.918 6  -2351830.56621        12.000           0.656
  19431881.754   -18649793.351 7 -14532302.77422        23.000           2.375
  19518960.434    -6419580.470 8  -4952192.21323        28.750           3.188
 91  6 20 19 19 59.9960000  0  4G13G15G 6G 2
  21698993.270    -8140877.141 6  -6056932.73721        13.000           0.281
  22729072.645    -3226235.589 5  -2371004.57921        11.500           0.688
  19428272.051   -18668757.273 7 -14547079.85522        23.000           2.375
  19518381.738    -6422628.808 8  -4954567.54623        29.500           3.281
 91  6 20 19 20 14.9960000  0  4G13G15G 6G 2
  21686011.004    -8209097.793 6  -6110091.59621        13.250           0.281
  22724414.684    -3250702.272 5  -2390069.52621        11.250           0.563
  19424681.270   -18687621.583 7 -14561779.31622        22.750           2.438
  19517816.160    -6425601.109 8  -4956883.62823        30.250           3.188
 91  6 20 19 20 29.9960000  0  4G13G15G 6G 2
  21673044.566    -8277243.958 6  -6163192.44021        13.250           0.344
  22719787.473    -3275031.417 5  -2409027.29521        10.500           0.531
  19421110.895   -18706388.722 7 -14576403.05823        22.250           2.531
  19517264.106    -6428499.994 8  -4959142.50323        30.500           3.250
 91  6 20 19 20 44.9960000  0  4G13G15G 6G 2
  21660084.348    -8345327.300 6  -6216244.33821        12.250           0.344
  22715181.879    -3299235.269 5  -2427887.43621        11.250           0.469
  19417558.246   -18725070.591 7 -14590960.35723        22.500           2.531
  19516727.629    -6431337.635 8  -4961353.65323        31.250           3.156
 91  6 20 19 20 59.9960000  0  4G13G15G 6G 2
  21647144.879    -8413337.074 6  -6269238.91321        12.500           0.438
  22710604.481    -3323303.080 5  -2446641.55921        10.500           0.469
  19414018.941   -18743656.547 7 -14605442.91523        21.750           2.500
  19516199.918    -6434103.541 8  -4963508.91223        31.000           3.125
 91  6 20 19 21 14.9960000  0  4G13G15G 6G 2
  21634215.848    -8481285.176 6  -6322185.41621        12.750           0.375
  22706053.043    -3347246.615 5  -2465298.86821        11.500           0.469
  19410499.629   -18762158.603 7 -14619860.10323        22.500           2.594
  19515681.481    -6436810.056 8  -4965617.88423        30.250           3.031
 91  6 20 19 21 29.9960000  0  4G13G15G 6G 2
  21621300.762    -8549163.448 6  -6375077.50321        13.500           0.469
  22701513.762    -3371058.002 5  -2483853.18321        10.750           0.438
  19406996.301   -18780568.868 7 -14634205.76223        22.250           2.625
  19515180.941    -6439449.689 8  -4967674.74823        30.500           2.969
 91  6 20 19 21 44.9960000  0  4G13G15G 6G 2
  21608389.184    -8616966.928 6  -6427911.32221        12.000           0.344
  22697012.035    -3394732.600 5  -2502300.91621        10.750           0.344
  19403508.145   -18798882.563 7 -14648476.17223        21.500           2.625
  19514692.910    -6442017.710 8  -4969675.80623        30.500           2.938
 91  6 20 19 21 59.9960000  0  4G13G15G 6G 2
  21595502.832    -8684691.057 6  -6480683.31721        12.500           0.375
  22692530.910    -3418265.924 5  -2520638.57121        11.250           0.344
  19400043.879   -18817095.505 7 -14662668.08223        22.000           2.500
  19514217.887    -6444510.199 8  -4971618.01523        30.000           2.938
 91  6 20 19 22 14.9960000  0  4G13G15G 6G 2
  21582636.621    -8752337.104 6  -6533394.44521        13.250           0.375
  22688082.457    -3441659.446 6  -2538867.28521        12.250           0.438
  19396596.887   -18835208.981 7 -14676782.48123        22.000           2.563
  19513759.074    -6446928.657 8  -4973502.53523        29.750           3.000
 91  6 20 19 22 29.9960000  0  4G13G15G 6G 2
  21569780.621    -8819901.803 6  -6586042.20221        14.000           0.344
  22683660.020    -3464910.312 5  -2556984.83821        11.750           0.406
  19393169.676   -18853219.833 7 -14690816.91323        22.000           2.594
  19513313.348    -6449270.410 8  -4975327.28523        29.750           3.094
 91  6 20 19 22 44.9960000  0  4G13G15G 6G 2
  21556934.949    -8887395.950 6  -6638635.00321        13.000           0.375
  22679254.324    -3488029.103 5  -2574999.48721        11.500           0.438
  19389760.824   -18871139.109 7 -14704779.98523        22.500           2.594
  19512878.707    -6451546.326 8  -4977100.72823        29.750           3.031
 91  6 20 19 22 59.9960000  0  4G13G15G 6G 2
  21544102.543    -8954825.212 6  -6691177.21221        12.750           0.344
  22674881.121    -3511021.830 6  -2592915.88621        12.500           0.469
  19386368.004   -18888972.529 7 -14718676.16323        22.750           2.656
  19512457.973    -6453762.722 8  -4978827.79823        29.750           3.156
 91  6 20 19 23 14.9960000  0  4G13G15G 6G 2
  21531285.254    -9022177.414 6  -6743659.39121        14.250           0.344
  22670534.168    -3533876.485 6  -2610724.68021        12.000           0.594
  19382991.473   -18906708.144 7 -14732496.12323        22.500           2.531
  19512047.801    -6455907.724 8  -4980499.23223        29.000           3.094
 91  6 20 19 23 29.9960000  0  4G13G15G 6G 2
  21518486.676    -9089444.205 6  -6796075.01121        14.250           0.438
  22666210.207    -3556584.853 5  -2628419.52421        11.750           0.625
  19379637.785   -18924337.811 7 -14746233.52823        22.750           2.656
  19511656.762    -6457973.398 8  -4982108.85423        29.500           3.125
 91  6 20 19 23 44.9960000  0  4G13G15G 6G 2
  21505702.231    -9156631.658 6  -6848428.82621        14.000           0.469
  22661921.027    -3579153.230 6  -2646005.24921        13.250           0.625
  19376302.481   -18941867.869 7 -14759893.31723        22.000           2.594
  19511278.902    -6459966.346 8  -4983661.80723        30.000           3.125
 91  6 20 19 23 59.9960000  0  4G13G15G 6G 2
  21492931.785    -9223745.369 6  -6900725.15221        14.500           0.469
  22657650.051    -3601587.287 5  -2663486.34321        11.250           0.625
  19372983.012   -18959303.900 7 -14773479.82823        22.250           2.531
  19510910.676    -6461892.396 8  -4985162.63323        30.250           3.188
 91  6 20 19 24 14.9960000  0  4G13G15G 6G 2
  21480169.746    -9290779.032 6  -6952959.12421        14.500           0.406
  22653408.606    -3623881.300 5  -2680858.31621        11.750           0.500
  19369683.215   -18976640.089 7 -14786988.54923        22.250           2.625
  19510558.090    -6463745.965 8  -4986606.97723        30.000           3.188
 91  6 20 19 24 29.9960000  0  4G13G15G 6G 2
  21467430.106    -9357745.393 6  -7005140.65721        14.250           0.500
  22649185.871    -3646047.935 5  -2698131.00621        10.500           0.563
  19366400.176   -18993889.062 7 -14800429.30623        22.750           2.531
  19510217.262    -6465539.914 8  -4988004.87023        30.250           3.250
 91  6 20 19 24 44.9960000  0  4G13G15G 6G 2
  21454703.106    -9424633.537 6  -7057261.21621        13.750           0.438
  22644992.684    -3668076.299 5  -2715295.96621        11.000           0.563
  19363138.957   -19011040.118 7 -14813793.76523        22.250           2.500
  19509887.941    -6467263.900 8  -4989348.23723        29.750           3.188
 91  6 20 19 24 59.9960000  0  4G13G15G 6G 2
  21441989.324    -9491440.352 6  -7109318.42021        14.000           0.469
  22640828.879    -3689963.643 5  -2732351.01621        11.250           0.594
  19359892.426   -19028090.495 7 -14827079.76422        22.750           2.469
  19509574.254    -6468915.336 8  -4990635.08223        30.000           3.281
 91  6 20 19 25 14.9960000  0  4G13G15G 6G 2
  21429289.285    -9558167.475 6  -7161313.51421        14.500           0.469
  22636691.496    -3711711.680 5  -2749297.55921        11.750           0.625
  19356668.387   -19045041.917 7 -14840288.67122        23.000           2.438
  19509273.246    -6470496.114 8  -4991866.86123        30.000           3.250
 91  6 20 19 25 29.9960000  0  4G13G15G 6G 2
  21416607.574    -9624817.202 6  -7213248.31521        14.250           0.438
  22632581.535    -3733322.983 6  -2766137.53621        12.250           0.625
  19353459.496   -19061896.929 7 -14853422.44723        22.500           2.531
  19508986.363    -6472009.245 8  -4993045.93323        30.000           3.313
 91  6 20 19 25 44.9960000  0  4G13G15G 6G 2
  21403938.699    -9691390.039 6  -7265123.18921        13.750           0.469
  22628496.988    -3754798.405 6  -2782871.61321        12.500           0.625
  19350268.613   -19078656.309 7 -14866481.70722        22.000           2.469
  19508711.590    -6473455.478 8  -4994172.87523        30.250           3.188
 91  6 20 19 25 59.9960000  0  4G13G15G 6G 2
  21391285.488    -9757897.913 6  -7316947.45221        14.500           0.438
  22624428.356    -3776149.828 6  -2799509.08721        12.000           0.688
  19347098.918   -19095332.084 7 -14879475.81722        22.500           2.406
  19508445.910    -6474847.115 8  -4995257.27523        30.750           3.125
 91  6 20 19 26 14.9960000  0  4G13G15G 6G 2
  21378639.137    -9824339.838 6  -7368720.32221        14.500           0.375
  22620393.535    -3797376.458 6  -2816049.32021        12.500           0.594
  19343940.301   -19111923.221 7 -14892403.97222        22.750           2.438
  19508192.098    -6476183.459 8  -4996298.59423        30.000           3.219
 91  6 20 19 26 29.9960000  0  4G13G15G 6G 2
  21366006.965    -9890701.885 6  -7420430.94921        14.000           0.500
  22616376.543    -3818464.593 6  -2832481.63321        12.750           0.531
  19340802.996   -19128415.999 7 -14905255.48822        22.750           2.469
  19507948.270    -6477450.954 8  -4997286.25323        29.000           3.094
 91  6 20 19 26 44.9960000  0  4G13G15G 6G 2
  21353397.191    -9956983.758 6  -7472079.11221        14.750           0.469
  22612389.277    -3839414.239 6  -2848806.02921        12.250           0.563
  19337685.207   -19144810.412 7 -14918030.35622        23.000           2.469
  19507724.348    -6478649.746 8  -4998220.38323        29.000           3.188
 91  6 20 19 26 59.9960000  0  4G13G15G 6G 2
  21340798.402   -10023192.785 6  -7523670.49721        15.000           0.531
  22608428.590    -3860232.699 6  -2865028.22321        12.250           0.531
  19334581.316   -19161114.018 7 -14930734.46222        23.000           2.375
  19507504.520    -6479787.759 8  -4999107.15823        29.000           3.063
 91  6 20 19 27 14.9960000  0  4G13G15G 6G 2
  21328216.137   -10089319.030 6  -7575197.38521        14.500           0.469
  22604495.066    -3880910.614 6  -2881140.89921        12.500           0.500
  19331497.488   -19177317.181 7 -14943360.30222        22.750           2.375
  19507300.801    -6480855.691 8  -4999939.31623        29.000           3.094
 91  6 20 19 27 29.9960000  0  4G13G15G 6G 2
  21315648.098   -10155358.532 6  -7626656.66721        14.250           0.500
  22600585.863    -3901443.944 6  -2897140.88521        12.250           0.406
  19328434.770   -19193416.045 7 -14955904.87322        23.000           2.313
  19507113.949    -6481849.746 8  -5000713.91423        29.500           3.188
 91  6 20 19 27 44.9960000  0  4G13G15G 6G 2
  21303099.684   -10221309.999 6  -7678047.36521        15.250           0.531
  22596712.066    -3921831.797 6  -2913027.52921        13.250           0.438
  19325392.652   -19209409.469 7 -14968367.28222        22.750           2.375
  19506938.988    -6482769.074 8  -5001430.27823        29.250           3.125
 91  6 20 19 27 59.9960000  0  4G13G15G 6G 2
  21290564.566   -10287171.168 6  -7729367.70221        14.500           0.500
  22592857.988    -3942072.068 6  -2928799.16621        12.500           0.594
  19322369.348   -19225295.455 7 -14980745.97322        23.250           2.344
  19506774.941    -6483611.887 8  -5002087.02023        29.000           3.063
 91  6 20 19 28 14.9960000  0  4G13G15G 6G 2
  21278049.543   -10352950.650 6  -7780624.37621        14.500           0.438
  22589035.566    -3962173.460 6  -2944462.57821        12.500           0.719
  19319362.988   -19241082.762 7 -14993047.77522        22.750           2.156
  19506632.012    -6484387.224 8  -5002691.17723        29.750           3.156
 91  6 20 19 28 29.9960000  0  4G13G15G 6G 2
  21265547.637   -10418643.147 6  -7831813.28821        15.000           0.375
  22585235.934    -3982130.859 5  -2960013.81821        11.000           0.656
  19316376.184   -19256766.056 7 -15005268.53022        22.250           2.406
  19506497.895    -6485089.867 8  -5003238.70023        30.250           3.125
 91  6 20 19 28 44.9960000  0  4G13G15G 6G 2
  21253057.238   -10484253.856 6  -7882938.45621        14.500           0.469
  22581456.559    -4001949.432 5  -2975456.85721        11.000           0.625
  19313412.199   -19272350.702 7 -15017412.41022        21.750           2.406
  19506376.379    -6485725.540 8  -5003734.04023        30.250           3.063
 91  6 20 19 28 59.9960000  0  4G13G15G 6G 2
  21240593.527   -10549775.469 6  -7933994.20721        15.000           0.406
  22577722.043    -4021622.408 6  -2990786.43821        12.500           0.688
  19310468.410   -19287829.703 7 -15029473.96022        22.000           2.438
  19506268.957    -6486287.354 8  -5004171.82023        30.000           3.031
 91  6 20 19 29 14.9960000  0  4G13G15G 6G 2
  21228142.129   -10615214.272 6  -7984985.44021        16.000           0.469
  22574004.504    -4041156.173 6  -3006007.55221        12.750           0.594
  19307539.270   -19303209.500 7 -15041458.22222        21.000           2.438
  19506173.410    -6486782.036 8  -5004557.29023        30.250           3.250
 91  6 20 19 29 29.9960000  0  4G13G15G 6G 2
  21215698.652   -10680582.703 6  -8035921.82421        14.500           0.563
  22570308.441    -4060563.503 6  -3021130.16821        12.250           0.563
  19304633.285   -19318502.800 7 -15053375.07322        22.250           2.469
  19506092.348    -6487222.643 8  -5004900.63123        30.000           3.219
 91  6 20 19 29 44.9960000  0  4G13G15G 6G 2
  21203274.699   -10745878.187 6  -8086801.35421        14.750           0.469
  22566636.340    -4079841.938 6  -3036152.33321        12.500           0.656
  19301736.207   -19333707.128 7 -15065222.60322        21.500           2.375
  19506019.879    -6487606.857 8  -5005200.02923        29.750           3.281
 91  6 20 19 29 59.9960000  0  4G13G15G 6G 2
  21190866.215   -10811098.918 6  -8137622.64021        16.500           0.625
  22562998.949    -4098989.930 6  -3051072.84121        13.000           0.625
  19298863.012   -19348820.822 7 -15076999.51522        22.000           2.438
  19505953.621    -6487933.220 8  -5005454.34023        29.000           3.000
 91  6 20 19 30 14.9960000  0  4G13G15G 6G 2
  21178470.262   -10876230.628 6  -8188374.57721        16.500           0.531
  22559379.949    -4117993.271 6  -3065880.62321        12.250           0.813
  19296005.879   -19363829.821 7 -15088694.83922        22.250           2.344
  19505909.168    -6488187.799 8  -5005652.71823        29.000           3.125
 91  6 20 19 30 29.9960000  0  4G13G15G 6G 2
  21166091.082   -10941284.332 6  -8239065.72221        16.000           0.531
  22555787.996    -4136863.289 5  -3080584.52221        11.500           0.594
  19293166.012   -19378745.258 7 -15100317.26622        22.500           2.438
  19505870.684    -6488382.148 8  -5005804.16723        28.750           3.094
 91  6 20 19 30 44.9960000  0  4G13G15G 6G 2
  21153731.066   -11006241.032 6  -8289681.27121        16.000           0.563
  22552225.879    -4155581.185 5  -3095169.91021        11.750           0.688
  19290350.988   -19393548.404 7 -15111852.18622        22.000           2.438
  19505846.512    -6488497.663 8                        28.750
 91  6 20 19 30 59.9960000  0  4G13G15G 6G 2
  21141385.512   -11071114.529 6  -8340231.98421        16.750           0.656
  22548692.043    -4174160.894 6  -3109647.59021        12.750           0.594
  19287551.356   -19408253.293 7 -15123310.54422        22.000           2.438
  19505838.231    -6488548.515 8                        28.250
 91  6 20 19 31 14.9960000  0  4G13G15G 6G 2
  21129059.199   -11135896.728 6  -8390711.57521        17.000           0.656
  22545180.801    -4192594.611 6  -3124011.51521        12.000           0.531
  19284772.926   -19422851.841 7 -15134686.03823        22.000           2.500
  19505841.801    -6488527.000 8                        28.250
 91  6 20 19 31 29.9960000  0  4G13G15G 6G 2
  21116746.527   -11200595.389 6  -8441126.05821        16.500           0.625
  22541705.043    -4210890.299 6  -3138267.88221        12.500           0.438
  19282012.129   -19437351.990 7 -15145984.85023        21.750           2.500
  19505859.301    -6488441.229 8                        29.000
 91  6 20 19 31 44.9960000  0  4G13G15G 6G 2
  21104450.707   -11265213.576 6  -8491477.84521        16.250           0.594
  22538249.074    -4229050.978 6  -3152419.07421        12.750           0.469
  19279273.371   -19451756.918 7 -15157209.47723        21.750           2.563
  19505884.746    -6488294.497 8                        29.000
 91  6 20 19 31 59.9960000  0  4G13G15G 6G 2
  21092167.082   -11329750.865 6  -8541766.58721        16.500           0.563
  22534817.762    -4247076.572 6  -3166464.98121        12.250           0.531
  19276549.582   -19466066.400 7 -15168359.72323        21.250           2.531
  19505925.731    -6488086.994 8                        29.750
 91  6 20 19 32 14.9960000  0  4G13G15G 6G 2
  21079899.598   -11394210.918 6  -8591995.14621        16.250           0.594
  22531414.066    -4264971.309 6  -3180408.93121        12.250           0.375
  19273844.090   -19480284.483 7 -15179438.74523        22.000           2.500
  19505977.856    -6487822.941 8  -5005368.46623        29.750           2.938
 91  6 20 19 32 29.9960000  0  4G13G15G 6G 2
  21067651.793   -11458583.239 6  -8642155.35221        16.250           0.656
  22528032.168    -4282724.768 6  -3194242.77821        12.500           0.563
  19271158.691   -19494400.859 7 -15190438.51922        21.500           2.438
  19506038.027    -6487492.156 8  -5005110.71623        29.750           3.000
 91  6 20 19 32 44.9960000  0  4G13G15G 6G 2
  21055422.559   -11522860.273 6  -8692241.29221        16.500           0.594
  22524683.090    -4300329.595 6  -3207960.83021        12.500           0.563
  19268489.793   -19508408.059 7 -15201353.21822        21.750           2.469
  19506117.231    -6487087.601 8  -5004795.48123        30.000           2.969
 91  6 20 19 32 59.9960000  0  4G13G15G 6G 2
  21043206.856   -11587048.239 6  -8742257.83821        16.500           0.594
  22521359.129    -4317792.006 5  -3221567.88221        11.250           0.594
  19265847.191   -19522312.629 7 -15212187.95822        22.250           2.438
  19506205.027    -6486615.851 8  -5004427.88923        29.750           2.938
 91  6 20 19 33 14.9960000  0  4G13G15G 6G 2
  21031008.027   -11651151.811 6  -8792208.63521        16.000           0.625
  22518058.098    -4335116.816 6  -3235067.74621        12.000           0.469
  19263218.918   -19536119.109 7 -15222946.25122        21.750           2.469
  19506310.199    -6486081.850 8  -5004011.79223        30.250           3.031
 91  6 20 19 33 29.9960000  0  4G13G15G 6G 2
  21018830.879   -11715142.462 6  -8842071.41621        16.000           0.625
  22514796.223    -4352275.937 5  -3248438.46221        11.500           0.563
  19260616.629   -19549799.276 7 -15233606.12422        21.500           2.469
  19506428.121    -6485457.468 8  -5003525.26923        30.250           3.000
 91  6 20 19 33 44.9960000  0  4G13G15G 6G 2
  21006668.332   -11779043.619 6  -8891864.47721        15.500           0.625
  22511556.238    -4369292.922 5  -3261698.45521        10.000           0.375
  19258032.988   -19563376.776 7 -15244186.00022        21.750           2.344
  19506558.020    -6484766.475 8  -5002986.83723        30.000           2.969
 91  6 20 19 33 59.9960000  0  4G13G15G 6G 2
  20994528.598   -11842851.593 6  -8941584.90921        16.250           0.656
  22508350.512    -4386164.439 5  -3274845.10221        11.500           0.469
  19255470.231   -19576847.929 7 -15254682.99822        22.250           2.469
  19506704.059    -6484005.466 8  -5002393.84923        29.750           3.063
 91  6 20 19 34 14.9960000  0  4G13G15G 6G 2
  20982400.551   -11906572.128 6  -8991237.23821        15.750           0.594
  22505166.996    -4402896.241 6  -3287882.87021        12.500           0.500
  19252927.879   -19590218.777 7 -15265101.85022        22.750           2.344
  19506860.074    -6483180.728 8  -5001751.20523        29.000           3.000
 91  6 20 19 34 29.9960000  0  4G13G15G 6G 2
  20970297.637   -11970196.309 6  -9040814.46221        16.500           0.594
  22502011.848    -4419479.642 6  -3300804.99321        12.000           0.531
  19250401.816   -19603480.526 7 -15275435.68522        22.500           2.313
  19507030.809    -6482283.705 8  -5001052.23523        29.250           3.063
 91  6 20 19 34 44.9960000  0  4G13G15G 6G 2
  20958206.340   -12033719.865 6  -9090313.29021        16.250           0.656
  22498886.574    -4435911.047 5  -3313608.67621        11.750           0.438
  19247900.301   -19616629.292 7 -15285681.48622        22.000           2.313
  19507217.199    -6481310.653 8  -5000294.02623        29.750           3.031
 91  6 20 19 34 59.9960000  0  4G13G15G 6G 2
  20946136.090   -12097159.770 6  -9139746.92821        16.500           0.719
  22495782.473    -4452207.470 6  -3326307.17821        12.000           0.406
  19245414.441   -19629682.071 7 -15295852.48222        21.250           2.313
  19507414.434    -6480278.914 8  -4999490.08123        30.000           3.063
 91  6 20 19 35 14.9960000  0  4G13G15G 6G 2
  20934081.887   -12160506.005 6  -9189107.57921        17.500           0.688
  22492709.824    -4468358.965 5  -3338892.74221        11.250           0.500
  19242950.184   -19642628.885 7 -15305940.91522        21.500           2.313
  19507622.965    -6479178.733 8  -4998632.80923        29.500           2.969
 91  6 20 19 35 29.9960000  0  4G13G15G 6G 2
  20922039.676   -12223767.711 6  -9238402.36621        16.250           0.625
  22489661.277    -4484375.091 5  -3351372.84121        11.750           0.563
  19240507.106   -19655479.362 7 -15315954.27522        21.250           2.375
  19507843.496    -6478019.756 8  -4997729.71823        30.250           3.031
 91  6 20 19 35 44.9960000  0  4G13G15G 6G 2
  20910019.363   -12286946.435 6  -9287632.48921        17.000           0.563
  22486641.145    -4500257.573 6  -3363748.80221        12.750           0.594
  19238076.762   -19668235.183 7 -15325893.88622        21.000           2.344
  19508073.285    -6476803.988 8  -4996782.37823        30.000           3.000
 91  6 20 19 35 59.9960000  0  4G13G15G 6G 2
  20898019.035   -12350021.828 6  -9336782.10521        17.500           0.594
  22483647.746    -4515986.495 6  -3376005.09421        12.000           0.469
  19235672.316   -19680876.284 7 -15335744.09922        20.750           2.313
  19508321.551    -6475511.587 8  -4995775.31923        30.500           2.969
 91  6 20 19 36 14.9960000  0  4G13G15G 6G 2
  20886027.535   -12413019.479 6  -9385871.13121        17.250           0.719
  22480678.035    -4531587.437 5  -3388161.66421        10.500           0.563
  19233282.957   -19693428.172 7 -15345524.80122        21.250           2.281
  19508574.074    -6474168.350 8  -4994728.65423        29.750           2.969
 91  6 20 19 36 29.9960000  0  4G13G15G 6G 2
  20874061.762   -12475924.614 6  -9434888.07021        17.750           0.594
  22477735.449    -4547045.611 5  -3400207.01121        11.250           0.531
  19230917.324   -19705876.077 7 -15355224.46622        21.250           2.281
  19508841.387    -6472759.714 8  -4993631.02623        29.750           2.875
 91  6 20 19 36 44.9960000  0  4G13G15G 6G 2
  20862104.606   -12538734.526 6  -9483830.80821        16.750           0.625
  22474820.949    -4562358.688 5  -3412139.25321        11.250           0.531
  19228566.793   -19718217.699 7 -15364841.31922        21.750           2.281
  19509122.309    -6471283.524 8  -4992480.75423        29.500           2.813
 91  6 20 19 36 59.9960000  0  4G13G15G 6G 2
  20850169.762   -12601454.423 6  -9532703.40421        17.000           0.625
  22471933.176    -4577532.158 5  -3423962.73321        11.750           0.500
  19226238.129   -19730458.422 7 -15374379.55122        21.250           2.219
  19509416.926    -6469745.401 8  -4991282.22923        30.250           3.031
 91  6 20 19 37 14.9960000  0  4G13G15G 6G 2
  20838255.371   -12664074.314 6  -9581498.07621        16.750           0.688
  22469073.051    -4592556.374 6  -3435669.92321        12.250           0.688
  19223929.293   -19742588.449 7 -15383831.52322        21.250           2.188
  19509724.754    -6468135.668 8  -4990027.89223        30.750           2.969
 91  6 20 19 37 29.9950000  0  4G13G15G 6G 2
  20826357.507   -12726589.860 6  -9630211.43321        17.500           0.656
  22466245.460    -4607430.155 6  -3447259.88521        12.000           0.469
  19221642.554   -19754606.796 7 -15393196.47622        21.250           2.250
  19510044.257    -6466454.643 8  -4988718.01823        30.500           2.969
 91  6 20 19 37 44.9950000  0  4G13G15G 6G 2
  20814480.460   -12789014.966 6  -9678854.31921        17.750           0.813
  22463437.569    -4622161.492 5  -3458738.84821        11.250           0.563
  19219374.851   -19766521.022 7 -15402480.29522        21.000           2.281
  19510375.241    -6464708.096 8  -4987357.07723        30.750           3.000
 91  6 20 19 37 59.9950000  0  4G13G15G 6G 2
  20802618.687   -12851341.814 6  -9727420.65521        17.000           0.656
  22460663.796    -4636746.117 5  -3470103.48121        10.750           0.500
  19217128.944   -19778326.757 7 -15411679.56722        21.750           2.344
  19510721.085    -6462893.066 8  -4985942.77823        30.000           3.031
 91  6 20 19 38 14.9950000  0  4G13G15G 6G 2
  20790774.421   -12913578.519 6  -9775916.73521        17.250           0.625
  22457914.148    -4651192.010 5  -3481359.99921        11.000           0.563
  19214899.944   -19790032.246 7 -15420800.73122        21.500           2.250
  19511078.585    -6461017.848 8  -4984481.57523        30.000           3.094
 91  6 20 19 38 29.9950000  0  4G13G15G 6G 2
  20778950.413   -12975724.667 6  -9824342.25821        17.750           0.719
  22455189.304    -4665498.730 5  -3492508.09721        11.750           0.531
  19212692.155   -19801637.205 7 -15429843.55822        21.750           2.250
  19511444.476    -6459082.162 8  -4982973.25923        29.500           3.094
 91  6 20 19 38 44.9950000  0  4G13G15G 6G 2
  20767141.218   -13037780.852 6  -9872697.68821        17.500           0.813
  22452493.983    -4679667.729 5  -3503548.86121        11.250           0.531
  19210504.132   -19813142.522 7 -15438808.74622        22.250           2.344
  19511825.718    -6457087.504 8  -4981418.99123        29.750           3.156
 91  6 20 19 38 59.9950000  0  4G13G15G 6G 2
  20755352.093   -13099731.259 6  -9920970.68821        17.500           0.688
  22449823.257    -4693683.412 5  -3514470.17121        10.000           0.469
  19208335.976   -19824532.545 7 -15447684.09122        22.000           2.344
  19512221.507    -6455018.102 8  -4979806.48423        30.000           3.344
 91  6 20 19 39 14.9950000  0  4G13G15G 6G 2
  20743584.468   -13161578.276 6  -9969163.12521        17.750           0.625
  22447191.835    -4707548.214 5  -3525273.92221         9.750           0.500
  19206192.733   -19835809.856 7 -15456471.61422        22.500           2.375
  19512628.968    -6452876.829 8  -4978137.97223        29.750           3.375
 91  6 20 19 39 29.9950000  0  4G13G15G 6G 2
  20731834.390   -13223316.681 6 -10017270.92621        17.500           0.688
  22444580.241    -4721257.415 5  -3535956.39721        11.750           0.563
  19204066.601   -19846969.494 7 -15465167.43922        21.750           2.250
  19513049.366    -6450659.050 8  -4976409.84523        30.000           3.250
 91  6 20 19 39 44.9950000  0  4G13G15G 6G 2
  20720102.187   -13284964.166 6 -10065307.89921        18.250           0.750
  22442000.069    -4734828.825 5  -3546531.51821        11.500           0.469
  19201961.765   -19858029.248 7 -15473785.43622        21.500           2.281
  19513482.273    -6448382.835 8  -4974636.18323        29.750           3.313
 91  6 20 19 39 59.9950000  0  4G13G15G 6G 2
  20708391.171   -13346516.463 6 -10113270.68421        18.000           0.719
  22439448.280    -4748258.179 6  -3556995.95521        12.000           0.438
  19199875.069   -19868984.803 7 -15482322.23822        21.250           2.281
  19513927.921    -6446043.872 8  -4972813.63023        29.750           3.313
 91  6 20 19 40 14.9950000  0  4G13G15G 6G 2
  20696696.226   -13407979.107 6 -10161163.59921        18.000           0.750
  22436917.937    -4761551.226 5  -3567354.15521        11.000           0.406
  19197812.241   -19879841.862 7 -15490782.28622        21.500           2.406
  19514382.726    -6443648.042 8  -4970946.75923        30.000           3.281
 91  6 20 19 40 29.9950000  0  4G13G15G 6G 2
  20685016.054   -13469354.810 6 -10208988.78021        18.500           0.688
  22434407.741    -4774711.330 5  -3577608.76921         9.750           0.438
  19195762.054   -19890603.577 7 -15499168.04322        21.250           2.344
  19514849.319    -6441198.777 8  -4969038.25123        30.750           3.281
 91  6 20 19 40 44.9950000  0  4G13G15G 6G 2
  20673356.015   -13530628.348 6 -10256734.36121        18.250           0.781
  22431938.640    -4787723.281 5  -3587747.95721        11.500           0.313
  19193737.187   -19901254.792 7 -15507467.69822        21.250           2.313
  19515329.421    -6438681.069 8  -4967076.41523        30.750           3.250
 91  6 20 19 40 59.9950000  0  4G13G15G 6G 2
  20661717.374   -13591796.602 6 -10304397.89721        18.000           0.781
  22429488.093    -4800584.614 5  -3597769.75121        11.250           0.344
  19191729.780   -19911792.930 7 -15515679.24022        21.000           2.375
  19515820.773    -6436092.466 8  -4965059.33623        31.000           3.344
 91  6 20 19 41 14.9950000  0  4G13G15G 6G 2
  20650093.523   -13652861.853 6 -10351981.17321        18.000           0.656
  22427065.866    -4813297.486 6  -3607675.88621        12.500           0.469
  19189747.148   -19922220.084 7 -15523804.29822        21.750           2.375
  19516325.374    -6433435.361 8  -4962988.86623        29.750           3.188
 91  6 20 19 41 29.9950000  0  4G13G15G 6G 2
  20638490.546   -13713832.102 6 -10399490.41921        18.000           0.688
  22424672.632    -4825870.097 5  -3617472.72321        11.750           0.406
  19187781.999   -19932544.415 7 -15531849.24022        21.250           2.375
  19516842.093    -6430717.995 8  -4960871.44423        30.000           3.031
 91  6 20 19 41 44.9950000  0  4G13G15G 6G 2
  20626911.601   -13774708.475 6 -10446926.51021        19.500           0.688
  22422307.358    -4838303.662 5  -3627161.20121        11.500           0.469
  19185835.835   -19942767.075 7 -15539814.94722        21.500           2.375
  19517369.765    -6427941.882 8  -4958708.25123        29.750           3.156
 91  6 20 19 41 59.9950000  0  4G13G15G 6G 2
  20615344.905   -13835484.743 6 -10494284.60921        18.250           0.656
  22419971.562    -4850592.531 6  -3636736.91921        12.500           0.500
  19183913.327   -19952882.292 7 -15547696.94122        21.750           2.375
  19517915.304    -6425101.437 8  -4956494.92323        29.750           3.125
 91  6 20 19 42 14.9950000  0  4G13G15G 6G 2
  20603797.702   -13896149.447 6 -10541555.76721        18.750           0.688
  22417663.788    -4862725.346 5  -3646191.06821        11.250           0.281
  19182009.515   -19962878.683 7 -15555486.34122        21.750           2.344
  19518466.069    -6422185.393 8  -4954222.68723        29.250           3.094
 91  6 20 19 42 29.9950000  0  4G13G15G 6G 2
  20592273.976   -13956714.175 6 -10588749.02021        19.000           0.688
  22415379.233    -4874713.793 5  -3655532.71021        10.750           0.469
  19180126.780   -19972767.832 7 -15563192.17722        21.750           2.375
  19519035.241    -6419205.798 8  -4951900.93023        29.250           3.094
 91  6 20 19 42 44.9950000  0  4G13G15G 6G 2
  20580764.304   -14017182.060 6 -10635866.80921        18.250           0.688
  22413128.468    -4886561.596 5  -3664764.76721        10.750           0.469
  19178266.132   -19982553.254 7 -15570817.18222        22.250           2.313
  19519612.944    -6416166.192 8  -4949532.42123        29.000           3.063
 91  6 20 19 42 59.9950000  0  4G13G15G 6G 2
  20569282.187   -14077528.087 6 -10682889.65921        18.000           0.750
  22410901.507    -4898243.844 5  -3673867.80421        10.750           0.500
  19176428.085   -19992210.071 7 -15578341.97622        22.750           2.344
  19520206.593    -6413041.811 8  -4947097.84323        28.750           3.031
 91  6 20 19 43 14.9950000  0  4G13G15G 6G 2
  20557817.851   -14137771.387 6 -10729832.44421        18.500           0.750
  22408704.444    -4909779.856 5  -3682856.90421        11.500           0.500
  19174609.608   -20001757.399 7 -15585781.46022        21.250           2.313
  19520815.046    -6409852.142 8  -4944612.39923        29.000           3.000
 91  6 20 19 43 29.9950000  0  4G13G15G 6G 2
  20546375.694   -14197905.794 6 -10776690.38521        18.750           0.781
  22406539.788    -4921163.800 6  -3691727.50421        12.000           0.500
  19172817.624   -20011189.421 7 -15593131.09222        22.000           2.438
  19521436.273    -6406591.473 8  -4942071.62823        29.000           3.125
 91  6 20 19 43 44.9950000  0  4G13G15G 6G 2
  20534953.163   -14257939.377 6 -10823469.76621        18.750           0.781
  22404404.499    -4932404.072 5  -3700486.15821        11.250           0.406
  19171041.038   -20020514.359 7 -15600397.28322        21.750           2.281
  19522066.218    -6403268.195 8  -4939482.06823        29.000           3.063
 91  6 20 19 43 59.9950000  0  4G13G15G 6G 2
  20523548.640   -14317866.776 6 -10870166.39421        19.000           0.781
  22402294.757    -4943495.373 5  -3709128.74821        11.250           0.406
  19169288.335   -20029726.930 7 -15607575.92022        21.250           2.250
  19522714.757    -6399877.215 8  -4936839.75823        29.500           3.063
 91  6 20 19 44 14.9950000  0  4G13G15G 6G 2
  20512162.007   -14377700.483 6 -10916790.02721        18.500           0.781
  22400205.413    -4954450.658 5  -3717665.33521        11.250           0.531
  19167555.937   -20038839.988 7 -15614677.00522        21.500           2.344
  19523370.187    -6396431.601 8  -4934154.87223        29.750           3.063
 91  6 20 19 44 29.9950000  0  4G13G15G 6G 2
  20500798.398   -14437429.935 6 -10963332.41721        18.750           0.844
  22398148.655    -4965259.545 5  -3726087.85021        11.750           0.500
  19165841.866   -20047842.952 7 -15621692.30922        21.500           2.344
  19524035.507    -6392920.957 8  -4931419.31223        29.000           3.094
 91  6 20 19 44 44.9950000  0  4G13G15G 6G 2
  20489450.546   -14497049.624 6 -11009789.27021        19.000           0.781
  22396119.179    -4975916.456 5  -3734391.92921        11.000           0.469
  19164149.671   -20056730.486 7 -15628617.66822        21.250           2.375
  19524717.538    -6389340.028 8  -4928628.98323        29.500           3.156
 91  6 20 19 44 59.9950000  0  4G13G15G 6G 2
  20478123.937   -14556577.741 6 -11056174.78121        18.750           0.688
  22394121.030    -4986440.148 6  -3742592.20721        12.000           0.500
  19162480.023   -20065520.983 7 -15635467.40922        21.750           2.406
  19525409.819    -6385707.542 8  -4925798.48523        29.000           3.188
 91  6 20 19 45 14.9950000  0  4G13G15G 6G 2
  20466814.437   -14616002.163 6 -11102479.48221        18.500           0.875
  22392143.866    -4996818.984 5  -3750679.61121        11.250           0.438
  19160826.515   -20074202.578 7 -15642232.29922        22.000           2.375
  19526112.062    -6382011.787 8  -4922918.68623        28.750           3.094
 91  6 20 19 45 29.9950000  0  4G13G15G 6G 2
  20455524.319   -14675317.286 6 -11148699.02421        18.000           0.875
  22390201.148    -5007047.488 5  -3758649.85821        11.500           0.500
  19159194.023   -20082769.698 7 -15648907.98122        21.250           2.375
  19526829.491    -6378247.487 8  -4919985.46923        29.250           3.125
 91  6 20 19 45 44.9950000  0  4G13G15G 6G 2
  20444256.249   -14734537.008 6 -11194844.21121        18.500           0.969
  22388276.671    -5017139.838 5  -3766514.05321        11.000           0.531
  19157581.624   -20091236.611 7 -15655505.57822        21.000           2.313
  19527556.351    -6374429.019 8  -4917010.05023        29.250           3.000
 91  6 20 19 45 59.9950000  0  4G13G15G 6G 2
  20433006.937   -14793659.660 6 -11240913.78321        19.000           0.969
  22386383.616    -5027094.532 5  -3774270.95621        10.500           0.594
  19155991.585   -20099601.608 7 -15662023.76022        22.000           2.313
  19528290.366    -6370554.911 8  -4913991.27223        28.250           3.063
 91  6 20 19 46 14.9950000  0  4G13G15G 6G 2
  20421779.202   -14852652.308 6 -11286882.04321        18.750           0.844
  22384522.585    -5036879.120 5  -3781895.30721        10.000           0.469
  19154427.898   -20107831.969 7 -15668437.03422        22.000           2.313
  19529044.624    -6366592.631 8  -4910903.79123        29.000           3.094
 91  6 20 19 46 29.9950000  0  4G13G15G 6G 2
  20410574.976   -14911549.639 6 -11332776.02721        19.000           0.844
  22382691.132    -5046528.227 5  -3789414.11221        10.250           0.438
  19152877.437   -20115962.563 7 -15674772.56322        21.500           2.219
  19529811.601    -6362577.153 8  -4907774.85623        29.000           3.094
 91  6 20 19 46 44.9950000  0  4G13G15G 6G 2
  20399383.874   -14970354.438 6 -11378597.91521        19.500           0.844
  22380876.483    -5056045.149 5  -3796829.89721        11.500           0.625
  19151347.921   -20123996.409 7 -15681032.70522        21.250           2.188
  19530585.257    -6358511.777 8  -4904607.04623        28.250           3.156
 91  6 20 19 46 59.9950000  0  4G13G15G 6G 2
  20388216.874   -15029032.862 6 -11424321.32621        19.500           0.938
  22379101.007    -5065396.166 5  -3804116.40521        11.500           0.563
  19149845.015   -20131899.859 7 -15687191.24222        22.000           2.250
  19531375.202    -6354362.915 8  -4901374.18123        28.750           3.156
 91  6 20 19 47 14.9950000  0  4G13G15G 6G 2
  20377070.648   -15087598.844 6 -11469957.12421        19.000           1.000
  22377341.374    -5074595.457 5  -3811284.68821        11.000           0.563
  19148365.218   -20139686.949 7 -15693259.11222        22.000           2.281
  19532177.601    -6350144.796 8  -4898087.34623        29.250           3.031
 91  6 20 19 47 29.9950000  0  4G13G15G 6G 2
  20365947.773   -15146064.175 6 -11515514.49221        19.750           0.906
  22375620.444    -5083655.227 5  -3818344.26621        11.750           0.563
  19146901.108   -20147369.684 7 -15699245.66622        21.250           2.219
  19532990.327    -6345869.748 8  -4894756.15023        29.000           2.969
 91  6 20 19 47 44.9950000  0  4G13G15G 6G 2
  20354845.077   -15204414.652 7 -11560982.36121        20.000           0.938
  22373923.687    -5092561.622 5  -3825284.30321        11.500           0.500
  19145463.038   -20154934.006 7 -15705139.95322        21.250           2.313
  19533819.226    -6341523.707 8  -4891369.63723        29.000           3.031
 91  6 20 19 47 59.9950000  0  4G13G15G 6G 2
  20343757.265   -15262661.617 6 -11606369.57121        19.000           0.906
  22372254.515    -5101326.362 5  -3832113.96221        11.250           0.563
  19144043.030   -20162391.459 7 -15710950.95622        21.000           2.281
  19534656.671    -6337118.491 8  -4887937.01023        29.250           3.094
 91  6 20 19 48 14.9950000  0  4G13G15G 6G 2
  20332694.937   -15320800.461 7 -11651672.53821        20.000           0.906
  22370615.929    -5109944.567 5  -3838829.44121        10.250           0.438
  19142644.179   -20169737.648 7 -15716675.26322        21.500           2.281
  19535504.882    -6332649.866 8  -4884454.97323        29.000           3.125
 91  6 20 19 48 29.9950000  0  4G13G15G 6G 2
  20321657.288   -15378820.998 7 -11696883.32021        20.500           1.031
  22369009.585    -5118406.629 5  -3845423.27721        10.750           0.469
  19141269.780   -20176962.452 7 -15722304.98622        21.250           2.281
  19536370.171    -6328107.915 8  -4880915.79923        29.500           2.969
 91  6 20 19 48 44.9950000  0  4G13G15G 6G 2
  20310635.124   -15436737.789 7 -11742013.25221        20.000           0.906
  22367424.671    -5126727.338 5  -3851906.95021        11.250           0.531
  19139915.265   -20184080.513 7 -15727851.52722        21.750           2.250
  19537243.851    -6323507.411 8  -4877331.00323        29.000           3.063
 91  6 20 19 48 59.9950000  0  4G13G15G 6G 2
  20299632.187   -15494543.519 7 -11787056.63821        20.000           0.938
  22365868.874    -5134899.662 5  -3858274.99921        11.250           0.563
  19138586.999   -20191084.868 7 -15733309.47622        21.750           2.313
  19538133.749    -6318841.618 8  -4873695.32923        29.500           3.000
 91  6 20 19 49 14.9950000  0  4G13G15G 6G 2
  20288653.765   -15552242.937 6 -11832017.20721        19.750           0.844
  22364342.726    -5142928.758 5  -3864531.41821        11.750           0.469
  19137271.749   -20197980.509 7 -15738682.70722        21.500           2.313
  19539030.874    -6314115.727 8  -4870012.82623        29.250           3.063
 91  6 20 19 49 29.9950000  0  4G13G15G 6G 2
  20277695.460   -15609830.462 6 -11876890.56121        19.750           0.906
  22362842.398    -5150809.065 5  -3870671.91121        11.750           0.438
  19135980.523   -20204761.764 7 -15743966.81322        21.250           2.344
  19539942.562    -6309324.299 8  -4866279.25423        29.750           3.125
 91  6 20 19 49 44.9950000  0  4G13G15G 6G 2
  20266756.593   -15667302.450 6 -11921673.90021        19.750           0.844
  22361372.640    -5158537.427 6  -3876694.01021        12.250           0.406
  19134711.999   -20211425.286 7 -15749159.16622        20.750           2.375
  19540870.241    -6304463.951 8  -4862491.98423        30.000           3.156
 91  6 20 19 49 59.9950000  0  4G13G15G 6G 2
  20255841.632   -15724669.773 7 -11966375.68321        20.000           0.906
  22359928.054    -5166124.902 5  -3882606.33421        11.500           0.500
  19133466.194   -20217981.973 7 -15754268.27622        21.250           2.406
  19541807.593    -6299545.748 8  -4858659.62523        30.000           3.063
 91  6 20 19 50 14.9950000  0  4G13G15G 6G 2
  20244946.562   -15781922.872 7 -12010988.45421        20.250           0.938
  22358513.062    -5173562.058 5  -3888401.53321        11.250           0.625
  19132236.038   -20224422.489 7 -15759286.87322        20.250           2.406
  19542754.179    -6294560.695 8  -4854775.17923        29.750           3.094
 91  6 20 19 50 29.9950000  0  4G13G15G 6G 2
  20234072.968   -15839065.291 7 -12055514.97821        20.000           1.094
  22357122.468    -5180852.928 5  -3894082.72821        11.750           0.656
  19131035.179   -20230750.698 7 -15764217.93722        21.500           2.438
  19543714.210    -6289512.814 8  -4850841.77823        29.250           3.125
 91  6 20 19 50 44.9950000  0  4G13G15G 6G 2
  20223221.874   -15896092.000 7 -12099951.34521        20.750           1.031
  22355768.030    -5187992.880 5  -3899646.33221        11.500           0.688
  19129855.077   -20236961.617 7 -15769057.62422        21.500           2.469
  19544688.687    -6284397.347 8  -4846855.70923        29.000           3.219
 91  6 20 19 50 59.9950000  0  4G13G15G 6G 2
  20212390.874   -15953013.863 7 -12144306.01121        20.000           1.063
  22354435.312    -5194992.676 5  -3905100.73121        10.750           0.656
  19128691.757   -20243066.048 7 -15773814.33323        21.000           2.500
  19545672.843    -6279225.226 8  -4842825.49523        29.500           3.281
 91  6 20 19 51 14.9950000  0  4G13G15G 6G 2
  20201576.374   -16009832.206 6 -12188580.01321        19.250           0.938
  22353130.163    -5201854.165 6  -3910447.35321        12.250           0.594
  19127550.835   -20249065.487 7 -15778489.22423        21.250           2.500
  19546665.202    -6273998.146 8  -4838752.45723        29.250           3.344
 91  6 20 19 51 29.9950000  0  4G13G15G 6G 2
  20190784.804   -16066544.512 7 -12232771.39121        20.250           0.969
  22351853.179    -5208574.891 6  -3915684.29221        12.750           0.625
  19126428.843   -20254957.837 7 -15783080.66923        21.000           2.500
  19547673.249    -6268714.071 8  -4834635.01023        29.250           3.313
 91  6 20 19 51 44.9950000  0  4G13G15G 6G 2
  20180011.530   -16123161.385 7 -12276888.41121        20.000           1.000
  22350593.663    -5215165.933 6  -3920820.18721        12.250           0.469
  19125330.288   -20260753.869 7 -15787597.06223        21.750           2.563
  19548687.335    -6263383.945 8  -4830481.67323        29.750           3.313
 91  6 20 19 51 59.9950000  0  4G13G15G 6G 2
  20169256.007   -16179668.864 6 -12320920.17621        19.750           1.094
  22349366.093    -5221613.688 6  -3925844.42021        12.250           0.469
  19124242.523   -20266439.744 7 -15792027.62722        21.250           2.438
  19549712.679    -6257994.188 8  -4826281.87423        29.250           3.375
 91  6 20 19 52 14.9950000  0  4G13G15G 6G 2
  20158525.366   -16236066.476 6 -12364866.33721        19.500           1.094
  22348165.335    -5227918.038 6  -3930756.89021        12.750           0.531
  19123183.015   -20272015.300 7 -15796372.21423        21.250           2.531
  19550749.312    -6252544.878 8  -4822035.67023        29.750           3.313
 91  6 20 19 52 29.9950000  0  4G13G15G 6G 2
  20147819.108   -16292338.377 7 -12408714.52321        20.500           1.031
  22347003.132    -5234063.247 6  -3935545.37721        13.250           0.500
  19122145.421   -20277464.807 7 -15800618.59623        20.250           2.531
  19551801.108    -6247020.310 8  -4817730.82423        29.000           3.406
 91  6 20 19 52 44.9950000  0  4G13G15G 6G 2
  20137130.585   -16348506.080 7 -12452481.54321        20.000           1.125
  22345854.648    -5240071.312 6  -3940227.01021        13.500           0.438
  19121130.335   -20282809.924 7 -15804783.63123        20.500           2.500
  19552863.851    -6241442.325 8  -4813384.34823        29.000           3.375
 91  6 20 19 52 59.9950000  0  4G13G15G 6G 2
  20126463.554   -16404548.267 6 -12496150.75221        19.250           1.094
  22344745.812    -5245921.020 6  -3944785.20521        13.750           0.563
  19120134.358   -20288029.324 7 -15808850.70222        20.250           2.406
  19553940.413    -6235789.838 8  -4808979.82123        29.500           3.250
 91  6 20 19 53 14.9950000  0  4G13G15G 6G 2
  20115821.460   -16460479.967 7 -12539733.85621        20.000           1.125
  22343657.202    -5251627.478 6  -3949231.79821        12.000           0.594
  19119161.218   -20293138.107 7 -15812831.57522        20.500           2.469
  19555025.319    -6230078.116 8  -4804529.14423        29.750           3.313
 91  6 20 19 53 29.9950000  0  4G13G15G 6G 2
  20105202.976   -16516288.666 6 -12583221.12121        19.750           1.219
  22342598.882    -5257178.647 6  -3953557.42021        12.500           0.563
  19118215.187   -20298124.145 7 -15816716.80122        21.000           2.469
  19556126.554    -6224295.115 8  -4800022.91523        29.750           3.250
 91  6 20 19 53 44.9950000  0  4G13G15G 6G 2
  20094598.030   -16572005.340 6 -12626636.67321        19.500           1.281
  22341567.624    -5262605.782 6  -3957786.35421        12.250           0.531
  19117283.999   -20303018.524 7 -15820530.61323        21.250           2.531
  19557235.562    -6218472.034 8  -4795485.45923        30.000           3.219
 91  6 20 19 53 59.9950000  0  4G13G15G 6G 2
  20084017.976   -16627608.094 6 -12669963.46521        19.750           1.125
  22340566.366    -5267887.306 6  -3961901.86121        12.000           0.625
  19116371.819   -20307799.598 7 -15824256.13122        21.000           2.375
  19558354.069    -6212587.429 8  -4790900.06223        30.000           3.313
 91  6 20 19 54 14.9950000  0  4G13G15G 6G 2
  20073459.819   -16683097.269 7 -12713201.74621        20.250           1.094
  22339582.773    -5273023.880 6  -3965904.39721        12.000           0.625
  19115486.405   -20312467.811 7 -15827893.70722        21.000           2.375
  19559484.983    -6206642.069 8  -4786267.32123        29.500           3.375
 91  6 20 19 54 29.9950000  0  4G13G15G 6G 2
  20062920.804   -16738477.686 6 -12756355.29221        19.750           1.156
  22338633.093    -5278020.691 6  -3969798.01421        12.250           0.594
  19114619.155   -20317027.993 7 -15831447.09622        21.250           2.469
  19560628.023    -6200640.957 8  -4781591.13523        29.500           3.313
 91  6 20 19 54 44.9950000  0  4G13G15G 6G 2
  20052402.608   -16793737.966 6 -12799415.20521        19.500           1.188
  22337716.843    -5282866.469 6  -3973573.95421        14.000           0.625
  19113771.601   -20321468.792 7 -15834907.47322        21.000           2.313
  19561781.218    -6194572.691 8  -4776862.62724        29.250           3.500
 91  6 20 19 54 59.9950000  0  4G13G15G 6G 2
  20041912.366   -16848885.592 7 -12842387.34421        20.500           1.094
  22336816.562    -5287569.221 6  -3977238.45421        12.250           0.625
  19112951.468   -20325798.328 7 -15838281.13722        21.750           2.469
  19562946.210    -6188445.481 8  -4772088.19123        28.500           3.344
 91  6 20 19 55 14.9950000  0  4G13G15G 6G 2
  20031443.866   -16903894.340 7 -12885251.27121        20.500           1.063
  22335951.593    -5292102.891 6  -3980771.19021        12.000           0.688
  19112152.804   -20329990.433 7 -15841547.72222        21.500           2.375
  19564132.265    -6182233.350 8  -4767247.58023        28.500           3.469
 91  6 20 19 55 29.9950000  0  4G13G15G 6G 2
  20020994.726   -16958791.280 6 -12928028.06721        19.500           1.156
  22335115.835    -5296494.862 5  -3984193.53421        11.500           0.531
  19111375.351   -20334072.272 7 -15844728.38322        21.750           2.344
  19565324.413    -6175963.814 8  -4762362.24123        29.750           3.469
 91  6 20 19 55 44.9950000  0  4G13G15G 6G 2
  20010568.757   -17013571.412 7 -12970713.84921        20.000           1.156
  22334312.304    -5300740.649 6  -3987501.95921        12.750           0.625
  19110619.210   -20338039.129 7 -15847819.45022        21.250           2.344
  19566528.624    -6169632.159 8  -4757428.49223        29.250           3.375
 91  6 20 19 55 59.9950000  0  4G13G15G 6G 2
  20000168.726   -17068234.845 7 -13013308.69721        20.000           1.063
  22333535.929    -5304840.010 5  -3990696.27621        11.250           0.656
  19109887.030   -20341890.842 7 -15850820.78622        22.750           2.281
  19567744.991    -6163238.378 8  -4752446.33623        28.500           3.375
 91  6 20 19 56 14.9950000  0  4G13G15G 6G 2
  19989784.187   -17122788.745 6 -13055818.20121        19.500           1.156
  22332778.858    -5308800.615 5  -3993782.47521        11.750           0.781
  19109176.960   -20345635.094 7 -15853738.39222        23.000           2.469
  19568972.273    -6156790.259 8  -4747421.83823        28.500           3.375
 91  6 20 19 56 29.9950000  0  4G13G15G 6G 2
  19979429.937   -17177220.165 7 -13098232.25221        20.500           1.125
  22332054.460    -5312610.242 6  -3996751.02121        12.250           0.563
  19108486.812   -20349259.084 7 -15856562.28922        22.250           2.344
  19570212.780    -6150275.424 8  -4742345.35923        28.500           3.344
 91  6 20 19 56 44.9950000  0  4G13G15G 6G 2
  19969099.991   -17231519.089 7 -13140543.06321        21.000           1.156
  22331357.562    -5316258.954 5  -3999594.17521        11.250           0.656
  19107820.773   -20352752.877 7 -15859284.73022        22.000           2.344
  19571464.444    -6143683.995 8  -4737209.18923        28.000           3.281
 91  6 20 19 56 59.9950000  0  4G13G15G 6G 2
  19958786.515   -17285694.950 7 -13182757.98621        20.500           1.031
  22330694.757    -5319756.446 5  -4002319.52921        11.500           0.625
  19107179.366   -20356126.122 7 -15861913.24022        22.000           2.281
  19572729.179    -6137025.655 8  -4732020.88423        28.000           3.344
 91  6 20 19 57 14.9950000  0  4G13G15G 6G 2
  19948501.921   -17339751.886 7 -13224880.24421        20.500           1.063
  22330051.405    -5323106.999 5                        11.750
  19106555.601   -20359383.012 7                        22.000
  19574011.140    -6130304.927 8  -4726783.97523        28.500           3.344
 91  6 20 19 57 29.9950000  0  4G13G15G 6G 2
  19938234.327   -17393704.720 7 -13266921.38121        21.000           1.063
  22329441.358    -5326325.816 5                        11.750
  19105957.952   -20362538.525 7                        22.500
  19575299.562    -6123536.787 7  -4721510.11023        27.750           3.344
 91  6 20 19 57 44.9950000  0  4G13G15G 6G 2
  19927988.819   -17447547.792 7 -13308876.99521        20.500           1.156
  22328855.952    -5329407.434 6                        12.000
  19105376.218   -20365587.251 7                        22.250
  19576598.241    -6116715.835 8  -4716195.09723        29.000           3.188
 91  6 20 19 57 59.9950000  0  4G13G15G 6G 2
  19917765.335   -17501269.082 7 -13350737.69121        21.500           1.156
  22328298.491    -5332340.209 5                        10.750
  19104820.585   -20368517.254 7                        22.500
  19577908.077    -6109830.488 8  -4710829.90023        29.250           3.219
 91  6 20 19 58 14.9950000  0  4G13G15G 6G 2
  19907563.124   -17554880.497 7 -13392512.79521        20.750           1.094
  22327761.765    -5335136.601 5                        11.750
  19104285.460   -20371340.635 7                        22.250
  19579224.069    -6102893.017 8  -4705424.08423        28.500           3.094
 91  6 20 19 58 29.9950000  0  4G13G15G 6G 2
  19897384.796   -17608359.607 7 -13434184.80621        20.500           1.125
  22327263.366    -5337774.356 6                        12.000
  19103771.968   -20374035.114 7                        22.000
  19580560.265    -6095881.242 8  -4699960.37423        28.750           3.156
 91  6 20 19 58 44.9950000  0  4G13G15G 6G 2
  19887233.046   -17661720.145 7 -13475764.40721        21.000           1.094
  22326793.155    -5340267.655 6  -4018302.33821        12.750           0.469
  19103278.874   -20376614.871 7 -15877878.54922        22.000           2.344
  19581908.655    -6088809.486 8  -4694449.92823        29.000           2.906
 91  6 20 19 58 59.9950000  0  4G13G15G 6G 2
  19877097.929   -17714973.597 7 -13517260.57121        21.250           1.156
  22326341.124    -5342628.333 6  -4020141.81321        12.500           0.438
  19102809.015   -20379091.320 7 -15879808.25622        21.500           2.344
  19583262.515    -6081689.442 8  -4688901.84923        28.750           3.031
 91  6 20 19 59 14.9950000  0  4G13G15G 6G 2
  19866986.796   -17768105.471 7 -13558662.00221        21.250           1.219
  22325916.694    -5344841.687 6  -4021866.53421        12.000           0.531
  19102361.343   -20381449.985 7 -15881646.18122        22.250           2.250
  19584627.812    -6074506.449 8  -4683304.72123        28.750           2.906
 91  6 20 19 59 29.9950000  0  4G13G15G 6G 2
  19856899.296   -17821119.362 7 -13599971.49721        20.750           1.188
  22325523.280    -5346912.056 6  -4023479.80821        12.000           0.625
  19101934.304   -20383694.755 7 -15883395.36122        22.750           2.250
  19586006.554    -6067264.604 8  -4677661.73823        28.250           2.813
 91  6 20 19 59 44.9950000  0  4G13G15G 6G 2
  19846832.210   -17874024.950 7 -13641196.60121        21.750           1.219
  22325154.132    -5348848.923 5  -4024989.06521        11.500           0.500
  19101522.788   -20385835.367 7 -15885063.38022        22.500           2.188
  19587392.952    -6059973.745 8  -4671980.56023        28.000           2.875
 91  6 20 19 59 59.9950000  0  4G13G15G 6G 2
  19836790.054   -17926802.525 7 -13682321.95421        21.500           1.250
  22324813.358    -5350633.021 5  -4026379.28521        11.000           0.469
  19101141.015   -20387852.294 7 -15886635.01822        22.250           2.156
  19588795.585    -6052614.627 8  -4666246.18823        28.500           3.063
 91  6 20 20  0 14.9950000  0  4G13G15G 6G 2
  19826768.749   -17979451.756 7 -13723347.29521        21.250           1.281
  22324507.226    -5352264.540 6  -4027650.60621        12.000           0.469
  19100779.421   -20389745.442 7 -15888110.21422        22.000           2.125
  19590209.413    -6045187.267 8  -4660458.64823        28.250           2.938
 91  6 20 20  0 29.9950000  0  4G13G15G 6G 2
  19816773.741   -18031975.980 7 -13764275.23321        21.000           1.281
  22324222.858    -5353747.198 5  -4028805.91821        11.750           0.594
  19100445.444   -20391518.332 7 -15889491.70022        22.750           2.094
  19591635.499    -6037695.488 8  -4654620.90723        28.250           2.938
 91  6 20 20  0 44.9950000  0  4G13G15G 6G 2
  19806802.913   -18084372.425 7 -13805103.59521        20.500           1.250
  22323967.140    -5355078.427 5  -4029843.27221        11.750           0.594
  19100127.538   -20393168.381 7 -15890777.46122        21.750           2.219
  19593075.023    -6030136.679 8  -4648730.93323        28.750           2.875
 91  6 20 20  0 59.9950000  0  4G13G15G 6G 2
  19796856.233   -18136637.678 7 -13845829.73221        20.750           1.281
  22323748.069    -5356255.030 5  -4030760.09921        11.750           0.563
  19099835.694   -20394692.124 7 -15891964.80222        21.750           2.250
  19594524.866    -6022507.726 8  -4642786.30423        28.250           2.906
 91  6 20 20  1 14.9950000  0  4G13G15G 6G 2
  19786936.569   -18188787.772 7 -13886466.14121        20.750           1.406
  22323552.468    -5357293.721 6  -4031569.50221        12.000           0.500
  19099569.718   -20396106.077 7 -15893066.59222        22.000           2.250
  19595986.319    -6014825.178 8  -4636799.91123        28.000           2.906
 91  6 20 20  1 29.9950000  0  4G13G15G 6G 2
  19777032.780   -18240817.703 7 -13927008.90521        20.500           1.281
  22323377.116    -5358189.754 5  -4032267.70321        11.750           0.594
  19099324.960   -20397405.382 7 -15894079.05022        22.000           2.281
  19597457.530    -6007084.182 8  -4630767.97523        28.250           2.969
 91  6 20 20  1 44.9950000  0  4G13G15G 6G 2
  19767154.491   -18292717.805 7 -13967450.50621        20.000           1.313
  22323237.601    -5358933.374 5  -4032847.14021        11.000           0.594
  19099098.530   -20398580.249 7 -15894994.53722        21.500           2.281
  19598946.343    -5999274.993 8  -4624682.89623        29.250           3.031
 91  6 20 20  1 59.9950000  0  4G13G15G 6G 2
  19757302.601   -18344494.189 7 -14007795.71421        20.250           1.344
  22323122.468    -5359530.946 5  -4033312.79321        11.000           0.469
  19098897.874   -20399636.890 7 -15895817.90522        21.500           2.250
  19600441.405    -5991404.230 8  -4618549.84423        28.500           3.063
 91  6 20 20  2 14.9950000  0  4G13G15G 6G 2
  19747470.976   -18396160.104 6 -14048054.83621        19.750           1.313
  22323034.671    -5359996.111 5  -4033675.29021        11.000           0.563
  19098716.179   -20400588.842 7 -15896559.69522        22.000           2.281
  19601952.507    -5983485.372 8  -4612379.31523        29.500           3.094
 91  6 20 20  2 29.9950000  0  4G13G15G 6G 2
  19737666.280   -18447696.096 7 -14088212.71121        20.750           1.375
  22322979.890    -5360309.901 6  -4033919.81321        12.000           0.313
  19098560.913   -20401416.847 7 -15897204.90522        22.250           2.250
  19603468.601    -5975499.078 8  -4606156.24223        28.250           3.125
 91  6 20 20  2 44.9950000  0  4G13G15G 6G 2
  19727882.179   -18499112.028 7 -14128277.04021        21.000           1.313
  22322944.319    -5360482.131 5                        11.500
  19098425.929   -20402130.567 7 -15897761.06122        22.500           2.281
  19605001.085    -5967455.483 8  -4599888.51223        28.250           3.063
 91  6 20 20  2 59.9950000  0  4G13G15G 6G 2
  19718115.608   -18550414.089 6 -14168252.64121        19.750           1.313
  22322934.390    -5360519.704 5                        11.500
  19098307.655   -20402736.647 7 -15898233.34122        22.000           2.344
  19606542.694    -5959361.224 8  -4593581.30723        28.250           3.094
 91  6 20 20  3 14.9950000  0  4G13G15G 6G 2
  19708377.233   -18601601.815 7 -14208139.14421        20.000           1.344
  22322952.796    -5360422.471 5                        11.250
  19098213.452   -20403234.843 7 -15898621.55322        22.000           2.219
  19608091.757    -5951216.383 8  -4587234.68823        28.750           3.219
 91  6 20 20  3 29.9950000  0  4G13G15G 6G 2
  19698662.726   -18652656.666 7 -14247922.12121        21.000           1.281
  22323001.898    -5360171.975 6                        12.250
  19098141.124   -20403606.725 7 -15898911.34822        21.750           2.406
  19609652.538    -5943002.514 8  -4580834.28223        28.000           3.219
 91  6 20 20  3 44.9950000  0  4G13G15G 6G 2
  19688974.085   -18703577.185 7 -14287600.40921        21.000           1.281
  22323075.273    -5359767.358 5                        11.750
  19098099.640   -20403851.256 7 -15899101.90122        22.250           2.344
  19611229.265    -5934718.587 8  -4574379.28623        28.000           3.063
 91  6 20 20  3 59.9950000  0  4G13G15G 6G 2
  19679305.632   -18754371.365 7 -14327180.25421        20.250           1.344
  22323185.530    -5359216.844 5  -4033068.13421        11.750           0.563
  19098071.483   -20403976.377 7                        22.250
  19612819.296    -5926372.799 8  -4567876.07723        28.750           3.094
 91  6 20 20  4 14.9950000  0  4G13G15G 6G 2
  19669665.710   -18805039.009 7 -14366661.50121        21.000           1.344
  22323312.429    -5358520.378 6  -4032525.43121        12.250           0.531
  19098071.382   -20403981.917 7                        21.750
  19614420.444    -5917965.130 8  -4561324.65823        28.250           3.063
 91  6 20 20  4 29.9950000  0  4G13G15G 6G 2
  19660047.882   -18855588.726 7 -14406050.86021        21.500           1.281
  22323470.405    -5357686.686 5  -4031875.80521        11.000           0.531
  19098091.655   -20403876.436 7                        22.000
  19616028.296    -5909504.290 8  -4554731.81423        28.000           3.125
 91  6 20 20  4 44.9950000  0  4G13G15G 6G 2
  19650451.733   -18906010.610 7 -14445340.59921        21.500           1.281
  22323656.304    -5356706.893 6  -4031112.36721        12.000           0.531
  19098135.585   -20403650.847 7                        22.000
  19617652.452    -5900981.021 8  -4548090.30923        28.250           3.063
 91  6 20 20  4 59.9950000  0  4G13G15G 6G 2
  19640880.765   -18956311.122 7 -14484535.77921        22.000           1.406
  22323877.929    -5355587.397 5  -4030240.04321        11.750           0.500
  19098198.819   -20403311.237 7                        21.500
  19619284.358    -5892401.770 8  -4541405.19123        28.250           3.031
 91  6 20 20  5 14.9950000  0  4G13G15G 6G 2
  19631331.710   -19006487.097 7 -14523633.90621        21.500           1.313
  22324109.085    -5354324.964 5  -4029256.33421        10.750           0.563
  19098284.101   -20402854.346 7 -15898325.16022        21.750           2.156
  19620926.046    -5883763.569 8  -4534674.13723        28.500           2.969
 91  6 20 20  5 29.9950000  0  4G13G15G 6G 2
  19621806.179   -19056547.651 7 -14562642.09021        21.750           1.313
  22324371.929    -5352929.367 5  -4028168.87421        10.250           0.500
  19098393.429   -20402289.897 7 -15897885.34322        21.250           2.281
  19622580.851    -5875076.047 8  -4527904.65123        28.750           2.938
 91  6 20 20  5 44.9950000  0  4G13G15G 6G 2
  19612304.983   -19106474.174 7 -14601545.84521        21.500           1.313
  22324670.015    -5351382.457 5  -4026963.50621        10.750           0.531
  19098528.913   -20401599.443 7 -15897347.33922        21.500           2.250
  19624245.554    -5866320.869 8  -4521082.44523        28.000           2.844
 91  6 20 20  5 59.9950000  0  4G13G15G 6G 2
  19602828.476   -19156269.243 7 -14640347.16821        21.750           1.281
  22324999.569    -5349686.812 5  -4025642.22821        10.000           0.531
  19098679.944   -20400785.681 7 -15896713.24422        21.500           2.250
  19625923.819    -5857500.801 7  -4514209.68023        27.750           2.813
 91  6 20 20  6 14.9950000  0  4G13G15G 6G 2
  19593373.405   -19205951.070 7 -14679060.24121        22.000           1.188
  22325343.366    -5347860.930 5  -4024219.48921        10.500           0.594
  19098853.593   -20399866.824 7 -15895997.26122        21.750           2.438
  19627610.960    -5848634.301 7  -4507300.72823        27.750           2.813
 91  6 20 20  6 29.9950000  0  4G13G15G 6G 2
  19583940.437   -19255514.558 7 -14717681.11121        21.750           1.250
  22325719.163    -5345900.339 5  -4022691.77221        11.250           0.563
  19099049.585   -20398838.134 7 -15895195.69422        21.500           2.344
  19629309.023    -5839716.586 8  -4500351.87923        28.250           2.813
 91  6 20 20  6 44.9950000  0  4G13G15G 6G 2
  19574538.351   -19304949.527 7 -14756201.83621        22.750           1.281
  22326115.648    -5343794.886 5  -4021051.18221        10.750           0.625
  19099268.835   -20397689.312 7 -15894300.52122        21.000           2.375
  19631019.530    -5830737.555 8  -4493355.24523        28.250           2.781
 91  6 20 20  6 59.9950000  0  4G13G15G 6G 2
  19565152.624   -19354256.252 7 -14794622.61121        22.250           1.219
  22326544.991    -5341545.178 5  -4019298.18621        10.000           0.563
  19099511.273   -20396420.877 7 -15893312.14322        21.250           2.375
  19632740.108    -5821697.788 8  -4486311.28223        28.000           2.844
 91  6 20 20  7 14.9950000  0  4G13G15G 6G 2
  19555791.444   -19403442.643 7 -14832949.64421        22.000           1.281
  22326997.944    -5339159.508 5  -4017439.20321        11.000           0.563
  19099772.124   -20395041.132 7 -15892237.02222        20.750           2.188
  19634469.116    -5812605.728 8  -4479226.57223        28.000           2.813
 91  6 20 20  7 29.9950000  0  4G13G15G 6G 2
  19546459.788   -19452490.821 7 -14871168.96921        22.000           1.344
  22327484.124    -5336620.333 5  -4015460.65421        10.500           0.563
  19100061.132   -20393532.000 7 -15891061.08022        21.750           2.219
  19636211.179    -5803443.539 7  -4472087.21823        27.000           2.875
 91  6 20 20  7 44.9950000  0  4G13G15G 6G 2
  19537149.757   -19501403.803 7 -14909282.94821        21.500           1.344
  22327992.640    -5333930.818 5  -4013364.96521        10.500           0.469
  19100372.827   -20391896.631 7 -15889786.78022        21.750           2.219
  19637967.874    -5794214.613 7  -4464895.87123        27.500           2.844
 91  6 20 20  7 59.9950000  0  4G13G15G 6G 2
  19527865.999   -19550194.386 7 -14947301.54621        22.000           1.375
  22328531.171    -5331104.268 5  -4011162.48221         9.750           0.594
  19100704.921   -20390148.417 7 -15888424.54422        21.750           2.188
  19639732.648    -5784932.067 7  -4457662.72823        27.500           2.906
 91  6 20 20  8 14.9950000  0  4G13G15G 6G 2
  19518602.983   -19598870.176 7 -14985230.69321        21.500           1.375
  22329102.382    -5328148.699 5  -4008859.44621        10.000           0.469
  19101053.905   -20388294.825 7 -15886980.19822        21.750           2.281
  19641510.952    -5775603.423 7  -4450393.66923        27.500           2.906
 91  6 20 20  8 29.9950000  0  4G13G15G 6G 2
  19509364.444   -19647407.212 7 -15023051.72521        20.750           1.313
  22329685.296    -5325040.333 5  -4006437.36621        10.250           0.500
  19101433.952   -20386311.963 7 -15885435.12522        21.750           2.406
  19643297.944    -5766205.149 7  -4443070.35523        27.500           2.875
 91  6 20 20  8 44.9950000  0  4G13G15G 6G 2
  19500156.905   -19695818.195 7 -15060774.52921        21.250           1.469
  22330305.304    -5321792.172 5  -4003906.33021         9.750           0.469
  19101836.288   -20384212.779 7 -15883799.40722        21.500           2.375
  19645095.749    -5756750.404 7  -4435703.03423        27.750           2.906
 91  6 20 20  8 59.9950000  0  4G13G15G 6G 2
  19490964.679   -19744104.229 7 -15098399.97921        21.250           1.406
  22330945.960    -5318405.809 5  -4001267.63621         9.250           0.500
  19102254.398   -20381998.654 7 -15882074.11922        21.250           2.375
  19646907.218    -5747240.436 7  -4428292.68023        27.750           2.844
 91  6 20 20  9 14.9940000  0  4G13G15G 6G 2
  19481800.627   -19792264.813 7 -15135927.67221        21.000           1.313
  22331619.510    -5314884.131 5  -3998523.49721         8.000           0.438
  19102696.463   -20379672.403 7 -15880261.46122        21.750           2.313
  19648728.096    -5737678.664 8  -4420841.96323        28.250           3.000
 91  6 20 20  9 29.9940000  0  4G13G15G 6G 2
  19472662.963   -19840289.040 7 -15173349.11621        21.250           1.406
  22332324.385    -5311209.854 5  -3995660.43121         9.000           0.344
  19103165.549   -20377216.421 7 -15878347.72322        21.250           2.250
  19650558.440    -5728046.783 8  -4413336.61923        28.000           2.906
 91  6 20 20  9 44.9940000  0  4G13G15G 6G 2
  19463549.041   -19888193.883 7 -15210677.52422        21.250           1.500
  22333043.197    -5307403.721 5  -3992694.62421         9.250           0.375
  19103653.471   -20374651.627 7 -15876349.19022        21.500           2.281
  19652401.932    -5718365.980 8  -4405793.15023        28.250           2.906
 91  6 20 20  9 59.9940000  0  4G13G15G 6G 2
  19454458.322   -19935964.345 7 -15247901.22221        21.250           1.438
  22333792.627    -5303451.356 5  -3989614.88521         9.500           0.438
  19104164.252   -20371962.880 7 -15874254.07322        21.250           2.313
  19654255.080    -5708621.636 8  -4398200.16323        28.000           2.969
 91  6 20 20 10 14.9940000  0  4G13G15G 6G 2
  19445395.908   -19983574.872 7 -15285000.29921        21.500           1.406
  22334580.057    -5299327.313 5  -3986401.35021         9.000           0.406
  19104706.283   -20369124.818 7 -15872042.60522        21.250           2.250
  19656128.463    -5698788.199 8  -4390537.76323        28.250           2.938
 91  6 20 20 10 29.9940000  0  4G13G15G 6G 2
  19436359.307   -20031054.951 7 -15321997.72421        21.000           1.469
  22335399.065    -5295061.165 5  -3983077.11621        11.000           0.281
  19105265.861   -20366167.051 7 -15869737.85622        21.250           2.313
  19658010.744    -5688895.436 8  -4382829.13323        28.250           2.938
 91  6 20 20 10 44.9940000  0  4G13G15G 6G 2
  19427348.830   -20078412.432 7 -15358899.61722        21.500           1.500
  22336228.791    -5290661.191 5  -3979648.56521        10.000           0.375
  19105852.682   -20363097.563 7 -15867346.05822        21.500           2.344
  19659901.721    -5678951.333 8  -4375080.49423        28.000           2.844
 91  6 20 20 10 59.9940000  0  4G13G15G 6G 2
  19418363.533   -20125641.412 7 -15395701.38822        22.000           1.531
  22337098.721    -5286122.004 5  -3976111.56621        10.750           0.375
  19106457.057   -20359910.548 7 -15864862.68222        20.750           2.281
  19661804.893    -5668950.508 7  -4367287.65223        27.500           2.969
